Date StartTime U_cm/s V_cm/s W_cm/s Ustd_cm/s Vstd_cm/s Wstd_cm/s Uvar_(cm/s)^2 Vvar_(cm/s)^2 Wvar_(cm/s)^2 KE_(m/s)^2 TurbulentKE_(m/s)^2 HorizWindSpeed_cm/s FrictionSpeec_cm/s DragCoef SpeedOfSound_m/s SonicTemperature_C Pressure_mb 
05/31/2014  00:00:00       96.192       67.328       40.118       56.736       42.255       35.980     3218.968     1785.508     1294.587        1.085        0.315      117.414       11.812        0.010      341.287       15.895      859.572
05/31/2014  00:01:00       22.498       35.800       63.261       69.118       47.544       37.006     4777.250     2260.479     1369.480        0.710        0.420       42.282       35.671        0.712      341.121       15.615      859.592
05/31/2014  00:02:00       -1.518       -4.902       25.670       29.007       33.540       17.420      841.380     1124.903      303.461        0.148        0.113        5.131       17.122       11.134      341.177       15.709      859.604
05/31/2014  00:03:00       59.563       58.949       58.664       40.546       36.132       26.603     1643.990     1305.514      707.711        0.706        0.183       83.802       17.074        0.042      341.009       15.425      859.579
05/31/2014  00:04:00       82.853       64.894       25.565       60.194       28.104       25.610     3623.261      789.855      655.851        0.840        0.253      105.242       23.599        0.050      341.337       15.980      859.589
05/31/2014  00:05:00       25.819      116.026        0.164       40.293       43.313       24.418     1623.491     1875.973      596.242        0.911        0.205      118.864       22.539        0.036      341.204       15.755      859.604
05/31/2014  00:06:00      233.692      126.003       25.646       60.276       47.082       46.943     3633.246     2216.747     2203.606        3.960        0.403      265.497       30.748        0.013      341.256       15.838      859.573
05/31/2014  00:07:00      157.800      119.704       59.386      110.359       56.590       33.903    12179.073     3202.396     1149.398        2.964        0.827      198.066       36.317        0.034      341.237       15.806      859.539
05/31/2014  00:08:00      -11.229      -45.858       13.340       23.084       42.685       28.206      532.872     1821.982      795.559        0.278        0.158       47.212       19.767        0.175      340.741       14.971      859.571
05/31/2014  00:09:00       24.581      -50.672      -15.701       16.144       33.063       19.849      260.622     1093.168      393.972        0.258        0.087       56.320       17.610        0.098      340.944       15.314      859.591
05/31/2014  00:10:00        4.395       -7.514       -8.321       14.510       10.656       10.357      210.531      113.560      107.260        0.029        0.022        8.705        7.883        0.820      341.075       15.536      859.595
05/31/2014  00:11:00       46.728      -53.972       -3.365       36.732       34.439       24.042     1349.228     1186.060      578.022        0.411        0.156       71.390       12.033        0.028      340.740       14.969      859.587
05/31/2014  00:12:00       21.204      -23.389        9.797       21.511       25.500       18.456      462.706      650.256      340.632        0.127        0.073       31.570       14.818        0.220      340.816       15.098      859.584
05/31/2014  00:13:00       30.663        1.388       21.716       27.901       30.601       23.668      778.466      936.434      560.180        0.184        0.114       30.694       19.529        0.405      340.725       14.945      859.594
05/31/2014  00:14:00       65.983      -36.691       10.553       30.406       51.340       24.829      924.546     2635.786      616.485        0.499        0.209       75.498       16.198        0.046      340.476       14.522      859.582
05/31/2014  00:15:00       27.872      -10.061       19.779       38.914       45.244       34.313     1514.327     2046.998     1177.374        0.300        0.237       29.632       30.512        1.060      340.388       14.374      859.572
05/31/2014  00:16:00       36.289      -63.619      -15.254       30.404       31.663       24.935      924.409     1002.556      621.775        0.407        0.127       73.242       14.227        0.038      340.487       14.541      859.571
05/31/2014  00:17:00       14.384      -49.455      -12.412       19.163       27.203       21.371      367.208      740.027      456.714        0.219        0.078       51.504       11.424        0.049      340.747       14.983      859.578
05/31/2014  00:18:00       29.521      -55.386      -18.874       11.813       23.478       22.815      139.540      551.203      520.537        0.275        0.061       62.762       17.133        0.075      340.757       14.998      859.580
05/31/2014  00:19:00       31.885      -17.325       -4.520       12.489       19.515       20.068      155.976      380.829      402.709        0.114        0.047       36.288       12.603        0.121      340.715       14.928      859.573
05/31/2014  00:20:00       44.497      -21.677        1.470       13.574       19.021       16.229      184.244      361.780      263.372        0.163        0.040       49.496       10.616        0.046      340.662       14.838      859.567
05/31/2014  00:21:00       51.085      -21.894        5.818       20.525       22.962       18.912      421.278      527.237      357.678        0.221        0.065       55.579       11.344        0.042      340.463       14.501      859.555
05/31/2014  00:22:00       55.700      -25.021       -1.517       26.691       24.071       18.278      712.383      579.417      334.099        0.268        0.081       61.062        9.574        0.025      340.541       14.632      859.552
05/31/2014  00:23:00       22.336       -6.059       30.097       28.872       24.612       17.712      833.612      605.733      313.723        0.160        0.088       23.143       11.100        0.230      340.306       14.235      859.550
05/31/2014  00:24:00        8.084      -56.819       -6.510       25.970       28.026       18.176      674.422      785.471      330.378        0.256        0.090       57.391       14.531        0.064      341.219       15.780      859.558
05/31/2014  00:25:00      -22.542      -29.491        2.098       21.147       23.282       14.068      447.203      542.059      197.899        0.128        0.059       37.119        8.279        0.050      341.233       15.804      859.585
05/31/2014  00:26:00      -34.322      -14.601       -5.012       14.257        8.852        7.956      203.272       78.350       63.291        0.088        0.017       37.299        6.965        0.035      341.098       15.576      859.605
05/31/2014  00:27:00       -2.022      -54.490      -12.788       13.431       25.520       11.732      180.378      651.265      137.631        0.205        0.048       54.528       11.701        0.046      341.131       15.633      859.600
05/31/2014  00:28:00      -47.483      -47.563       -6.639       27.323       20.827       13.910      746.564      433.781      193.477        0.297        0.069       67.208       10.686        0.025      341.267       15.861      859.600
05/31/2014  00:29:00       -0.375        2.394       19.262       41.755       31.860       24.712     1743.491     1015.088      610.672        0.187        0.168        2.423       26.096      116.004      341.087       15.557      859.600
05/31/2014  00:30:00       79.942      -33.100       15.054       39.592       37.409       27.875     1567.494     1399.407      777.033        0.573        0.187       86.524       21.332        0.061      340.914       15.264      859.576
05/31/2014  00:31:00       41.898      -35.304       11.394       32.659       43.555       32.239     1066.624     1897.010     1039.336        0.357        0.200       54.789       29.906        0.298      340.706       14.911      859.559
05/31/2014  00:32:00       26.537      -66.700       -1.202       34.641       36.163       27.821     1199.990     1307.781      774.031        0.422        0.164       71.785       22.290        0.096      341.063       15.515      859.546
05/31/2014  00:33:00       49.762      -69.105       -1.003       36.401       39.890       30.061     1325.065     1591.197      903.665        0.554        0.191       85.157       22.596        0.070      341.071       15.530      859.549
05/31/2014  00:34:00       67.541      -62.799      -17.229       36.097       39.730       29.822     1302.982     1578.450      889.360        0.629        0.189       92.225       27.479        0.089      341.013       15.431      859.567
05/31/2014  00:35:00       51.417      -38.390        8.397       32.436       35.702       26.909     1052.112     1274.653      724.105        0.362        0.153       64.168       22.985        0.128      340.757       14.998      859.574
05/31/2014  00:36:00       45.793      -23.893       27.236       40.335       35.998       25.066     1626.884     1295.881      628.313        0.348        0.178       51.651       23.628        0.209      340.933       15.294      859.590
05/31/2014  00:37:00       32.584      -38.433       21.417       44.431       69.608       24.284     1974.102     4845.275      589.723        0.520        0.370       50.386       26.474        0.276      340.842       15.141      859.595
05/31/2014  00:38:00       50.798      -66.169       10.113       36.463       61.918       26.557     1329.537     3833.854      705.271        0.646        0.293       83.419       31.083        0.139      341.165       15.688      859.604
05/31/2014  00:39:00       24.396      -52.536       22.049       38.947       55.710       36.449     1516.862     3103.638     1328.524        0.489        0.297       57.924       37.083        0.410      341.057       15.505      859.595
05/31/2014  00:40:00       -5.405      -40.359       -1.917       22.726       28.092       16.501      516.467      789.151      272.274        0.162        0.079       40.720       13.841        0.116      341.036       15.471      859.583
05/31/2014  00:41:00        6.735       -0.226       21.685       26.142       28.806       26.285      683.380      829.779      690.904        0.136        0.110        6.739       24.596       13.323      340.817       15.100      859.596
05/31/2014  00:42:00      -55.616      -14.339        5.004       32.208       30.676       16.813     1037.345      941.008      282.680        0.279        0.113       57.435       14.529        0.064      341.147       15.658      859.644
05/31/2014  00:43:00      -25.255      -14.235       21.311       43.029       21.629       20.405     1851.480      467.812      416.348        0.201        0.137       28.991       22.074        0.580      340.798       15.067      859.689
05/31/2014  00:44:00       14.405       -0.011       26.616       30.599       43.623       31.248      936.285     1902.929      976.468        0.237        0.191       14.405       28.264        3.850      340.859       15.170      859.692
05/31/2014  00:45:00       35.228      -34.186       12.572       58.171       50.083       43.267     3383.872     2508.333     1872.063        0.516        0.388       49.088       39.675        0.653      340.980       15.375      859.679
05/31/2014  00:46:00       36.108      -26.570       16.808       40.737       43.637       35.310     1659.464     1904.210     1246.792        0.355        0.241       44.830       31.237        0.486      340.660       14.833      859.674
05/31/2014  00:47:00       54.224        2.062       15.421       46.920       48.679       38.960     2201.497     2369.684     1517.906        0.463        0.304       54.263       29.380        0.293      340.461       14.498      859.669
05/31/2014  00:48:00      106.887       63.152       33.164       55.670       42.428       32.807     3099.107     1800.159     1076.330        1.124        0.299      124.149       20.989        0.029      340.724       14.941      859.668
05/31/2014  00:49:00       87.765       37.924       11.311       40.656       37.789       29.365     1652.945     1427.990      862.327        0.661        0.197       95.608       21.228        0.049      340.667       14.845      859.677
05/31/2014  00:50:00       27.735       12.359       -1.796       35.719       23.782       22.811     1275.829      565.607      520.354        0.164        0.118       30.364       16.643        0.300      340.576       14.692      859.690
05/31/2014  00:51:00       -8.262       -9.739       -2.005       13.074       12.113       10.442      170.935      146.730      109.036        0.030        0.021       12.772        6.097        0.228      340.597       14.729      859.698
05/31/2014  00:52:00       -2.970      -35.602        8.821       17.465       17.716       17.567      305.022      313.849      308.592        0.114        0.046       35.726       10.351        0.084      340.522       14.601      859.695
05/31/2014  00:53:00        8.319      -57.909      -10.388       23.325       18.977       20.452      544.049      360.114      418.269        0.243        0.066       58.503        9.159        0.025      340.186       14.032      859.695
05/31/2014  00:54:00      -19.083      -21.453       -0.093       13.606       13.241       14.207      185.136      175.325      201.846        0.069        0.028       28.712        5.660        0.039      340.331       14.278      859.705
05/31/2014  00:55:00      -32.216       -2.547       -3.484       16.004        9.598        8.689      256.114       92.114       75.496        0.074        0.021       32.316        8.344        0.067      340.643       14.807      859.706
05/31/2014  00:56:00      -28.531      -11.973        0.379       22.770        8.885       10.368      518.485       78.951      107.500        0.083        0.035       30.942        8.449        0.075      340.777       15.032      859.709
05/31/2014  00:57:00      -65.178      -22.966       -2.704       30.388       24.630        7.341      923.446      606.647       53.886        0.318        0.079       69.106        7.191        0.011      340.849       15.153      859.726
05/31/2014  00:58:00     -110.116      -25.785       -7.429       12.094       15.457        9.955      146.271      238.928       99.093        0.666        0.024      113.095        6.217        0.003      340.773       15.025      859.749
05/31/2014  00:59:00      -93.038      -12.657       -2.503       34.505       20.735       16.677     1190.602      429.948      278.117        0.536        0.095       93.895       14.748        0.025      340.773       15.025      859.763
05/31/2014  01:00:00      -44.877       30.901       -4.304       30.906       33.758       17.261      955.170     1139.586      297.952        0.269        0.120       54.487       20.384        0.140      340.651       14.819      859.756
05/31/2014  01:01:00      -29.798       48.798       -2.095       16.151       27.474        9.342      260.853      754.810       87.266        0.219        0.055       57.177        8.220        0.021      341.044       15.483      859.735
05/31/2014  01:02:00        2.114       17.397       11.807       18.160       13.036       13.312      329.792      169.934      177.204        0.056        0.034       17.525       12.016        0.470      341.085       15.552      859.723
05/31/2014  01:03:00       50.943       23.954       17.422       15.783       18.166       16.187      249.114      330.013      262.006        0.216        0.042       56.294        9.334        0.027      340.725       14.942      859.742
05/31/2014  01:04:00       42.441       -4.770        4.397       16.725       28.077       20.231      279.719      788.301      409.302        0.166        0.074       42.709       13.535        0.100      340.087       13.866      859.754
05/31/2014  01:05:00       30.556      -33.882       -6.809       20.450       17.973       12.573      418.197      323.025      158.084        0.151        0.045       45.625        7.898        0.030      340.033       13.775      859.788
05/31/2014  01:06:00       18.683      -23.598        8.732       22.103       23.100       20.708      488.560      533.621      428.803        0.122        0.073       30.098       13.816        0.211      340.054       13.811      859.811
05/31/2014  01:07:00       44.071      -22.307        7.752       26.532       21.225       21.630      703.951      450.507      467.865        0.206        0.081       49.395        7.668        0.024      339.954       13.641      859.822
05/31/2014  01:08:00       44.864      -31.883        1.777       23.658       26.402       20.830      559.694      697.059      433.890        0.236        0.085       55.039       13.216        0.058      340.000       13.719      859.841
05/31/2014  01:09:00       47.362       -8.658        9.216       33.427       27.445       20.877     1117.369      753.206      435.833        0.235        0.115       48.147       14.393        0.089      340.180       14.023      859.852
05/31/2014  01:10:00       31.653       21.677       -9.861       22.120       17.413       22.458      489.301      303.220      504.353        0.143        0.065       38.364       14.078        0.135      340.070       13.836      859.856
05/31/2014  01:11:00       37.140       34.078       44.143       35.412       40.982       25.764     1254.031     1679.484      663.796        0.404        0.180       50.405       11.755        0.054      340.261       14.160      859.853
05/31/2014  01:12:00      117.103       56.436       26.686       54.116       40.315       31.228     2928.500     1625.299      975.175        1.157        0.276      129.993       20.880        0.026      340.550       14.647      859.835
05/31/2014  01:13:00      113.688       73.862       47.392       44.685       26.976       31.926     1996.789      727.684     1019.267        1.218        0.187      135.575       19.815        0.021      340.558       14.660      859.832
05/31/2014  01:14:00      111.279       69.352       32.016       43.214       28.073       30.177     1867.432      788.100      910.651        1.089        0.178      131.121       13.178        0.010      340.591       14.717      859.847
05/31/2014  01:15:00       85.772       46.408       34.275       36.101       38.290       24.156     1303.255     1466.131      583.532        0.702        0.168       97.522       17.908        0.034      340.220       14.090      859.870
05/31/2014  01:16:00       56.108       45.065       47.027       40.601       23.055       21.986     1648.435      531.531      483.363        0.503        0.133       71.965       16.111        0.050      340.142       13.957      859.884
05/31/2014  01:17:00       67.486       58.483       41.275       32.556       27.031       28.304     1059.868      730.653      801.099        0.613        0.130       89.300       16.020        0.032      340.194       14.047      859.888
05/31/2014  01:18:00       83.085       67.284       46.978       31.200       26.307       21.832      973.462      692.041      476.624        0.789        0.107      106.913       12.368        0.013      340.211       14.075      859.890
05/31/2014  01:19:00       63.849       53.900       49.142       57.860       46.519       28.652     3347.765     2163.987      820.926        0.786        0.317       83.558       21.675        0.067      340.247       14.136      859.886
05/31/2014  01:20:00        7.510       17.174       39.636       23.936       38.112       21.673      572.912     1452.522      469.722        0.221        0.125       18.744       20.983        1.253      340.136       13.948      859.904
05/31/2014  01:21:00        4.556      -34.987       -8.565       28.531       19.889       11.426      814.036      395.579      130.550        0.133        0.067       35.282        9.036        0.066      339.989       13.702      859.920
05/31/2014  01:22:00       28.992      -21.766       -4.700       20.044       15.763        9.784      401.780      248.464       95.728        0.104        0.037       36.253        3.916        0.012      340.252       14.143      859.936
05/31/2014  01:23:00       -7.597       -2.833       -0.959        8.186        4.511        5.049       67.008       20.345       25.496        0.009        0.006        8.108        4.872        0.361      340.353       14.315      859.936
05/31/2014  01:24:00      -41.478       -6.277       -0.709       16.849        8.164        9.216      283.905       66.652       84.933        0.110        0.022       41.950        8.100        0.037      340.344       14.302      859.933
05/31/2014  01:25:00      -23.606       -2.475        1.216       12.100        7.300        6.038      146.420       53.293       36.463        0.040        0.012       23.735        6.283        0.070      340.425       14.436      859.931
05/31/2014  01:26:00        0.639       16.765        6.502        4.543       11.003        7.097       20.643      121.063       50.366        0.026        0.010       16.778        5.439        0.105      340.018       13.750      859.925
05/31/2014  01:27:00       12.126        6.325       15.184       23.668       11.760       18.738      560.177      138.289      351.117        0.073        0.052       13.676        9.639        0.497      339.766       13.327      859.925
05/31/2014  01:28:00       17.277       -2.311        5.418       20.781       10.005       14.812      431.844      100.096      219.382        0.054        0.038       17.430       10.964        0.396      340.037       13.785      859.932
05/31/2014  01:29:00      -10.485        1.514       17.013       53.777       26.602       25.582     2891.942      707.649      654.454        0.233        0.213       10.594       28.405        7.190      340.247       14.136      859.941
05/31/2014  01:30:00       46.925       47.964       27.415       28.239       19.555       26.296      797.454      382.415      691.495        0.356        0.094       67.100       12.515        0.035      339.982       13.688      859.954
05/31/2014  01:31:00       64.711       28.627       -0.738       15.888       14.177       20.053      252.441      200.992      402.116        0.293        0.043       70.760        8.110        0.013      339.897       13.545      859.959
05/31/2014  01:32:00       49.042       27.292        0.161       32.450       27.514       17.735     1053.015      757.030      314.547        0.264        0.106       56.125        6.876        0.015      340.051       13.803      859.959
05/31/2014  01:33:00       -0.975       42.238      -14.222       12.842       40.854        7.670      164.920     1669.052       58.822        0.194        0.095       42.249        9.756        0.053      340.209       14.072      859.978
05/31/2014  01:34:00       14.882       75.038      -18.475       12.040       23.285        9.259      144.950      542.169       85.733        0.348        0.039       76.500       10.048        0.017      340.296       14.216      859.985
05/31/2014  01:35:00       31.076       81.975      -10.478       16.456       18.158       11.995      270.811      329.725      143.871        0.427        0.037       87.668        8.518        0.009      340.370       14.343      859.988
05/31/2014  01:36:00       41.544       97.132      -14.966       21.240       17.540       15.356      451.127      307.648      235.810        0.619        0.050      105.643        9.199        0.008      340.321       14.261      859.976
05/31/2014  01:37:00       72.840       71.018       10.834       37.602       34.093       29.570     1413.934     1162.300      874.360        0.696        0.173      101.731       23.927        0.055      339.953       13.640      859.969
05/31/2014  01:38:00       82.988       42.912       32.148       36.072       34.284       26.099     1301.163     1175.426      681.154        0.646        0.158       93.426       19.105        0.042      339.904       13.558      859.988
05/31/2014  01:39:00       50.395       26.324       24.987       35.547       25.648       21.888     1263.595      657.804      479.076        0.313        0.120       56.856       15.303        0.072      339.768       13.327      860.009
05/31/2014  01:40:00       16.882        6.694       22.739       24.613       23.115       15.641      605.793      534.288      244.632        0.112        0.069       18.161       14.315        0.621      339.454       12.799      860.033
05/31/2014  01:41:00       30.509      -16.304        2.040       34.277       26.264       17.503     1174.893      689.814      306.345        0.169        0.109       34.593       18.786        0.295      339.456       12.803      860.060
05/31/2014  01:42:00       37.102      -11.738       12.361       36.045       31.376       25.808     1299.222      984.465      666.067        0.231        0.147       38.915       24.841        0.407      339.468       12.821      860.070
05/31/2014  01:43:00       20.018       23.863       33.873       29.675       33.556       25.951      880.591     1125.988      673.439        0.240        0.134       31.147       26.336        0.715      339.244       12.444      860.063
05/31/2014  01:44:00       17.167       35.584       34.440       23.604       25.043       23.555      557.168      627.144      554.817        0.224        0.087       39.508       19.101        0.234      339.386       12.684      860.026
05/31/2014  01:45:00       35.157       48.910       -3.913       16.250       15.132       19.008      264.057      228.976      361.314        0.225        0.043       60.234       11.449        0.036      339.718       13.243      859.988
05/31/2014  01:46:00       30.353       20.074       -2.462       26.429       32.612       15.627      698.483     1063.556      244.211        0.167        0.100       36.391       16.356        0.202      339.770       13.333      859.978
05/31/2014  01:47:00       -3.145      -51.570        0.204       20.673       23.042       17.944      427.378      530.954      321.976        0.197        0.064       51.666       11.765        0.052      339.835       13.442      859.986
05/31/2014  01:48:00       27.605      -64.820       -3.016       26.640       24.518       13.805      709.682      601.111      190.591        0.324        0.075       70.453       14.174        0.040      340.002       13.723      860.019
05/31/2014  01:49:00       12.983      -73.290        7.388       29.131       30.213       22.892      848.629      912.799      524.022        0.394        0.114       74.431       14.759        0.039      340.176       14.017      860.048
05/31/2014  01:50:00      -21.556      -45.191       11.642       37.449       21.888       19.267     1402.419      479.067      371.227        0.245        0.113       50.069        9.290        0.034      340.246       14.134      860.051
05/31/2014  01:51:00      -21.932      -43.692       10.576       12.370       17.848       15.850      153.011      318.563      251.234        0.161        0.036       48.887        9.678        0.039      340.124       13.929      860.043
05/31/2014  01:52:00       -3.074       -4.239       -3.339       23.145       23.329       20.207      535.695      544.252      408.333        0.076        0.074        5.236       18.617       12.643      339.803       13.388      860.028
05/31/2014  01:53:00      -15.073      -16.825        6.375       17.930       13.560       14.703      321.474      183.868      216.179        0.064        0.036       22.589       11.532        0.261      340.188       14.037      860.022
05/31/2014  01:54:00        3.998       -7.934        6.987       14.902       21.690       13.356      222.062      470.473      178.385        0.050        0.044        8.884       13.823        2.421      339.930       13.601      860.022
05/31/2014  01:55:00      -37.138        0.650       10.528       28.031       23.837       15.547      785.752      568.223      241.721        0.154        0.080       37.144       15.577        0.176      340.193       14.045      860.016
05/31/2014  01:56:00      -29.356       11.144       10.376       29.688       29.085       16.530      881.368      845.957      273.252        0.155        0.100       31.400       17.511        0.311      339.860       13.485      860.020
05/31/2014  01:57:00       23.186       21.166        5.557       20.823       24.342       11.188      433.608      592.541      125.176        0.108        0.058       31.394        8.989        0.082      339.639       13.111      860.017
05/31/2014  01:58:00       14.679        6.694       11.805       16.881       17.720        9.079      284.977      313.986       82.435        0.054        0.034       16.133        6.071        0.142      339.553       12.966      860.003
05/31/2014  01:59:00      -18.224       37.606       -3.688       27.364       17.017       13.998      748.761      289.571      195.954        0.150        0.062       41.789       15.826        0.143      339.902       13.552      859.983
05/31/2014  02:00:00      -51.241       54.482      -10.624       16.782       17.363       13.974      281.637      301.487      195.268        0.324        0.039       74.793       11.527        0.024      339.989       13.701      859.987
05/31/2014  02:01:00      -64.678       44.401       -9.777       16.753       23.147       15.269      280.672      535.770      233.134        0.365        0.052       78.452        3.468        0.002      339.980       13.684      860.004
05/31/2014  02:02:00      -55.632       20.405       -6.419       30.065       37.893       18.863      903.909     1435.885      355.799        0.312        0.135       59.257       14.114        0.057      339.925       13.592      860.028
05/31/2014  02:03:00      -28.791       -3.752       -3.169       19.742       18.220       14.124      389.761      331.969      199.484        0.089        0.046       29.034       10.157        0.122      339.866       13.494      860.059
05/31/2014  02:04:00      -91.307      -29.508       -7.014       59.866       13.368       12.582     3583.928      178.702      158.316        0.659        0.196       95.956       23.664        0.061      339.601       13.048      860.082
05/31/2014  02:05:00     -149.230      -17.327       -9.335       71.570       44.383       24.784     5122.315     1969.881      614.258        1.518        0.385      150.233       30.708        0.042      339.627       13.090      860.093
05/31/2014  02:06:00     -127.868       18.323       -7.653       50.469       39.750       24.910     2547.082     1580.044      620.488        1.075        0.237      129.175       16.767        0.017      339.729       13.262      860.093
05/31/2014  02:07:00     -120.682       52.427      -13.634       40.795       25.296       18.063     1664.233      639.902      326.270        1.006        0.132      131.578        8.630        0.004      339.790       13.366      860.085
05/31/2014  02:08:00      -28.114       35.124       -0.751       24.197       17.442       11.910      585.514      304.224      141.854        0.153        0.052       44.990       12.817        0.081      340.072       13.839      860.059
05/31/2014  02:09:00       45.247       21.442       -4.131       24.049       14.746       12.165      578.333      217.449      147.985        0.173        0.047       50.071       13.381        0.071      340.198       14.053      860.039
05/31/2014  02:10:00       39.356       29.732       15.274       21.603       15.445       19.164      466.703      238.535      367.246        0.187        0.054       49.324       14.973        0.092      339.833       13.437      860.018
05/31/2014  02:11:00        4.088       17.990       28.311       18.271       21.651       16.534      333.813      468.761      273.381        0.111        0.054       18.448       17.738        0.924      339.740       13.280      860.006
05/31/2014  02:12:00      -11.840        8.626        7.973       12.457       13.091       12.589      155.169      171.377      158.479        0.038        0.024       14.649       12.531        0.732      339.790       13.366      860.012
05/31/2014  02:13:00      -54.302       11.679       -7.792       26.221       19.605        8.965      687.529      384.369       80.373        0.215        0.058       55.544        3.806        0.005      340.036       13.780      860.025
05/31/2014  02:14:00     -136.154      -12.411       -6.817       49.661       33.164       26.778     2466.218     1099.841      717.080        1.151        0.214      136.718       22.130        0.026      339.585       13.020      860.052
05/31/2014  02:15:00     -112.842      -18.467       -3.520       44.866       43.025       32.313     2012.967     1851.152     1044.138        0.900        0.245      114.343       27.754        0.059      339.491       12.859      860.078
05/31/2014  02:16:00     -126.419      -27.141      -14.796       31.592       43.534       22.025      998.056     1895.180      485.105        1.016        0.169      129.300       17.727        0.019      339.513       12.898      860.107
05/31/2014  02:17:00      -69.070      -37.087       -0.035       40.658       32.786       19.020     1653.084     1074.913      361.775        0.462        0.154       78.397       20.377        0.068      339.595       13.036      860.119
05/31/2014  02:18:00      -23.997       13.447        5.743       25.994       24.273       17.776      675.682      589.192      315.989        0.118        0.079       27.508       19.853        0.521      339.633       13.099      860.108
05/31/2014  02:19:00      -18.038       15.912        0.986       16.255       16.914       11.035      264.215      286.068      121.778        0.063        0.034       24.053        8.296        0.119      339.869       13.496      860.087
05/31/2014  02:20:00        4.299       25.316        4.246       15.136       11.780        8.424      229.102      138.777       70.968        0.056        0.022       25.678        7.688        0.090      340.183       14.026      860.068
05/31/2014  02:21:00        5.149       13.080        3.016       12.779       18.095        6.640      163.292      327.435       44.083        0.037        0.027       14.057        5.783        0.169      340.103       13.892      860.064
05/31/2014  02:22:00       10.800      -34.230       -8.512        8.471       20.664       10.972       71.761      427.010      120.385        0.099        0.031       35.894       11.860        0.109      339.911       13.568      860.085
05/31/2014  02:23:00      -55.631      -18.188       -4.101       29.354       12.076       15.191      861.632      145.829      230.780        0.234        0.062       58.529       15.268        0.068      339.458       12.805      860.101
05/31/2014  02:24:00      -41.728      -10.539       -5.812       27.781       19.135       13.184      771.793      366.166      173.818        0.160        0.066       43.038        6.402        0.022      339.358       12.637      860.110
05/31/2014  02:25:00      -72.195      -22.396      -14.556       24.905       16.902       11.551      620.271      285.668      133.423        0.348        0.052       75.589        5.571        0.005      339.732       13.267      860.105
05/31/2014  02:26:00      -52.936      -24.022       -2.328       13.942       20.208        8.928      194.370      408.378       79.708        0.203        0.034       58.132        6.920        0.014      339.872       13.503      860.092
05/31/2014  02:27:00      -35.269       -9.318       -9.688       11.698       14.106        5.663      136.833      198.983       32.072        0.090        0.018       36.479        4.024        0.012      339.771       13.335      860.074
05/31/2014  02:28:00      -66.725      -31.698      -12.745        7.095        9.022        8.169       50.345       81.405       66.733        0.291        0.010       73.872        6.811        0.009      339.653       13.134      860.057
05/31/2014  02:29:00     -110.734      -39.917      -12.588       21.364       14.472        5.398      456.437      209.449       29.134        0.735        0.035      117.709        2.877        0.001      339.486       12.851      860.049
05/31/2014  02:30:00     -141.578      -46.246      -13.744       14.404       20.994       11.193      207.487      440.760      125.292        1.157        0.039      148.939        4.697        0.001      339.256       12.465      860.047
05/31/2014  02:31:00      -92.849      -30.416       -5.978       32.094       27.987       20.222     1030.051      783.263      408.910        0.590        0.111       97.704       18.193        0.035      339.119       12.236      860.058
05/31/2014  02:32:00      -58.856      -22.117       -2.582       17.193       14.695        9.313      295.593      215.949       86.726        0.228        0.030       62.874        4.916        0.006      339.286       12.516      860.069
05/31/2014  02:33:00      -56.733      -32.509        4.338       15.815        9.172        9.381      250.103       84.129       87.999        0.236        0.021       65.387        6.188        0.009      339.382       12.677      860.074
05/31/2014  02:34:00      -27.470      -17.940        0.242       14.321       11.021       10.311      205.104      121.466      106.323        0.075        0.022       32.809        3.499        0.011      339.477       12.836      860.063
05/31/2014  02:35:00      -23.908      -30.155      -11.905       10.840       11.673        9.536      117.515      136.251       90.934        0.098        0.017       38.482        3.986        0.011      339.600       13.044      860.053
05/31/2014  02:36:00      -40.075      -32.048        1.494       28.164       15.055       14.795      793.239      226.665      218.894        0.194        0.062       51.313       15.122        0.087      339.697       13.209      860.039
05/31/2014  02:37:00      -33.044      -31.538       -0.668       26.196       14.953       11.996      686.255      223.579      143.907        0.157        0.053       45.679        9.467        0.043      339.511       12.894      860.033
05/31/2014  02:38:00       -7.327      -34.351        7.463       28.399       18.421       20.520      806.490      339.346      421.053        0.143        0.078       35.123       16.705        0.226      339.511       12.895      860.055
05/31/2014  02:39:00      -48.942      -47.519        2.889       33.703       24.644       16.800     1135.921      607.307      282.252        0.334        0.101       68.215       13.945        0.042      339.556       12.970      860.081
05/31/2014  02:40:00      -77.946      -22.813        4.475       30.594       23.711       17.673      935.999      562.223      312.348        0.421        0.091       81.216       17.028        0.044      339.461       12.810      860.105
05/31/2014  02:41:00      -86.961        5.163       -8.801       60.508       21.082       21.617     3661.267      444.447      467.299        0.612        0.229       87.114       28.999        0.111      339.327       12.584      860.117
05/31/2014  02:42:00      -62.066       -7.277       -2.858       45.669       25.651       20.598     2085.617      657.985      424.267        0.354        0.158       62.491       24.222        0.150      339.174       12.326      860.122
05/31/2014  02:43:00      -14.635       -8.560        7.536       34.433       15.704       17.275     1185.616      246.617      298.438        0.104        0.087       16.955       17.062        1.013      339.142       12.273      860.115
05/31/2014  02:44:00      -44.361        6.195        4.213       32.101       21.810       13.374     1030.496      475.688      178.855        0.185        0.084       44.792        8.982        0.040      339.648       13.124      860.114
05/31/2014  02:45:00      -32.433      -21.303        3.783       24.955       19.557       13.268      622.729      382.476      176.028        0.135        0.059       38.804       10.172        0.069      339.609       13.059      860.127
05/31/2014  02:46:00      -56.798      -45.012       -1.023       24.198       15.447       13.983      585.542      238.605      195.526        0.314        0.051       72.471        9.836        0.018      339.119       12.233      860.136
05/31/2014  02:47:00      -81.941      -26.898      -10.144       35.552       29.240       17.649     1263.952      855.000      311.478        0.499        0.122       86.243       17.735        0.042      338.857       11.793      860.141
05/31/2014  02:48:00      -54.598      -48.120       -7.396       35.572       34.221       20.395     1265.393     1171.063      415.946        0.410        0.143       72.777       17.888        0.060      338.865       11.808      860.135
05/31/2014  02:49:00      -23.559      -28.670       19.887       73.699       20.589       27.788     5431.597      423.900      772.164        0.420        0.331       37.108       39.845        1.153      338.836       11.758      860.119
05/31/2014  02:50:00     -119.338      -56.482       -9.741       20.913       19.647       15.667      437.358      385.989      245.467        0.930        0.053      132.029       12.003        0.008      338.742       11.600      860.110
05/31/2014  02:51:00     -123.627      -56.901      -10.911       16.699       25.842       12.481      278.862      667.789      155.787        0.987        0.055      136.093        5.565        0.002      338.804       11.706      860.111
05/31/2014  02:52:00     -134.551      -60.274       -6.575       46.228       34.990       19.907     2137.014     1224.318      396.307        1.277        0.188      147.434       14.419        0.010      338.760       11.631      860.119
05/31/2014  02:53:00     -114.017      -13.904       -8.261       47.024       49.506       21.345     2211.244     2450.838      455.597        0.919        0.256      114.861       19.623        0.029      338.805       11.705      860.118
05/31/2014  02:54:00     -137.463        4.301      -11.204       52.980       41.146       24.697     2806.838     1693.008      609.965        1.207        0.255      137.530       19.162        0.019      339.010       12.049      860.110
05/31/2014  02:55:00     -152.571      -39.135        0.010       29.400       24.672       17.427      864.353      608.684      303.691        1.329        0.089      157.510       14.749        0.009      338.878       11.829      860.099
05/31/2014  02:56:00     -104.199      -32.637        0.040       29.121       23.792       14.716      848.028      566.069      216.566        0.678        0.082      109.191       13.123        0.014      338.825       11.741      860.088
05/31/2014  02:57:00      -67.465        1.296        2.254       44.513       41.669       22.184     1981.395     1736.269      492.139        0.438        0.210       67.478       22.745        0.114      338.760       11.630      860.075
05/31/2014  02:58:00      -74.319       15.746       -9.958       39.784       49.850       21.910     1582.750     2485.015      480.067        0.521        0.227       75.969       24.834        0.107      338.785       11.672      860.071
05/31/2014  02:59:00      -31.556       -1.337       -9.972       18.736       25.492       16.273      351.036      649.825      264.820        0.118        0.063       31.584       11.266        0.127      338.681       11.497      860.081
05/31/2014  03:00:00      -46.670        7.478      -15.282       31.251       48.887       16.311      976.650     2389.925      266.048        0.305        0.182       47.265       13.250        0.079      338.696       11.523      860.101
05/31/2014  03:01:00       -3.753      -38.004        3.994       51.166       27.076       27.029     2617.992      733.111      730.546        0.278        0.204       38.188       25.028        0.430      338.636       11.421      860.104
05/31/2014  03:02:00      -52.527      -53.257       -9.240       49.427       27.725       18.517     2443.076      768.653      342.889        0.462        0.178       74.802       11.677        0.024      338.453       11.115      860.106
05/31/2014  03:03:00     -123.304      -35.276      -16.798       28.328       21.823       14.612      802.497      476.242      213.519        0.911        0.075      128.250       11.288        0.008      338.345       10.935      860.105
05/31/2014  03:04:00     -120.589      -46.674      -20.761       23.856       26.424       16.349      569.086      698.243      267.290        0.934        0.077      129.307       13.367        0.011      338.386       11.001      860.103
05/31/2014  03:05:00     -129.227      -45.514      -16.537       31.326       30.639       18.635      981.295      938.750      347.273        1.066        0.113      137.008       17.584        0.016      338.432       11.079      860.105
05/31/2014  03:06:00     -200.992        5.870      -12.996       61.219       39.441       31.555     3747.778     1555.597      995.708        2.345        0.315      201.077       33.817        0.028      338.559       11.291      860.104
05/31/2014  03:07:00     -194.785       17.070      -17.975       59.255       46.307       29.215     3511.166     2144.312      853.491        2.253        0.325      195.532       26.247        0.018      338.622       11.396      860.114
05/31/2014  03:08:00     -150.963       30.492      -19.426       59.840       53.105       38.378     3580.832     2820.120     1472.852        1.598        0.394      154.011       19.511        0.016      338.637       11.423      860.123
05/31/2014  03:09:00     -168.551       45.136      -11.213       52.658       42.068       31.725     2772.842     1769.697     1006.477        1.806        0.277      174.490       30.107        0.030      338.576       11.321      860.119
05/31/2014  03:10:00      -58.039        1.321       -4.588       77.869       47.809       33.997     6063.552     2285.677     1155.785        0.645        0.475       58.054       41.187        0.503      338.708       11.544      860.114
05/31/2014  03:11:00      -18.557       16.044       -2.393       37.364       27.797       26.646     1396.062      772.679      710.033        0.174        0.144       24.531       23.484        0.916      338.648       11.442      860.127
05/31/2014  03:12:00      -56.259       14.236      -18.327       25.936       32.630       20.425      672.651     1064.718      417.166        0.293        0.108       58.032       14.549        0.063      338.804       11.703      860.132
05/31/2014  03:13:00      -55.161      -21.129       -9.007       33.516       27.791       23.056     1123.349      772.321      531.585        0.300        0.121       59.069       11.882        0.040      338.838       11.762      860.136
05/31/2014  03:14:00      -57.833      -15.316        1.361       36.810       23.942       20.681     1354.990      573.217      427.709        0.297        0.118       59.827       15.960        0.071      338.437       11.089      860.156
05/31/2014  03:15:00        0.718      -29.340       -6.930       22.880       19.235       14.867      523.509      369.969      221.027        0.101        0.056       29.349       10.298        0.123      338.547       11.272      860.154
05/31/2014  03:16:00       -7.735      -11.079        4.673       15.639       18.836       13.618      244.564      354.798      185.460        0.049        0.039       13.512       11.430        0.716      338.474       11.149      860.143
05/31/2014  03:17:00      -40.087      -18.237       -3.001       40.803       18.692       12.344     1664.854      349.397      152.369        0.206        0.108       44.040       12.449        0.080      338.486       11.172      860.135
05/31/2014  03:18:00      -85.545      -43.876       -8.949       15.524       13.581        8.780      241.006      184.449       77.090        0.491        0.025       96.141        4.552        0.002      338.475       11.153      860.117
05/31/2014  03:19:00      -93.526      -33.299      -13.332       29.207       20.147       16.330      853.071      405.902      266.685        0.578        0.076       99.277       13.741        0.019      338.379       10.990      860.119
05/31/2014  03:20:00      -79.311      -65.064       -0.011       39.175       28.478       21.634     1534.719      810.979      468.028        0.667        0.141      102.585       19.575        0.036      338.294       10.848      860.122
05/31/2014  03:21:00      -72.904      -50.762      -10.133       37.706       26.997       17.741     1421.730      728.819      314.758        0.523        0.123       88.836       17.837        0.040      338.192       10.678      860.122
05/31/2014  03:22:00      -61.434      -45.974       -4.815       30.154       24.375       18.640      909.275      594.138      347.468        0.388        0.093       76.732       11.847        0.024      338.136       10.582      860.130
05/31/2014  03:23:00      -43.148      -43.804       -3.676       32.571       27.094       14.755     1060.887      734.069      217.697        0.290        0.101       61.486       16.011        0.068      338.099       10.520      860.128
05/31/2014  03:24:00      -90.181      -22.014       -6.490       36.222       22.399       15.386     1312.013      501.729      236.730        0.535        0.103       92.829       14.728        0.025      338.181       10.660      860.119
05/31/2014  03:25:00     -102.486      -59.199      -10.716       25.307       24.361       15.050      640.426      593.461      226.506        0.779        0.073      118.354       12.524        0.011      338.339       10.923      860.122
05/31/2014  03:26:00     -108.330      -65.551       -8.214       19.488       20.723       13.925      379.768      429.428      193.899        0.855        0.050      126.619       10.408        0.007      338.313       10.879      860.131
05/31/2014  03:27:00     -102.527      -47.472       -6.189       20.391       21.880       12.071      415.790      478.756      145.702        0.692        0.052      112.984       10.328        0.008      338.309       10.872      860.130
05/31/2014  03:28:00      -96.822      -33.034      -12.661       22.453       15.656       14.498      504.138      245.107      210.183        0.579        0.048      102.302       11.660        0.013      338.339       10.926      860.129
05/31/2014  03:29:00      -61.808      -17.938      -10.308       23.591       19.628        9.746      556.541      385.273       94.975        0.264        0.052       64.358       10.658        0.027      338.543       11.265      860.111
05/31/2014  03:30:00      -60.902       28.336      -13.850       15.829       19.935       12.273      250.561      397.421      150.626        0.275        0.040       67.171       11.733        0.031      338.935       11.925      860.075
05/31/2014  03:31:00      -50.981        0.544      -11.265       23.259       23.965       14.779      541.004      574.330      218.417        0.203        0.067       50.984       13.788        0.073      338.885       11.840      860.068
05/31/2014  03:32:00      -79.730      -35.516      -16.429       17.661       14.779        9.414      311.928      218.429       88.621        0.425        0.031       87.282        6.943        0.006      338.405       11.034      860.079
05/31/2014  03:33:00      -75.213      -58.639      -14.535       24.986       27.334       19.206      624.281      747.170      368.860        0.552        0.087       95.370       16.481        0.030      338.263       10.796      860.091
05/31/2014  03:34:00     -129.812      -53.941      -16.230       35.855       22.576       17.038     1285.557      509.677      290.294        1.105        0.104      140.574       14.614        0.011      338.168       10.636      860.112
05/31/2014  03:35:00     -108.492      -42.950      -15.024       22.117       24.070       15.649      489.140      579.383      244.883        0.758        0.066      116.684        9.142        0.006      338.147       10.600      860.113
05/31/2014  03:36:00     -105.226      -32.926       -8.915       44.714       36.821       18.147     1999.342     1355.782      329.319        0.796        0.184      110.257       22.517        0.042      338.109       10.536      860.100
05/31/2014  03:37:00     -105.449      -12.763       -0.366       55.300       40.344       32.907     3058.098     1627.641     1082.840        0.852        0.288      106.219       34.036        0.103      338.370       10.974      860.092
05/31/2014  03:38:00     -120.757      -23.456       -9.709       52.149       36.693       24.991     2719.492     1346.347      624.574        0.996        0.235      123.014       22.994        0.035      338.306       10.869      860.091
05/31/2014  03:39:00     -100.901      -18.372       -7.698       49.029       29.259       23.299     2403.856      856.077      542.847        0.719        0.190      102.560       25.553        0.062      338.311       10.876      860.087
05/31/2014  03:40:00     -107.925      -19.896       -7.210       37.461       33.171       20.907     1403.352     1100.325      437.113        0.752        0.147      109.744       14.545        0.018      338.239       10.754      860.079
05/31/2014  03:41:00     -126.623      -10.885      -18.249       34.226       30.413       17.232     1171.419      924.922      296.952        0.944        0.120      127.090       13.829        0.012      338.225       10.732      860.088
05/31/2014  03:42:00      -93.584      -15.842      -13.677       33.365       27.437       19.247     1113.207      752.804      370.466        0.572        0.112       94.915       12.258        0.017      338.245       10.766      860.072
05/31/2014  03:43:00      -66.836      -17.684       -9.340       28.872       26.778       17.328      833.608      717.052      300.257        0.336        0.093       69.136       12.758        0.034      338.369       10.974      860.051
05/31/2014  03:44:00      -45.986      -17.304        3.744       54.703       31.944       20.404     2992.400     1020.442      416.305        0.343        0.221       49.134       21.576        0.193      338.240       10.756      860.046
05/31/2014  03:45:00      -87.491      -30.144      -16.472       21.860       23.786       15.614      477.877      565.755      243.805        0.506        0.064       92.538       12.101        0.017      338.276       10.818      860.048
05/31/2014  03:46:00      -27.410      -40.361       -1.902       39.988       18.404       20.574     1599.033      338.701      423.277        0.237        0.118       48.789       23.171        0.226      338.153       10.611      860.041
05/31/2014  03:47:00      -81.394      -36.672      -15.406       36.152       25.082       20.914     1306.949      629.100      437.388        0.529        0.119       89.274       20.197        0.051      338.047       10.434      860.033
05/31/2014  03:48:00      -74.563      -56.157        0.151       38.223       32.223       17.294     1461.009     1038.310      299.081        0.576        0.140       93.345       19.254        0.043      338.034       10.412      860.015
05/31/2014  03:49:00      -84.142      -58.407       -1.658       41.790       30.766       20.111     1746.378      946.566      404.457        0.680        0.155      102.427       21.540        0.044      337.989       10.337      860.011
05/31/2014  03:50:00     -153.498      -85.772      -11.471       30.898       35.012       23.154      954.694     1225.863      536.111        1.688        0.136      175.837       16.586        0.009      337.968       10.300      860.013
05/31/2014  03:51:00     -182.744      -61.544       -5.807       29.138       36.976       24.795      849.008     1367.192      614.800        2.002        0.142      192.829       18.146        0.009      337.997       10.349      860.012
05/31/2014  03:52:00     -156.362      -47.299        3.912       51.284       37.262       23.985     2630.004     1388.463      575.300        1.565        0.230      163.359       28.616        0.031      338.065       10.464      860.020
05/31/2014  03:53:00     -100.634     -108.644       -0.395       42.843       36.440       25.432     1835.531     1327.901      646.808        1.287        0.191      148.090       25.490        0.030      338.069       10.470      860.025
05/31/2014  03:54:00     -100.179      -60.469        5.410       39.276       29.818       25.680     1542.598      889.088      659.463        0.841        0.155      117.014       21.344        0.033      338.030       10.404      860.035
05/31/2014  03:55:00      -93.235      -54.599       -1.069       41.204       28.250       21.325     1697.795      798.061      454.756        0.731        0.148      108.045       20.983        0.038      337.981       10.323      860.025
05/31/2014  03:56:00      -79.433      -47.156       -7.399       29.297       23.238       17.307      858.320      539.990      299.518        0.514        0.085       92.376       15.865        0.029      337.966       10.298      860.007
05/31/2014  03:57:00      -91.711      -61.614       -7.160       24.340       16.275       15.461      592.459      264.863      239.039        0.668        0.055      110.486       15.254        0.019      337.969       10.302      860.005
05/31/2014  03:58:00     -138.843      -64.147       -8.436       35.711       21.814       13.521     1275.294      475.840      182.824        1.270        0.097      152.945        5.534        0.001      337.927       10.232      860.005
05/31/2014  03:59:00     -146.984      -70.633      -13.557       31.208       20.568       18.716      973.931      423.046      350.271        1.426        0.087      163.075        7.090        0.002      337.885       10.161      859.996
05/31/2014  04:00:00     -137.509      -41.111       -6.685       23.530       30.764       13.596      553.648      946.397      184.857        1.116        0.084      143.523       10.208        0.005      337.889       10.168      859.978
05/31/2014  04:01:00     -146.248      -39.701       -5.956       24.300       17.332       17.218      590.472      300.386      296.464        1.209        0.059      151.541       12.587        0.007      337.913       10.208      859.962
05/31/2014  04:02:00     -151.755      -61.706        0.541       34.018       30.857       21.983     1157.225      952.132      483.261        1.471        0.130      163.820       21.743        0.018      337.879       10.151      859.958
05/31/2014  04:03:00     -169.045      -69.149       -1.002       43.253       26.223       23.512     1870.844      687.642      552.811        1.823        0.156      182.641       18.564        0.010      337.819       10.050      859.947
05/31/2014  04:04:00     -172.871      -72.502       -7.927       38.431       38.311       23.523     1476.910     1467.768      553.322        1.935        0.175      187.459       19.343        0.011      337.803       10.024      859.952
05/31/2014  04:05:00     -146.027      -59.682       -2.745       41.549       37.504       25.319     1726.327     1406.550      641.065        1.433        0.189      157.753       22.478        0.020      337.797       10.014      859.968
05/31/2014  04:06:00     -150.472      -27.213      -12.943       33.572       31.779       22.554     1127.071     1009.927      508.672        1.310        0.132      152.913       21.186        0.019      337.866       10.130      859.972
05/31/2014  04:07:00     -105.552       -7.362       -5.756       41.260       28.058       24.363     1702.373      787.272      593.571        0.716        0.154      105.808       22.806        0.046      337.795       10.011      859.964
05/31/2014  04:08:00     -141.325       26.879       -6.201       41.363       35.256       24.287     1710.857     1242.964      589.882        1.214        0.177      143.859       21.072        0.021      337.929       10.236      859.960
05/31/2014  04:09:00     -182.126       17.278      -21.827       33.920       38.036       21.448     1150.539     1446.732      459.998        1.850        0.153      182.944       17.937        0.010      337.929       10.235      859.952
05/31/2014  04:10:00     -153.365      -36.485      -13.853       38.061       43.363       21.987     1448.630     1880.312      483.414        1.443        0.191      157.645       19.122        0.015      337.858       10.115      859.949
05/31/2014  04:11:00     -146.992      -26.133       -4.299       55.595       49.324       24.339     3090.859     2432.888      592.384        1.421        0.306      149.297       24.184        0.026      337.831       10.070      859.958
05/31/2014  04:12:00     -153.855      -18.390      -10.636       46.294       29.319       28.063     2143.167      859.612      787.548        1.396        0.190      154.950       28.247        0.033      337.787        9.997      859.961
05/31/2014  04:13:00     -157.404        1.523      -10.375       33.620       30.913       21.788     1130.317      955.614      474.707        1.372        0.128      157.412       17.850        0.013      337.809       10.034      859.964
05/31/2014  04:14:00     -201.950        3.717      -18.585       29.272       23.325       16.576      856.833      544.065      274.762        2.141        0.084      201.984       11.432        0.003      338.119       10.554      859.966
05/31/2014  04:15:00     -209.544       13.204      -24.693       28.333       35.590       20.143      802.732     1266.681      405.753        2.358        0.124      209.960       15.630        0.006      338.107       10.532      859.974
05/31/2014  04:16:00     -159.338      -27.336      -21.845       47.734       45.488       26.042     2278.529     2069.130      678.193        1.582        0.251      161.666       20.441        0.016      337.910       10.203      859.970
05/31/2014  04:17:00     -164.218      -10.564      -14.038       43.288       48.704       31.136     1873.870     2372.118      969.447        1.624        0.261      164.558       24.226        0.022      337.889       10.166      859.982
05/31/2014  04:18:00     -145.717       -8.425      -11.306       32.924       38.680       21.341     1083.984     1496.158      455.449        1.223        0.152      145.961       17.791        0.015      337.824       10.059      859.992
05/31/2014  04:19:00     -176.188      -32.262      -17.286       27.065       20.448       19.298      732.538      418.103      372.402        1.695        0.076      179.118       14.923        0.007      337.807       10.030      859.990
05/31/2014  04:20:00     -135.457      -38.648       -6.292       22.907       27.706       15.781      524.729      767.608      249.045        1.071        0.077      140.862       12.474        0.008      337.732        9.906      859.990
05/31/2014  04:21:00     -117.571      -29.391       -5.400       28.738       19.710       15.055      825.867      388.488      226.662        0.808        0.072      121.189       13.290        0.012      337.819       10.049      859.974
05/31/2014  04:22:00     -102.061      -19.358       -2.821       35.814       31.040       22.440     1282.635      963.508      503.544        0.677        0.137      103.881       20.942        0.041      337.702        9.854      859.963
05/31/2014  04:23:00     -124.896      -35.058       -4.360       38.642       21.208       18.188     1493.168      449.798      330.800        0.956        0.114      129.723       20.581        0.025      337.589        9.665      859.968
05/31/2014  04:24:00      -74.462       -3.482        4.604       37.018       20.563       22.012     1370.348      422.852      484.523        0.393        0.114       74.544       22.015        0.087      337.560        9.617      859.961
05/31/2014  04:25:00      -59.102       -3.602        2.655       44.493       27.403       19.791     1979.631      750.898      391.675        0.332        0.156       59.212       20.438        0.119      337.568        9.630      859.942
05/31/2014  04:26:00      -86.305       -3.006       -5.638       25.393       29.178       17.659      644.802      851.331      311.844        0.465        0.090       86.357        1.775        0.000      337.692        9.837      859.930
05/31/2014  04:27:00      -76.196      -33.943       -2.007       26.109       26.536       17.814      681.679      704.177      317.345        0.433        0.085       83.415       15.859        0.036      337.647        9.763      859.915
05/31/2014  04:28:00      -93.273      -16.974       -2.168       42.659       33.592       24.089     1819.770     1128.434      580.291        0.626        0.176       94.805       23.530        0.062      337.593        9.672      859.912
05/31/2014  04:29:00     -161.801      -38.718      -15.042       26.743       39.332       24.714      715.186     1546.993      610.798        1.539        0.144      166.369       15.859        0.009      337.542        9.586      859.911
05/31/2014  04:30:00     -140.788      -32.835       -3.929       49.114       38.427       27.417     2412.164     1476.650      751.699        1.278        0.232      144.566       28.930        0.040      337.414        9.373      859.905
05/31/2014  04:31:00     -117.509      -48.217       -8.381       35.904       34.068       22.947     1289.108     1160.596      526.557        0.959        0.149      127.017       12.486        0.010      337.395        9.339      859.908
05/31/2014  04:32:00     -148.802        4.613      -13.976       42.416       33.928       25.844     1799.138     1151.111      667.893        1.299        0.181      148.874       20.798        0.020      337.361        9.285      859.894
05/31/2014  04:33:00      -96.949       12.111       -6.644       35.779       42.527       23.810     1280.109     1808.577      566.910        0.662        0.183       97.703       17.097        0.031      337.342        9.251      859.896
05/31/2014  04:34:00     -122.103      -25.410       -0.661       68.162       36.650       30.843     4646.028     1343.216      951.295        1.125        0.347      124.719       35.486        0.081      337.244        9.087      859.892
05/31/2014  04:35:00     -153.119      -48.329       -9.174       30.501       28.521       19.751      930.320      813.459      390.117        1.400        0.107      160.565       15.161        0.009      337.165        8.956      859.882
05/31/2014  04:36:00     -123.283      -32.313       -6.412       37.495       30.052       23.877     1405.912      903.127      570.114        0.958        0.144      127.447       22.094        0.030      337.201        9.015      859.887
05/31/2014  04:37:00     -140.274      -40.813       -5.362       47.225       24.265       21.708     2230.205      588.808      471.237        1.233        0.165      146.091       24.468        0.028      337.248        9.094      859.874
05/31/2014  04:38:00     -140.161      -21.058       -7.481       38.255       34.884       24.272     1463.421     1216.867      589.154        1.171        0.163      141.734       25.445        0.032      337.241        9.082      859.875
05/31/2014  04:39:00     -114.256      -13.500       -2.894       56.831       43.740       35.164     3229.730     1913.174     1236.485        0.981        0.319      115.050       31.976        0.077      337.124        8.885      859.878
05/31/2014  04:40:00     -117.623        9.308       -7.280       58.690       32.794       29.466     3444.465     1075.468      868.221        0.968        0.269      117.990       30.961        0.069      337.124        8.885      859.877
05/31/2014  04:41:00     -104.815        3.095       -9.067       43.028       37.263       23.305     1851.428     1388.550      543.137        0.743        0.189      104.861       24.889        0.056      337.222        9.050      859.883
05/31/2014  04:42:00      -86.677      -12.370       -6.728       26.646       26.858       18.906      709.990      721.369      357.442        0.475        0.089       87.555       10.581        0.015      337.268        9.128      859.883
05/31/2014  04:43:00      -57.872      -29.383       -2.529       34.970       25.968       16.966     1222.916      674.312      287.856        0.320        0.109       64.904       13.886        0.046      337.292        9.168      859.880
05/31/2014  04:44:00      -62.585      -12.688       -4.266       35.914       26.790       18.627     1289.805      717.722      346.954        0.322        0.118       63.858       20.077        0.099      337.254        9.105      859.885
05/31/2014  04:45:00      -75.363      -22.568       -4.694       25.073       23.207       14.927      628.644      538.572      222.807        0.380        0.070       78.669       11.304        0.021      337.312        9.202      859.889
05/31/2014  04:46:00      -89.609      -16.924      -13.760       24.344       28.782       14.713      592.655      828.410      216.465        0.507        0.082       91.194        9.817        0.012      337.305        9.189      859.905
05/31/2014  04:47:00     -100.021      -12.398      -12.667       29.312       27.501       17.579      859.169      756.328      309.011        0.612        0.096      100.787       12.591        0.016      337.107        8.859      859.917
05/31/2014  04:48:00      -66.521       -6.096      -14.983       26.252       29.568       18.097      689.145      874.269      327.501        0.329        0.095       66.800       15.456        0.054      337.109        8.861      859.918
05/31/2014  04:49:00      -69.457      -11.285       -4.614       31.740       17.577       18.055     1007.420      308.961      325.998        0.331        0.082       70.368       12.991        0.034      337.152        8.932      859.924
05/31/2014  04:50:00      -70.211      -21.762       -2.495       25.393       18.586       12.136      644.828      345.445      147.293        0.327        0.057       73.506       10.170        0.019      337.228        9.061      859.921
05/31/2014  04:51:00      -89.783      -46.322      -15.103       22.629       26.149       14.928      512.062      683.795      222.839        0.593        0.071      101.028        8.255        0.007      337.315        9.206      859.927
05/31/2014  04:52:00      -71.493      -49.461        0.102       40.314       24.305       19.812     1625.204      590.757      392.512        0.508        0.130       86.935       15.642        0.032      337.161        8.948      859.933
05/31/2014  04:53:00      -82.980      -80.839        3.175       45.633       34.348       29.759     2082.402     1179.817      885.585        0.879        0.207      115.848       25.684        0.049      337.191        8.999      859.943
05/31/2014  04:54:00      -72.694      -66.851       -1.935       42.345       32.303       20.633     1793.136     1043.513      425.706        0.651        0.163       98.759       18.671        0.036      337.284        9.155      859.948
05/31/2014  04:55:00      -93.758      -72.545       -7.402       46.784       25.360       22.178     2188.781      643.120      491.844        0.872        0.166      118.547       12.616        0.011      337.326        9.224      859.923
05/31/2014  04:56:00     -113.868      -69.911       -7.571       26.783       17.118       15.422      717.321      293.040      237.831        0.958        0.062      133.617       11.362        0.007      337.421        9.383      859.904
05/31/2014  04:57:00     -105.729      -61.165       -7.626       18.115       19.126       14.046      328.161      365.787      197.303        0.793        0.045      122.147       11.294        0.009      337.313        9.204      859.890
05/31/2014  04:58:00      -76.463      -53.425        2.954       39.169       23.635       16.247     1534.197      558.599      263.959        0.553        0.118       93.278       18.548        0.040      337.300        9.180      859.880
05/31/2014  04:59:00      -45.735      -31.152       10.426       40.148       29.539       20.130     1611.864      872.553      405.235        0.303        0.144       55.336       18.275        0.109      337.280        9.147      859.890
05/31/2014  05:00:00      -65.297      -52.645       -2.616       35.257       26.165       20.818     1243.065      684.626      433.381        0.470        0.118       83.876       18.481        0.049      337.262        9.117      859.890
05/31/2014  05:01:00     -107.031      -62.692        0.102       36.310       28.895       21.112     1318.392      834.901      445.704        0.899        0.130      124.040       19.699        0.025      337.214        9.039      859.885
05/31/2014  05:02:00      -99.221      -51.620        0.787       30.986       27.910       22.275      960.120      778.995      496.161        0.737        0.112      111.846       18.858        0.028      337.221        9.048      859.879
05/31/2014  05:03:00      -51.661      -25.654        7.248       49.512       34.614       21.168     2451.411     1198.120      448.081        0.374        0.205       57.680       25.690        0.198      337.226        9.059      859.872
05/31/2014  05:04:00      -44.144      -26.642        8.623       43.748       32.944       19.375     1913.913     1085.280      375.408        0.305        0.169       51.561       21.382        0.172      337.219        9.046      859.870
05/31/2014  05:05:00      -32.531      -48.756        9.062       50.182       42.390       24.314     2518.261     1796.871      591.168        0.421        0.245       58.612       25.073        0.183      337.322        9.217      859.888
05/31/2014  05:06:00     -109.850      -61.222        5.263       44.666       40.382       28.208     1995.090     1630.689      795.711        1.013        0.221      125.759       24.521        0.038      337.203        9.019      859.914
05/31/2014  05:07:00      -95.157      -55.591        7.631       56.999       41.067       21.259     3248.881     1686.466      451.948        0.879        0.269      110.206       21.562        0.038      337.203        9.020      859.920
05/31/2014  05:08:00     -119.957      -85.050       -3.590       31.980       32.345       20.022     1022.715     1046.186      400.900        1.205        0.123      147.048       17.761        0.015      337.131        8.898      859.932
05/31/2014  05:09:00     -115.203      -43.694       -5.749       25.643       37.977       17.426      657.562     1442.268      303.649        0.881        0.120      123.210        8.632        0.005      337.169        8.961      859.928
05/31/2014  05:10:00      -93.217      -14.127       -3.292       39.848       32.350       19.118     1587.844     1046.513      365.504        0.595        0.150       94.281       20.007        0.045      337.076        8.806      859.935
05/31/2014  05:11:00     -102.343      -10.687       -6.796       46.706       27.472       20.637     2181.476      754.690      425.906        0.700        0.168      102.900       24.137        0.055      337.050        8.761      859.950
05/31/2014  05:12:00      -77.493      -44.001       -0.902       47.764       32.737       18.831     2281.398     1071.684      354.596        0.582        0.185       89.113       23.818        0.071      337.119        8.877      859.949
05/31/2014  05:13:00      -97.866      -82.070        2.554       56.655       41.893       29.725     3209.844     1755.044      883.556        1.108        0.292      127.723       28.210        0.049      337.226        9.056      859.955
05/31/2014  05:14:00     -104.901      -71.340        6.867       60.343       55.237       33.196     3641.232     3051.151     1101.962        1.197        0.390      126.861       32.447        0.065      337.292        9.168      859.959
05/31/2014  05:15:00     -141.028      -97.412        1.636       79.427       53.357       39.095     6308.639     2847.019     1528.407        2.003        0.534      171.400       45.963        0.072      337.328        9.227      859.951
05/31/2014  05:16:00     -135.414      -96.621        3.423       65.142       50.793       34.662     4243.433     2579.885     1201.474        1.785        0.401      166.350       38.971        0.055      337.406        9.357      859.955
05/31/2014  05:17:00     -149.525     -120.521       -2.325       55.166       46.352       31.316     3043.338     2148.542      980.691        2.153        0.309      192.050       26.837        0.020      337.425        9.389      859.968
05/31/2014  05:18:00     -146.600     -102.839        6.286       59.983       49.867       31.916     3597.999     2486.749     1018.635        1.960        0.355      179.074       32.188        0.032      337.457        9.442      859.966
05/31/2014  05:19:00     -136.830     -125.902       -0.018       73.121       69.018       42.051     5346.705     4763.470     1768.271        2.322        0.594      185.940       36.643        0.039      337.416        9.372      859.962
05/31/2014  05:20:00     -159.310      -95.260        9.462       73.082       53.145       33.166     5340.966     2824.400     1099.962        2.190        0.463      185.618       31.790        0.029      337.436        9.408      859.954
05/31/2014  05:21:00     -146.989      -97.830        6.875       78.806       63.362       34.601     6210.376     4014.790     1197.221        2.132        0.571      176.569       26.817        0.023      337.425        9.388      859.947
05/31/2014  05:22:00     -122.106      -74.064        8.387       60.171       46.335       26.621     3620.553     2146.923      708.698        1.347        0.324      142.812       32.477        0.052      337.442        9.418      859.941
05/31/2014  05:23:00     -162.167     -132.053      -16.859       47.896       53.849       27.498     2293.993     2899.699      756.133        2.498        0.297      209.132       15.219        0.005      337.508        9.527      859.931
05/31/2014  05:24:00     -155.286      -97.006       -3.250       64.664       58.658       40.719     4181.392     3440.786     1658.063        2.141        0.464      183.095       43.979        0.058      337.486        9.491      859.937
05/31/2014  05:25:00     -144.349      -46.357       -2.186       33.261       32.918       20.896     1106.285     1083.626      436.633        1.281        0.131      151.610       15.140        0.010      337.429        9.396      859.931
05/31/2014  05:26:00     -129.669      -66.900       -1.719       47.572       37.146       25.018     2263.088     1379.847      625.907        1.278        0.213      145.910       25.623        0.031      337.504        9.522      859.929
05/31/2014  05:27:00     -127.068      -55.770       -0.336       48.171       30.176       21.558     2320.446      910.604      464.741        1.148        0.185      138.769       24.167        0.030      337.469        9.463      859.924
05/31/2014  05:28:00     -103.655      -58.600       -5.090       46.970       39.271       25.462     2206.186     1542.218      648.291        0.930        0.220      119.073       23.893        0.040      337.567        9.629      859.936
05/31/2014  05:29:00     -100.518     -120.133       -1.070       58.357       72.002       29.635     3405.587     5184.258      878.237        1.700        0.473      156.639       32.687        0.044      337.460        9.448      859.952
05/31/2014  05:30:00      -71.948      -74.940       -9.042       61.623       51.008       27.509     3797.333     2601.796      756.734        0.901        0.358      103.886       30.535        0.086      337.517        9.543      859.962
05/31/2014  05:31:00      -93.385      -70.873       -6.241       37.578       36.880       17.322     1412.082     1360.146      300.069        0.843        0.154      117.234        3.843        0.001      337.594        9.673      859.955
05/31/2014  05:32:00     -101.932      -76.821       -2.192       48.923       28.295       23.040     2393.424      800.607      530.842        1.001        0.186      127.638       22.699        0.032      337.636        9.744      859.961
05/31/2014  05:33:00      -90.822      -67.506       -1.214       45.811       28.722       22.243     2098.647      824.976      494.735        0.811        0.171      113.162       22.487        0.039      337.564        9.622      859.987
05/31/2014  05:34:00      -68.440      -58.067        1.528       35.204       30.724       17.276     1239.300      943.934      298.444        0.527        0.124       89.754       16.870        0.035      337.607        9.694      859.998
05/31/2014  05:35:00      -80.227      -49.954       -6.355       23.457       17.706       14.406      550.233      313.518      207.539        0.502        0.054       94.508       11.542        0.015      337.625        9.726      860.011
05/31/2014  05:36:00      -37.471      -14.622       -4.093       13.977       20.658       10.063      195.353      426.742      101.260        0.118        0.036       40.223        7.023        0.030      337.553        9.604      860.027
05/31/2014  05:37:00        8.570       29.206        9.915       19.133       27.232       17.810      366.059      741.588      317.202        0.122        0.071       30.437        9.801        0.104      337.443        9.421      860.039
05/31/2014  05:38:00       34.695       56.290      -12.984       16.902       31.172       12.312      285.681      971.708      151.595        0.297        0.070       66.124       13.856        0.044      337.067        8.789      860.044
05/31/2014  05:39:00       21.371       41.801       -6.680       14.171       10.227        6.709      200.826      104.590       45.015        0.130        0.018       46.947        4.918        0.011      337.268        9.129      860.051
05/31/2014  05:40:00       13.868       21.553      -10.690       11.506        9.463        5.994      132.392       89.556       35.933        0.051        0.013       25.629        6.328        0.061      337.313        9.202      860.067
05/31/2014  05:41:00      -16.032       14.014        2.803       12.038        5.809        7.163      144.911       33.748       51.302        0.035        0.011       21.294        4.035        0.036      337.412        9.368      860.079
05/31/2014  05:42:00      -59.344       -4.423       -7.693       10.751       16.635        7.725      115.582      276.716       59.674        0.203        0.023       59.508        4.836        0.007      337.235        9.072      860.089
05/31/2014  05:43:00      -42.527      -35.648       -5.275       18.092       12.513        7.484      327.311      156.583       56.011        0.182        0.027       55.492        4.957        0.008      337.338        9.245      860.095
05/31/2014  05:44:00      -26.348      -12.879       -1.441        8.034       12.491        4.598       64.546      156.034       21.139        0.055        0.012       29.327        2.499        0.007      337.415        9.370      860.101
05/31/2014  05:45:00       20.425       24.269        9.818       18.149       16.429        8.817      329.369      269.916       77.732        0.089        0.034       31.721        5.381        0.029      337.220        9.048      860.112
05/31/2014  05:46:00       36.691       52.649       -5.469        8.850       16.090        8.383       78.324      258.890       70.272        0.228        0.020       64.173        3.207        0.002      337.137        8.908      860.122
05/31/2014  05:47:00        8.952       13.803       -3.294        7.931        5.070        5.239       62.897       25.701       27.446        0.020        0.006       16.452        3.283        0.040      337.323        9.220      860.121
05/31/2014  05:48:00       17.664       12.527       -1.167        5.299        4.923        3.375       28.076       24.239       11.391        0.027        0.003       21.655        2.901        0.018      337.423        9.383      860.121
05/31/2014  05:49:00        2.304        8.008       -4.229       10.775        7.684        5.143      116.094       59.048       26.454        0.014        0.010        8.333        4.519        0.294      337.373        9.303      860.127
05/31/2014  05:50:00      -21.906      -12.044       -8.818       11.594       16.355       10.760      134.417      267.477      115.770        0.061        0.026       24.998        5.120        0.042      337.389        9.329      860.135
05/31/2014  05:51:00       -9.562      -27.449        5.118       11.914       14.261       14.681      141.945      203.386      215.537        0.072        0.028       29.067       10.829        0.139      337.376        9.308      860.135
05/31/2014  05:52:00      -19.377      -37.233       -7.783       14.457       12.124        8.701      208.991      146.998       75.710        0.113        0.022       41.973        6.708        0.026      337.345        9.255      860.133
05/31/2014  05:53:00      -16.587      -26.221       -1.744       12.792       12.445        9.523      163.625      154.874       90.685        0.069        0.020       31.027        2.944        0.009      337.402        9.352      860.134
05/31/2014  05:54:00       -5.055        5.715        2.908        9.836       12.218        8.915       96.744      149.282       79.470        0.020        0.016        7.630        4.586        0.361      337.544        9.591      860.131
05/31/2014  05:55:00        0.728        5.777        4.754        5.006        5.843        4.250       25.059       34.137       18.060        0.007        0.004        5.822        3.449        0.351      337.446        9.424      860.128
05/31/2014  05:56:00       -6.540       16.257        4.155       10.872        9.888        6.349      118.193       97.776       40.315        0.029        0.013       17.523        4.189        0.057      337.550        9.599      860.129
05/31/2014  05:57:00      -35.728      -10.594       -5.943        9.141       20.735        7.219       83.559      429.933       52.114        0.099        0.028       37.265        8.883        0.057      337.681        9.820      860.138
05/31/2014  05:58:00      -64.671      -27.589      -10.278       11.412       13.669        7.348      130.230      186.846       53.995        0.271        0.019       70.310        3.820        0.003      337.357        9.276      860.147
05/31/2014  05:59:00      -49.054      -25.987       -0.689       16.021       10.357        7.730      256.657      107.276       59.751        0.175        0.021       55.512        4.422        0.006      337.309        9.195      860.169
05/31/2014  06:00:00      -15.500      -23.925        9.227       31.998       15.583       13.801     1023.853      242.839      190.470        0.118        0.073       28.507       16.280        0.326      337.273        9.136      860.188
05/31/2014  06:01:00        1.782       -5.608       10.411       17.229        8.979       10.864      296.849       80.630      118.017        0.032        0.025        5.884       10.768        3.349      337.318        9.210      860.212
05/31/2014  06:02:00      -29.089       -5.946       -1.624       17.833       16.697       13.818      318.017      278.775      190.929        0.084        0.039       29.691       13.445        0.205      337.320        9.215      860.223
05/31/2014  06:03:00      -12.841        5.652        8.737       14.246       14.774        9.619      202.935      218.281       92.533        0.039        0.026       14.030        7.515        0.287      337.397        9.344      860.228
05/31/2014  06:04:00       -8.875       -0.551        9.363        8.491        9.795        8.715       72.104       95.940       75.949        0.021        0.012        8.892        4.101        0.213      337.506        9.525      860.237
05/31/2014  06:05:00      -18.616      -16.322        1.817       20.404       11.465       10.494      416.342      131.442      110.121        0.064        0.033       24.758       11.921        0.232      337.436        9.409      860.239
05/31/2014  06:06:00      -54.431      -38.154       -0.218       31.095       21.393       13.602      966.905      457.659      185.024        0.301        0.080       66.472       14.291        0.046      337.272        9.135      860.230
05/31/2014  06:07:00      -66.827      -44.892        0.285       37.346       19.290       18.239     1394.757      372.091      332.660        0.429        0.105       80.506       16.900        0.044      337.291        9.164      860.220
05/31/2014  06:08:00      -67.684      -39.913       -4.767       20.140       18.847       12.831      405.612      355.201      164.629        0.356        0.046       78.576       11.541        0.022      337.356        9.274      860.213
05/31/2014  06:09:00      -54.722      -27.437       -2.242       22.852       18.272       11.529      522.211      333.862      132.922        0.237        0.049       61.215       11.104        0.033      337.314        9.203      860.195
05/31/2014  06:10:00      -76.314      -32.150       -2.906       17.375       16.899       10.516      301.903      285.585      110.588        0.378        0.035       82.809        5.513        0.004      337.344        9.254      860.198
05/31/2014  06:11:00      -23.859      -22.382        6.819       35.212       21.257       14.517     1239.891      451.855      210.752        0.151        0.095       32.714       17.573        0.289      337.365        9.291      860.193
05/31/2014  06:12:00      -33.205      -35.969       -3.073       32.999       22.646       13.368     1088.961      512.852      178.695        0.209        0.089       48.953       15.943        0.106      337.407        9.359      860.195
05/31/2014  06:13:00      -16.197      -45.257      -10.661       19.997       17.667       16.943      399.898      312.109      287.051        0.171        0.050       48.069        9.896        0.042      337.451        9.435      860.203
05/31/2014  06:14:00       -6.455       -7.936       22.568        9.194       36.154       21.470       84.532     1307.138      460.965        0.123        0.093       10.230       24.417        5.697      337.490        9.498      860.191
05/31/2014  06:15:00       -3.262       14.879       31.215       14.029       13.227        7.951      196.820      174.948       63.217        0.082        0.022       15.232        5.404        0.126      337.475        9.475      860.208
05/31/2014  06:16:00       14.069       33.925       20.681       12.953       14.696        8.416      167.788      215.978       70.833        0.112        0.023       36.727        5.264        0.021      337.387        9.327      860.218
05/31/2014  06:17:00        2.205       32.825        7.841       17.747       12.999       11.902      314.953      168.970      141.649        0.088        0.031       32.899       10.125        0.095      337.343        9.253      860.241
05/31/2014  06:18:00       -9.085       28.160        6.943       12.391       10.798       14.013      153.530      116.599      196.354        0.070        0.023       29.589        7.827        0.070      337.365        9.289      860.258
05/31/2014  06:19:00       -4.852       13.842        2.147        8.388       11.166       13.348       70.358      124.672      178.178        0.030        0.019       14.668        6.704        0.209      337.570        9.632      860.264
05/31/2014  06:20:00      -15.379        5.255        3.178        8.226       10.874       11.727       67.666      118.244      137.530        0.030        0.016       16.252        7.153        0.194      337.440        9.414      860.273
05/31/2014  06:21:00      -18.777        5.024        4.441       13.009       16.677       10.606      169.243      278.117      112.488        0.048        0.028       19.438        3.640        0.035      337.420        9.383      860.266
05/31/2014  06:22:00      -37.509      -14.240       -0.739       14.830       11.049       10.802      219.928      122.077      116.684        0.103        0.023       40.121        7.086        0.031      337.291        9.166      860.270
05/31/2014  06:23:00      -12.400       -9.277       -1.130       14.276       14.193       11.335      203.793      201.449      128.472        0.039        0.027       15.486        8.363        0.292      337.417        9.376      860.271
05/31/2014  06:24:00      -30.488      -27.144        7.238       39.757       29.669       16.943     1580.585      880.255      287.053        0.223        0.137       40.820       17.167        0.177      337.277        9.143      860.273
05/31/2014  06:25:00     -108.790      -98.536       -5.140       44.922       36.937       30.203     2017.973     1364.339      912.236        1.293        0.215      146.781       25.281        0.030      337.074        8.802      860.282
05/31/2014  06:26:00     -115.256     -110.792       -5.707       40.480       34.762       22.542     1638.646     1208.382      508.136        1.447        0.168      159.871       19.851        0.015      337.051        8.764      860.278
05/31/2014  06:27:00     -119.589      -89.577       -3.654       32.612       28.360       24.236     1063.554      804.303      587.377        1.240        0.123      149.417       22.178        0.022      337.097        8.840      860.291
05/31/2014  06:28:00      -76.415      -47.575        5.272       50.339       34.838       22.844     2534.023     1213.652      521.827        0.620        0.213       90.015       20.642        0.053      337.149        8.928      860.283
05/31/2014  06:29:00      -68.268      -67.565        8.193       54.130       39.819       29.498     2930.042     1585.548      870.130        0.734        0.269       96.050       31.105        0.105      337.142        8.916      860.297
05/31/2014  06:30:00     -111.663      -69.135        3.178       55.702       38.906       26.894     3102.735     1513.707      723.263        1.130        0.267      131.333       28.496        0.047      337.067        8.790      860.302
05/31/2014  06:31:00     -120.141      -97.494       -0.666       55.111       44.962       27.967     3037.223     2021.549      782.133        1.489        0.292      154.722       29.532        0.036      337.085        8.821      860.311
05/31/2014  06:32:00      -92.851     -100.270       -2.301       50.369       43.633       25.069     2537.013     1903.871      628.438        1.187        0.253      136.658       23.143        0.029      337.107        8.856      860.305
05/31/2014  06:33:00      -95.862      -93.455       -6.533       49.798       38.437       25.460     2479.885     1477.371      648.223        1.128        0.230      133.878       28.212        0.044      337.134        8.902      860.312
05/31/2014  06:34:00     -111.526      -85.681       -9.203       32.971       33.664       19.393     1087.066     1133.279      376.075        1.123        0.130      140.639       14.427        0.011      337.155        8.939      860.313
05/31/2014  06:35:00     -111.572      -54.375        1.918       44.578       38.524       22.401     1987.201     1484.094      501.789        0.969        0.199      124.117       21.643        0.030      337.171        8.965      860.315
05/31/2014  06:36:00     -146.694      -53.148       -0.259       58.476       44.283       27.093     3419.415     1961.016      734.015        1.523        0.306      156.025       29.333        0.035      337.198        9.009      860.317
05/31/2014  06:37:00     -131.739      -58.484        2.428       73.254       58.562       34.727     5366.078     3429.560     1205.940        1.539        0.500      144.138       36.674        0.065      337.195        9.005      860.320
05/31/2014  06:38:00      -60.742      -77.012        4.241       62.023       59.214       40.440     3846.875     3506.309     1635.380        0.931        0.449       98.084       39.282        0.160      337.239        9.079      860.330
05/31/2014  06:39:00     -113.560      -86.537       -3.957       45.825       49.127       28.881     2099.974     2413.472      834.130        1.287        0.267      142.774       25.272        0.031      337.131        8.897      860.335
05/31/2014  06:40:00     -114.518      -79.202       -4.624       51.356       54.620       30.410     2637.479     2983.344      924.753        1.298        0.327      139.238       28.848        0.043      337.177        8.976      860.343
05/31/2014  06:41:00      -61.157      -31.983        8.322       35.566       39.054       23.876     1264.971     1525.211      570.077        0.410        0.168       69.015       22.616        0.107      337.242        9.084      860.335
05/31/2014  06:42:00      -54.431      -21.148       -6.491       31.451       17.221       14.384      989.191      296.562      206.890        0.247        0.075       58.395       13.861        0.056      337.364        9.288      860.326
05/31/2014  06:43:00      -30.643      -26.552        9.103       30.801       19.159       15.876      948.676      367.072      252.044        0.165        0.078       40.547        8.979        0.049      337.474        9.472      860.333
05/31/2014  06:44:00      -60.376      -54.235       -1.032       44.596       35.036       20.760     1988.801     1227.523      430.962        0.512        0.182       81.159       23.860        0.086      337.491        9.501      860.339
05/31/2014  06:45:00      -61.581      -64.374        1.084       42.714       29.295       25.514     1824.484      858.225      650.968        0.563        0.167       89.085       26.466        0.088      337.441        9.417      860.339
05/31/2014  06:46:00      -70.103      -60.273        3.390       33.374       28.194       21.963     1113.799      794.918      482.379        0.547        0.120       92.451       22.469        0.059      337.457        9.444      860.347
05/31/2014  06:47:00      -49.296      -65.693        9.767       54.580       33.681       30.040     2978.969     1134.434      902.425        0.593        0.251       82.132       33.797        0.169      337.522        9.551      860.351
05/31/2014  06:48:00      -61.231      -65.195       10.208       46.672       45.767       29.846     2178.262     2094.581      890.796        0.663        0.258       89.441       26.700        0.089      337.503        9.521      860.348
05/31/2014  06:49:00     -119.358      -97.408       -0.426       66.338       41.413       32.382     4400.733     1715.033     1048.565        1.545        0.358      154.060       39.897        0.067      337.546        9.594      860.358
05/31/2014  06:50:00     -122.612      -84.925        2.590       44.367       41.267       30.275     1968.469     1703.000      916.602        1.342        0.229      149.151       25.899        0.030      337.566        9.627      860.359
05/31/2014  06:51:00      -76.257      -84.839       -0.553       53.112       36.077       26.167     2820.935     1301.546      684.731        0.891        0.240      114.073       31.206        0.075      337.658        9.779      860.358
05/31/2014  06:52:00      -82.909     -116.833        0.533       53.669       33.765       33.838     2880.376     1140.096     1145.040        1.284        0.258      143.262       31.530        0.048      337.695        9.844      860.347
05/31/2014  06:53:00      -78.012     -161.812        1.739       46.127       59.242       31.188     2127.699     3509.593      972.677        1.944        0.330      179.636       27.238        0.023      337.507        9.525      860.339
05/31/2014  06:54:00     -105.713     -134.856       -3.708       53.123       51.806       34.326     2822.045     2683.815     1178.268        1.803        0.334      171.352       34.655        0.041      337.460        9.448      860.334
05/31/2014  06:55:00      -99.927      -56.545       11.312       62.343       61.445       28.960     3886.647     3775.437      838.686        1.090        0.425      114.816       29.591        0.066      337.572        9.636      860.318
05/31/2014  06:56:00      -69.823      -70.280        6.647       46.976       27.524       23.919     2206.729      757.598      572.115        0.670        0.177       99.068       23.433        0.056      337.672        9.804      860.318
05/31/2014  06:57:00      -92.558      -96.048       -9.405       40.936       49.592       28.861     1675.721     2459.400      832.952        1.142        0.248      133.388       19.548        0.021      337.678        9.813      860.307
05/31/2014  06:58:00     -137.904     -109.320       -7.852       51.955       44.506       29.202     2699.293     1980.806      852.751        1.828        0.277      175.978       30.378        0.030      337.695        9.843      860.309
05/31/2014  06:59:00     -147.972      -83.869        1.371       60.158       46.451       31.893     3618.955     2157.702     1017.148        1.786        0.340      170.087       31.345        0.034      337.683        9.822      860.309
05/31/2014  07:00:00      -43.239      -62.813        9.180       71.104       35.929       26.615     5055.743     1290.864      708.359        0.648        0.353       76.257       21.428        0.079      337.821       10.055      860.288
05/31/2014  07:01:00      -55.364      -33.572        6.733       43.922       36.050       23.517     1929.167     1299.599      553.059        0.401        0.189       64.747       26.332        0.165      337.849       10.102      860.289
05/31/2014  07:02:00      -49.060     -118.089        4.389       33.673       45.882       22.883     1133.883     2105.190      523.625        1.007        0.188      127.874       20.927        0.027      337.846       10.095      860.277
05/31/2014  07:03:00      -53.987      -52.997        1.106       43.615       33.612       23.634     1902.253     1129.752      558.584        0.466        0.180       75.652       21.834        0.083      337.891       10.171      860.279
05/31/2014  07:04:00     -100.670      -66.244       -6.463       57.111       26.431       29.781     3261.638      698.580      886.932        0.970        0.242      120.510       35.593        0.087      337.955       10.278      860.283
05/31/2014  07:05:00      -97.415     -106.331       -1.769       60.069       40.563       26.509     3608.239     1645.366      702.748        1.338        0.298      144.208       24.849        0.030      337.982       10.324      860.284
05/31/2014  07:06:00     -132.989     -120.013      -14.980       47.162       45.758       24.187     2224.244     2093.750      585.006        1.861        0.245      179.134       19.473        0.012      337.943       10.258      860.281
05/31/2014  07:07:00     -115.419      -88.217      -13.937       45.297       35.253       28.262     2051.791     1242.792      798.757        1.269        0.205      145.272       15.002        0.011      337.979       10.318      860.269
05/31/2014  07:08:00      -69.680      -69.822       -1.724       38.448       35.958       23.198     1478.236     1292.994      538.153        0.652        0.165       98.643       21.611        0.048      338.045       10.430      860.265
05/31/2014  07:09:00      -38.691     -133.776        0.284       33.167       35.996       18.784     1100.023     1295.719      352.823        1.107        0.137      139.258       19.175        0.019      338.100       10.523      860.264
05/31/2014  07:10:00      -51.105      -89.184        5.837       46.496       47.895       24.259     2161.912     2293.952      588.503        0.782        0.252      102.789       30.769        0.090      338.118       10.553      860.271
05/31/2014  07:11:00      -58.723     -107.138        1.534       30.725       34.702       17.740      944.002     1204.210      314.723        0.870        0.123      122.176       14.530        0.014      338.139       10.587      860.278
05/31/2014  07:12:00      -99.251      -78.765      -10.786       54.603       29.653       24.118     2981.523      879.285      581.677        1.031        0.222      126.707       23.976        0.036      338.158       10.619      860.295
05/31/2014  07:13:00      -56.433      -36.585       -1.581       41.704       34.038       21.789     1739.195     1158.606      474.760        0.395        0.169       67.254       17.875        0.071      338.239       10.755      860.303
05/31/2014  07:14:00      -48.136      -56.016        8.057       35.025       39.923       18.302     1226.735     1593.877      334.953        0.434        0.158       73.857       17.183        0.054      338.221       10.724      860.312
05/31/2014  07:15:00      -74.317      -39.985       -3.793       30.361       30.003       16.110      921.768      900.193      259.524        0.461        0.104       84.391       10.345        0.015      338.219       10.722      860.304
05/31/2014  07:16:00      -11.380      -12.509       15.534       20.811       29.262       17.661      433.104      856.236      311.911        0.106        0.080       16.911        8.541        0.255      338.642       11.431      860.301
05/31/2014  07:17:00      -18.440       -0.595       -4.644       18.291       17.278       19.996      334.546      298.545      399.832        0.070        0.052       18.449       12.417        0.453      338.660       11.463      860.293
05/31/2014  07:18:00        0.269       18.192       38.383       13.585       21.282       10.335      184.543      452.911      106.805        0.127        0.037       18.194        7.003        0.148      339.207       12.384      860.286
05/31/2014  07:19:00       -2.921       31.489       48.061       18.732       22.660       14.594      350.895      513.475      212.993        0.219        0.054       31.624       13.916        0.194      338.996       12.027      860.282
05/31/2014  07:20:00       10.652       35.820       30.514       13.988       15.896       12.432      195.672      252.699      154.550        0.147        0.030       37.371        9.800        0.069      338.578       11.325      860.286
05/31/2014  07:21:00        3.548       20.012       51.557       18.722       27.304       13.760      350.507      745.533      189.350        0.218        0.064       20.324       14.628        0.518      339.018       12.065      860.284
05/31/2014  07:22:00       23.282       10.279       32.301       24.166       28.179       23.302      584.001      794.066      542.977        0.181        0.096       25.450       10.805        0.180      338.883       11.838      860.284
05/31/2014  07:23:00       -4.907       36.910       54.500       18.219       20.855       17.712      331.945      434.941      313.700        0.272        0.054       37.235       11.658        0.098      339.211       12.390      860.286
05/31/2014  07:24:00      -11.673        7.998       31.633       13.680       15.852       16.461      187.134      251.276      270.957        0.095        0.035       14.150       10.169        0.516      339.411       12.727      860.282
05/31/2014  07:25:00      -29.288      -11.686        8.725       46.281       24.786       15.441     2141.968      614.357      238.426        0.203        0.150       31.533       13.667        0.188      338.949       11.949      860.277
05/31/2014  07:26:00      -55.005      -32.772        0.669       23.510       23.144       11.784      552.722      535.633      138.854        0.266        0.061       64.028        9.031        0.020      338.562       11.300      860.271
05/31/2014  07:27:00      -57.162      -23.273       -5.012       11.077       17.367       13.402      122.710      301.600      179.619        0.222        0.030       61.718       11.825        0.037      338.532       11.248      860.264
05/31/2014  07:28:00      -44.962       -1.162        2.578       15.905       11.647       11.006      252.965      135.653      121.129        0.127        0.025       44.977       10.247        0.052      338.706       11.541      860.254
05/31/2014  07:29:00      -17.512      -13.489        5.443       10.417       14.483       11.880      108.522      209.745      141.136        0.049        0.023       22.105        5.371        0.059      338.933       11.922      860.258
05/31/2014  07:30:00      -11.221       -5.880        7.691       10.705        9.848       12.178      114.602       96.976      148.292        0.029        0.018       12.669        9.164        0.523      339.308       12.553      860.262
05/31/2014  07:31:00       -3.962        0.618       29.117        6.852        6.822       10.910       46.945       46.538      119.021        0.054        0.011        4.010        3.505        0.764      340.066       13.831      860.272
05/31/2014  07:32:00        6.866       11.650       23.765       14.706       12.913       11.743      216.254      166.743      137.908        0.063        0.026       13.523       11.034        0.666      339.497       12.872      860.292
05/31/2014  07:33:00        6.452       22.276       30.732       17.673       27.643       13.927      312.322      764.118      193.970        0.138        0.064       23.192       10.436        0.203      339.453       12.798      860.300
05/31/2014  07:34:00       12.068      -36.602       30.859       24.710       39.906       28.523      610.560     1592.473      813.560        0.273        0.151       38.541       26.494        0.473      339.614       13.067      860.301
05/31/2014  07:35:00       16.795       -7.524       27.476       23.331       35.479       35.707      544.341     1258.731     1275.012        0.209        0.154       18.403       28.660        2.425      339.593       13.033      860.297
05/31/2014  07:36:00       -5.643       24.073       53.939       13.955       24.975       11.164      194.753      623.727      124.637        0.223        0.047       24.726        9.540        0.149      339.804       13.390      860.293
05/31/2014  07:37:00        2.620       18.085       31.899       13.198       12.677       12.805      174.176      160.718      163.968        0.093        0.025       18.274       11.014        0.363      339.459       12.807      860.296
05/31/2014  07:38:00        9.147       12.066       21.837       22.876       16.842       15.934      523.328      283.647      253.905        0.088        0.053       15.142       14.339        0.897      339.531       12.928      860.300
05/31/2014  07:39:00        3.939        7.073       18.940       11.815       11.630       16.194      139.588      135.248      262.244        0.048        0.027        8.096        7.555        0.871      339.789       13.364      860.297
05/31/2014  07:40:00        3.101       -2.610       27.183       10.331        7.148       10.940      106.723       51.098      119.675        0.052        0.014        4.053        4.059        1.003      340.149       13.973      860.296
05/31/2014  07:41:00       -7.842       -0.866       15.241       11.189        6.991        8.216      125.187       48.879       67.497        0.027        0.012        7.889        7.397        0.879      339.838       13.446      860.298
05/31/2014  07:42:00      -25.975        0.474        4.946        9.049        7.108        9.487       81.885       50.521       90.011        0.046        0.011       25.980        4.979        0.037      339.319       12.572      860.314
05/31/2014  07:43:00       -3.614        7.880       17.885       14.834        8.713       11.791      220.058       75.921      139.036        0.041        0.022        8.669        9.660        1.242      339.950       13.636      860.330
05/31/2014  07:44:00        2.073        2.128       23.978       18.591       12.086       11.143      345.633      146.082      124.160        0.060        0.031        2.971        1.096        0.136      340.164       13.995      860.339
05/31/2014  07:45:00      -29.377       18.778        5.199       14.507       13.118       14.878      210.449      172.088      221.343        0.092        0.030       34.865       10.065        0.083      339.507       12.886      860.352
05/31/2014  07:46:00      -48.150       18.250        1.804       17.486       13.017       16.307      305.764      169.450      265.923        0.170        0.037       51.492       14.399        0.078      339.417       12.736      860.366
05/31/2014  07:47:00      -36.290        0.027       -2.156       11.971       18.459        8.401      143.305      340.723       70.571        0.094        0.028       36.290        6.448        0.032      339.243       12.443      860.380
05/31/2014  07:48:00      -43.137      -23.226       -1.318       23.962       15.030        8.822      574.155      225.897       77.835        0.164        0.044       48.992        6.209        0.016      339.276       12.499      860.392
05/31/2014  07:49:00      -62.254       -4.266       -5.205       22.301       15.567       14.939      497.325      242.323      223.175        0.244        0.048       62.400       11.269        0.033      339.317       12.567      860.396
05/31/2014  07:50:00      -62.262       -4.811      -12.003       17.012        6.581        9.432      289.417       43.314       88.956        0.223        0.021       62.447        5.484        0.008      339.270       12.487      860.395
05/31/2014  07:51:00       -4.752      -10.793        3.683        9.136       10.805       10.078       83.462      116.751      101.556        0.023        0.015       11.793        6.645        0.318      339.694       13.203      860.393
05/31/2014  07:52:00      -24.492        6.028        4.101        9.434       14.276       23.385       88.999      203.796      546.869        0.075        0.042       25.223       15.643        0.385      339.748       13.295      860.379
05/31/2014  07:53:00      -25.807        6.043       21.067       12.049       12.923       15.053      145.187      167.001      226.601        0.084        0.027       26.505        9.828        0.137      339.976       13.680      860.368
05/31/2014  07:54:00       23.579      -25.349       30.822       27.186       28.644       14.732      739.091      820.488      217.029        0.196        0.089       34.620       12.908        0.139      339.924       13.593      860.364
05/31/2014  07:55:00       21.781       69.583       59.484       46.312       29.524       22.806     2144.845      871.669      520.120        0.619        0.177       72.912       21.791        0.089      339.829       13.431      860.352
05/31/2014  07:56:00       32.334       22.335       31.894       31.380       33.144       19.721      984.719     1098.515      388.906        0.252        0.124       39.298        5.796        0.022      339.913       13.573      860.349
05/31/2014  07:57:00       27.116        1.661       30.549       22.253       12.226       18.269      495.210      149.476      333.742        0.132        0.049       27.167        8.213        0.091      340.072       13.842      860.350
05/31/2014  07:58:00       -1.989        1.957       34.395        9.994       10.534       11.166       99.877      110.961      124.687        0.076        0.017        2.790        6.226        4.980      340.981       15.378      860.348
05/31/2014  07:59:00       26.139       32.408       36.585       27.719       17.362       15.258      768.322      301.455      232.794        0.219        0.065       41.636       17.882        0.184      339.740       13.282      860.346
05/31/2014  08:00:00       38.511       22.013       42.926       30.462       22.303       18.660      927.943      497.435      348.191        0.279        0.089       44.358       14.126        0.101      339.735       13.273      860.345
05/31/2014  08:01:00       62.066       21.539       30.443       40.767       21.767       23.792     1661.937      473.813      566.059        0.397        0.135       65.697       24.639        0.141      339.578       13.007      860.346
05/31/2014  08:02:00       26.914      -20.215       20.273       30.415       47.844       24.160      925.074     2289.031      583.715        0.267        0.190       33.660       18.288        0.295      339.784       13.356      860.349
05/31/2014  08:03:00       -6.594        0.174       50.437       18.584       38.865       18.357      345.378     1510.468      336.991        0.239        0.110        6.597       17.582        7.104      340.317       14.255      860.339
05/31/2014  08:04:00       24.617       42.261       49.657       37.553       34.701       25.308     1410.216     1204.154      640.477        0.406        0.163       48.908       19.411        0.158      339.959       13.649      860.336
05/31/2014  08:05:00       76.206       53.973       19.889       28.409       21.344       34.414      807.081      455.573     1184.354        0.578        0.122       93.383       18.095        0.038      339.639       13.109      860.342
05/31/2014  08:06:00       80.575       43.466       15.148       18.611       27.118       21.720      346.367      735.362      471.778        0.508        0.078       91.551       16.940        0.034      339.635       13.103      860.344
05/31/2014  08:07:00       26.308       20.632       40.144       34.470       32.767       30.379     1188.156     1073.686      922.904        0.296        0.159       33.433       26.884        0.647      340.127       13.934      860.346
05/31/2014  08:08:00      -29.727       -6.973       24.319       19.852       26.372       29.002      394.096      695.470      841.120        0.173        0.097       30.534       23.871        0.611      340.210       14.073      860.347
05/31/2014  08:09:00      -27.508      -25.663        4.564       30.840       25.955       20.770      951.106      673.670      431.376        0.175        0.103       37.621       10.522        0.078      340.011       13.740      860.356
05/31/2014  08:10:00      -10.716        1.144       25.506       33.179       37.235       21.724     1100.817     1386.446      471.937        0.186        0.148       10.777       19.680        3.335      341.033       15.465      860.352
05/31/2014  08:11:00      -42.761      -26.573       10.003       40.471       34.146       21.382     1637.905     1165.959      457.183        0.295        0.163       50.344       11.210        0.050      340.235       14.116      860.366
05/31/2014  08:12:00      -70.751      -16.393        8.506       44.738       41.832       26.268     2001.525     1749.896      690.025        0.489        0.222       72.626       24.982        0.118      339.960       13.652      860.377
05/31/2014  08:13:00      -53.565        5.935        9.210       35.010       28.217       24.105     1225.723      796.221      581.066        0.280        0.130       53.893       18.758        0.121      340.051       13.807      860.387
05/31/2014  08:14:00        5.242       14.657       29.681       48.194       28.527       20.761     2322.684      813.797      431.004        0.234        0.178       15.566       13.946        0.803      340.634       14.791      860.391
05/31/2014  08:15:00       -5.606      -44.984       -5.899       37.177       39.365       28.703     1382.122     1549.604      823.844        0.292        0.188       45.332       21.811        0.232      340.245       14.132      860.401
05/31/2014  08:16:00       18.414       22.244       41.098       29.645       56.267       36.901      878.823     3166.026     1361.698        0.396        0.270       28.877       37.084        1.649      340.567       14.676      860.412
05/31/2014  08:17:00      -34.037      -75.392       18.553       40.381       70.721       28.756     1630.611     5001.416      826.894        0.732        0.373       82.719       41.169        0.248      340.408       14.408      860.414
05/31/2014  08:18:00      -48.550     -103.066       -0.635       34.700       40.528       21.265     1204.081     1642.509      452.189        0.814        0.165      113.929       11.613        0.010      339.957       13.647      860.405
05/31/2014  08:19:00      -81.697     -111.495      -10.399       31.282       39.985       24.097      978.591     1598.805      580.676        1.119        0.158      138.223       23.073        0.028      339.945       13.626      860.395
05/31/2014  08:20:00      -26.158       -1.875       25.023       44.910       24.102       21.915     2016.900      580.906      480.257        0.220        0.154       26.225       26.170        0.996      340.646       14.811      860.390
05/31/2014  08:21:00      -20.553      -29.510        6.608       46.209       34.818       28.454     2135.305     1212.275      809.650        0.275        0.208       35.962       15.225        0.179      340.362       14.330      860.380
05/31/2014  08:22:00      -40.597       -4.569        9.331       39.608       39.026       27.745     1568.806     1523.022      769.775        0.281        0.193       40.854       21.979        0.289      340.455       14.486      860.375
05/31/2014  08:23:00        2.538       -3.609       16.936       23.228       20.909       26.276      539.540      437.172      690.449        0.099        0.083        4.412        8.587        3.788      340.903       15.246      860.381
05/31/2014  08:24:00      -11.574      -11.927       23.377       34.246       33.115       23.270     1172.806     1096.599      541.473        0.182        0.141       16.620       15.059        0.821      340.863       15.177      860.388
05/31/2014  08:25:00      -32.936      -24.084       14.855       37.138       38.981       23.422     1379.238     1519.545      548.580        0.267        0.172       40.803       21.691        0.283      340.855       15.166      860.392
05/31/2014  08:26:00        0.372       -1.043       31.929       18.752       20.321       17.572      351.654      412.943      308.759        0.105        0.054        1.107       14.423      169.616      341.381       16.054      860.397
05/31/2014  08:27:00      -71.641      -35.056        3.286       34.227       37.767       18.648     1171.503     1426.334      347.752        0.466        0.147       79.758       19.353        0.059      340.290       14.209      860.401
05/31/2014  08:28:00      -81.712      -66.412        5.895       54.292       52.965       28.239     2947.660     2805.309      797.457        0.883        0.328      105.296       26.945        0.065      340.252       14.145      860.404
05/31/2014  08:29:00      -87.188      -62.375       -2.118       57.221       44.866       27.789     3274.241     2012.952      772.233        0.878        0.303      107.202       24.384        0.052      340.226       14.101      860.406
05/31/2014  08:30:00     -103.122     -108.373       -5.439       35.555       42.461       32.889     1264.166     1802.945     1081.654        1.328        0.207      149.596       21.031        0.020      340.162       13.993      860.405
05/31/2014  08:31:00      -99.456      -63.168       -6.427       38.357       32.896       19.981     1471.252     1082.128      399.242        0.844        0.148      117.821       23.108        0.038      340.132       13.943      860.403
05/31/2014  08:32:00     -101.752      -59.906        1.960       29.480       28.362       18.368      869.077      804.410      337.381        0.798        0.101      118.077       16.251        0.019      340.192       14.043      860.395
05/31/2014  08:33:00      -40.992      -31.286       12.439       30.349       25.672       19.346      921.053      659.064      374.250        0.238        0.098       51.567       18.888        0.134      340.746       14.979      860.383
05/31/2014  08:34:00      -28.013       -7.854       13.808       24.479       13.339       17.422      599.211      177.917      303.516        0.106        0.054       29.094       17.223        0.350      341.015       15.437      860.375
05/31/2014  08:35:00      -20.468        2.540       12.231       30.201       21.309       21.511      912.113      454.077      462.720        0.120        0.091       20.625       15.197        0.543      341.005       15.418      860.373
05/31/2014  08:36:00      -16.152      -27.105       11.333       40.250       35.848       22.513     1620.033     1285.077      506.856        0.227        0.171       31.553       21.212        0.452      340.828       15.118      860.373
05/31/2014  08:37:00      -70.689      -73.349       14.008       61.497       47.407       34.075     3781.835     2247.393     1161.089        0.888        0.360      101.868       31.975        0.099      340.428       14.441      860.383
05/31/2014  08:38:00      -14.176      -14.943       14.962       30.921       34.804       25.875      956.121     1211.304      669.518        0.174        0.142       20.597       22.283        1.170      340.812       15.090      860.394
05/31/2014  08:39:00      -42.275      -12.551        6.489       25.554       15.909       15.143      652.999      253.097      229.299        0.156        0.057       44.099       14.368        0.106      340.745       14.977      860.403
05/31/2014  08:40:00      -17.761       16.489       30.141       17.767       24.883       23.294      315.668      619.173      542.613        0.149        0.074       24.235       19.094        0.621      341.201       15.749      860.403
05/31/2014  08:41:00      -45.326      -21.983       -4.920       21.387       27.977       14.442      457.398      782.739      208.571        0.201        0.072       50.376       14.216        0.080      340.671       14.853      860.409
05/31/2014  08:42:00      -22.014      -12.640        5.596       19.289       19.540       19.420      372.082      381.815      377.117        0.090        0.057       25.384       15.669        0.381      341.312       15.938      860.411
05/31/2014  08:43:00       11.210       10.214       35.071       21.180       20.053       18.901      448.583      402.138      357.266        0.133        0.060       15.166       10.871        0.514      341.578       16.389      860.407
05/31/2014  08:44:00      -17.129        6.462       30.370       19.809       24.938       21.628      392.405      621.883      467.756        0.137        0.074       18.307       19.680        1.156      341.681       16.565      860.402
05/31/2014  08:45:00      -15.807        3.264       18.304       37.157       19.676       18.554     1380.625      387.133      344.268        0.135        0.106       16.140       17.360        1.157      341.203       15.753      860.389
05/31/2014  08:46:00      -37.952       -7.201      -11.888       45.667       28.075       29.461     2085.452      788.187      867.943        0.269        0.187       38.630       11.840        0.094      340.962       15.345      860.371
05/31/2014  08:47:00      -20.152        9.168       13.120       23.824       11.568       21.571      567.569      133.814      465.323        0.091        0.058       22.140        9.233        0.174      341.260       15.849      860.359
05/31/2014  08:48:00      -45.934      -16.884        3.883       22.902       16.617       17.909      524.493      276.135      320.738        0.177        0.056       48.938       10.683        0.048      340.903       15.245      860.345
05/31/2014  08:49:00      -15.614       -0.467       19.096       14.977       12.961       17.212      224.320      167.980      296.238        0.065        0.034       15.621       10.513        0.453      342.004       17.112      860.335
05/31/2014  08:50:00       -5.982       22.142       38.207       17.412       25.016       25.548      303.193      625.800      652.706        0.178        0.079       22.936       14.279        0.388      341.843       16.839      860.327
05/31/2014  08:51:00      -41.202       -7.698       17.846       30.680       46.146       24.381      941.265     2129.449      594.444        0.287        0.183       41.915       22.789        0.296      341.056       15.506      860.329
05/31/2014  08:52:00      -91.474      -97.482        3.142       46.257       63.192       28.164     2139.685     3993.194      793.188        1.240        0.346      133.679       28.334        0.045      340.762       15.005      860.326
05/31/2014  08:53:00      -55.899      -58.512        8.746       49.521       44.257       31.000     2452.365     1958.712      960.999        0.600        0.269       80.922       27.091        0.112      340.895       15.232      860.332
05/31/2014  08:54:00      -90.817      -21.591        2.611       52.070       38.313       26.938     2711.320     1467.878      725.637        0.681        0.245       93.348       26.520        0.081      340.746       14.981      860.325
05/31/2014  08:55:00      -56.022      -21.969        9.333       35.371       32.686       21.650     1251.083     1068.348      468.708        0.325        0.139       60.176       19.031        0.100      341.022       15.449      860.317
05/31/2014  08:56:00      -14.848       -5.568       17.057       23.343       21.886       18.873      544.888      479.017      356.188        0.096        0.069       15.858       13.339        0.708      341.615       16.451      860.314
05/31/2014  08:57:00      -28.951       14.006       12.186       23.149       13.379       24.815      535.894      178.992      615.794        0.126        0.067       32.161       20.827        0.419      341.437       16.151      860.314
05/31/2014  08:58:00       62.972       36.230       14.163       32.388       44.769       31.105     1048.992     2004.239      967.517        0.475        0.201       72.650       18.997        0.068      341.234       15.806      860.297
05/31/2014  08:59:00       42.809       35.031       14.285       43.830       45.039       30.239     1921.108     2028.481      914.409        0.406        0.243       55.316       27.654        0.250      341.552       16.345      860.293
05/31/2014  09:00:00       49.688       51.683       41.507       46.799       36.823       33.416     2190.146     1355.921     1116.608        0.576        0.233       71.694       20.888        0.085      341.195       15.738      860.286
05/31/2014  09:01:00       71.297       55.457       20.335       37.553       35.294       26.709     1410.258     1245.661      713.390        0.597        0.168       90.326       16.715        0.034      341.447       16.167      860.284
05/31/2014  09:02:00       16.231       10.778       43.677       30.529       33.926       27.369      932.021     1150.983      749.086        0.256        0.142       19.484       22.100        1.287      341.984       17.078      860.278
05/31/2014  09:03:00       45.510       74.511       50.991       40.937       35.140       34.169     1675.848     1234.830     1167.510        0.715        0.204       87.310       23.254        0.071      341.183       15.720      860.272
05/31/2014  09:04:00       94.669       36.889        5.327       50.257       45.114       32.490     2525.799     2035.233     1055.625        0.798        0.281      101.602       10.958        0.012      341.203       15.753      860.269
05/31/2014  09:05:00       35.973       66.239        0.251       41.725       33.423       32.991     1740.954     1117.069     1088.407        0.481        0.197       75.377       19.365        0.066      341.266       15.858      860.267
05/31/2014  09:06:00       74.102       59.045       44.690       42.564       38.889       24.861     1811.655     1512.343      618.059        0.746        0.197       94.749       13.088        0.019      341.279       15.880      860.251
05/31/2014  09:07:00       90.369       90.964       57.841       62.848       50.455       55.376     3949.867     2545.748     3066.528        1.467        0.478      128.223       37.339        0.085      341.043       15.483      860.247
05/31/2014  09:08:00      166.569       86.568       40.070       48.462       52.688       45.353     2348.610     2776.067     2056.883        2.201        0.359      187.722       31.687        0.028      341.036       15.470      860.248
05/31/2014  09:09:00      111.552       85.733       15.070       41.973       35.692       34.492     1761.726     1273.935     1189.691        1.212        0.211      140.691       23.042        0.027      341.137       15.641      860.249
05/31/2014  09:10:00      104.765       82.439       40.871       67.680       54.653       42.533     4580.608     2986.964     1809.082        1.441        0.469      133.312       28.841        0.047      341.564       16.363      860.253
05/31/2014  09:11:00       87.962       62.230       50.533       66.711       50.194       50.289     4450.423     2519.435     2528.992        1.183        0.475      107.749       37.596        0.122      341.250       15.833      860.254
05/31/2014  09:12:00      115.827       86.412       48.057       79.697       60.185       58.413     6351.616     3622.256     3412.059        1.829        0.669      144.509       48.902        0.115      341.255       15.839      860.246
05/31/2014  09:13:00      113.232      112.614       11.857       41.183       38.794       31.158     1696.050     1504.939      970.816        1.491        0.209      159.698        9.273        0.003      341.224       15.790      860.245
05/31/2014  09:14:00        9.864       48.826       16.482       39.200       46.095       28.750     1536.669     2124.708      826.562        0.362        0.224       49.813       26.669        0.287      341.566       16.367      860.238
05/31/2014  09:15:00       83.741       60.409        1.960       43.059       37.387       34.245     1854.118     1397.754     1172.710        0.754        0.221      103.256       17.331        0.028      341.593       16.415      860.239
05/31/2014  09:16:00       59.445       59.603       22.416       26.798       33.179       39.503      718.151     1100.871     1560.461        0.548        0.169       84.180       25.765        0.094      341.540       16.323      860.237
05/31/2014  09:17:00       30.237       12.806       28.146       36.703       44.562       30.812     1347.094     1985.795      949.370        0.308        0.214       32.836       17.355        0.279      341.307       15.928      860.220
05/31/2014  09:18:00       38.699       46.266       56.231       51.774       39.206       38.006     2680.589     1537.078     1444.461        0.623        0.283       60.317       30.505        0.256      341.471       16.207      860.212
05/31/2014  09:19:00      116.155       83.384       32.984       57.187       42.995       44.308     3270.390     1848.586     1963.231        1.431        0.354      142.985       26.335        0.034      341.204       15.753      860.195
05/31/2014  09:20:00       20.502      -16.059       10.085       25.623       43.336       26.995      656.535     1878.010      728.738        0.202        0.163       26.043       23.026        0.782      341.599       16.424      860.192
05/31/2014  09:21:00       31.887       52.348       56.762       33.756       40.024       26.963     1139.453     1601.894      726.988        0.522        0.173       61.295       15.796        0.066      341.775       16.722      860.189
05/31/2014  09:22:00       13.002      -33.576       -1.656       29.615       27.078       26.127      877.037      733.230      682.646        0.180        0.115       36.006       14.050        0.152      341.328       15.964      860.181
05/31/2014  09:23:00       76.226       31.504       27.774       49.006       56.088       31.335     2401.574     3145.845      981.896        0.705        0.326       82.480       23.238        0.079      341.469       16.203      860.175
05/31/2014  09:24:00       73.740       72.291        3.120       33.542       21.925       20.882     1125.071      480.685      436.071        0.636        0.102      103.265       12.064        0.014      341.221       15.784      860.167
05/31/2014  09:25:00       -8.209       24.463       10.413       18.374       23.373       22.767      337.612      546.316      518.318        0.109        0.070       25.803       18.562        0.517      341.883       16.905      860.152
05/31/2014  09:26:00      -65.406        7.928       -4.125       35.388       38.211       33.505     1252.277     1460.059     1122.598        0.410        0.192       65.884       20.227        0.094      341.485       16.230      860.148
05/31/2014  09:27:00       18.233       82.188       -0.472       37.213       39.654       29.058     1384.844     1572.463      844.360        0.544        0.190       84.186       22.191        0.069      342.047       17.184      860.132
05/31/2014  09:28:00      -10.948       54.531       18.126       27.949       56.557       32.958      781.168     3198.740     1086.246        0.424        0.253       55.620       36.562        0.432      342.587       18.103      860.130
05/31/2014  09:29:00       -0.427       22.551       31.615       20.019       18.599       15.945      400.756      345.912      254.230        0.125        0.050       22.556        8.368        0.138      342.727       18.340      860.124
05/31/2014  09:30:00      -23.024        8.709        3.248       34.349       23.841       24.625     1179.824      568.397      606.377        0.149        0.118       24.617       24.869        1.021      342.112       17.294      860.114
05/31/2014  09:31:00       20.494       43.198       18.929       54.437       34.334       34.631     2963.379     1178.829     1199.282        0.399        0.267       47.813       24.008        0.252      342.222       17.480      860.098
05/31/2014  09:32:00       89.573       42.073       34.662       71.846       55.287       32.571     5161.842     3056.694     1060.848        1.014        0.464       98.962       20.996        0.045      342.218       17.474      860.088
05/31/2014  09:33:00       64.242       46.759       23.470       62.517       43.494       45.810     3908.413     1891.766     2098.561        0.738        0.395       79.458       26.832        0.114      342.028       17.153      860.087
05/31/2014  09:34:00       57.756       80.549        0.225       45.823       39.462       33.107     2099.745     1557.220     1096.095        0.729        0.238       99.116       19.697        0.039      342.039       17.170      860.064
05/31/2014  09:35:00       33.297      -12.221       28.062       43.481       64.730       35.970     1890.622     4190.019     1293.808        0.471        0.369       35.469       18.092        0.260      342.072       17.227      860.049
05/31/2014  09:36:00       19.748       35.436       71.927       39.391       49.161       34.241     1551.624     2416.816     1172.469        0.598        0.257       40.567       29.156        0.517      342.558       18.052      860.045
05/31/2014  09:37:00        2.865       50.647       70.922       30.929       44.441       27.640      956.609     1975.040      763.996        0.565        0.185       50.728       30.390        0.359      342.110       17.292      860.049
05/31/2014  09:38:00       34.143       43.274       33.635       27.034       21.939       28.618      730.839      481.332      819.013        0.310        0.102       55.121       18.561        0.113      341.773       16.719      860.047
05/31/2014  09:39:00       35.340        5.251       23.561       37.122       30.579       25.379     1378.026      935.087      644.070        0.239        0.148       35.728       22.305        0.390      342.096       17.268      860.029
05/31/2014  09:40:00        9.736       10.858       45.119       31.030       73.368       42.455      962.832     5382.933     1802.404        0.520        0.407       14.584       48.706       11.154      342.147       17.354      860.025
05/31/2014  09:41:00       47.467       88.523       78.028       68.414       45.865       36.189     4680.435     2103.572     1309.623        1.213        0.405      100.446       25.110        0.062      342.007       17.117      860.026
05/31/2014  09:42:00       35.356       70.754       81.855       36.919       42.330       34.672     1363.035     1791.851     1202.115        0.866        0.218       79.096       22.134        0.078      341.853       16.854      860.019
05/31/2014  09:43:00       59.639       35.266       61.511       39.308       50.534       35.364     1545.086     2553.662     1250.633        0.697        0.267       69.286       28.302        0.167      341.586       16.402      860.033
05/31/2014  09:44:00       29.264      -48.948       17.587       31.356       45.289       31.266      983.177     2051.102      977.587        0.379        0.201       57.029       31.691        0.309      341.438       16.152      860.033
05/31/2014  09:45:00       57.482      -36.155       -9.816       31.853       19.891       20.858     1014.601      395.654      435.045        0.328        0.092       67.907       19.060        0.079      341.397       16.080      860.035
05/31/2014  09:46:00        2.898      -20.771        8.118       12.787       24.691       16.847      163.501      609.625      283.806        0.078        0.053       20.972       10.747        0.263      341.849       16.850      860.022
05/31/2014  09:47:00       21.177       50.485       41.190       28.495       48.635       39.561      811.940     2365.322     1565.089        0.472        0.237       54.746       30.907        0.319      342.232       17.497      860.006
05/31/2014  09:48:00       43.472       46.139       -3.482       36.305       43.188       31.519     1318.069     1865.175      993.445        0.410        0.209       63.393       24.970        0.155      342.464       17.893      860.000
05/31/2014  09:49:00       40.593       92.946        2.710       32.918       55.321       33.875     1083.585     3060.359     1147.538        0.779        0.265      101.424       28.586        0.079      342.364       17.723      859.981
05/31/2014  09:50:00       32.127       61.970       -9.956       31.030       22.831       23.069      962.833      521.243      532.171        0.349        0.101       69.803       16.914        0.059      342.099       17.272      859.970
05/31/2014  09:51:00       28.782       10.748       17.971       31.598       17.930       23.003      998.453      321.477      529.122        0.156        0.092       30.724        8.263        0.072      342.394       17.775      859.950
05/31/2014  09:52:00       50.546       43.874        5.128       49.201       36.644       30.959     2420.755     1342.761      958.435        0.461        0.236       66.932       20.375        0.093      342.231       17.496      859.931
05/31/2014  09:53:00       23.855       67.972       -3.932       29.427       35.352       31.190      865.950     1249.748      972.800        0.415        0.154       72.037       20.449        0.081      342.404       17.789      859.921
05/31/2014  09:54:00       44.039       33.405       24.111       25.936       32.717       37.663      672.670     1070.407     1418.528        0.340        0.158       55.276       25.349        0.210      342.505       17.963      859.905
05/31/2014  09:55:00        1.450      -68.651       -8.920       42.335       48.944       36.406     1792.219     2395.505     1325.418        0.515        0.276       68.666       27.496        0.160      341.928       16.983      859.902
05/31/2014  09:56:00        5.436       24.722       63.823       29.709       49.671       27.857      882.629     2467.164      776.004        0.442        0.206       25.313       26.850        1.125      342.736       18.355      859.897
05/31/2014  09:57:00       23.481       19.637       61.254       33.029       50.916       25.635     1090.886     2592.460      657.175        0.451        0.217       30.610       31.143        1.035      342.355       17.707      859.902
05/31/2014  09:58:00        5.049        5.221       29.165       24.461       29.967       45.098      598.355      898.009     2033.816        0.222        0.177        7.262       29.930       16.985      342.767       18.409      859.894
05/31/2014  09:59:00       47.546       54.496        9.801       28.746       42.036       39.843      826.331     1767.050     1587.503        0.475        0.209       72.322       28.030        0.150      342.188       17.424      859.885
05/31/2014  10:00:00       56.683       35.606       24.111       43.010       35.619       35.058     1849.845     1268.693     1229.092        0.470        0.217       66.938       22.273        0.111      342.351       17.700      859.874
05/31/2014  10:01:00       39.514       26.287       37.895       38.437       44.382       35.892     1477.424     1969.726     1288.256        0.421        0.237       47.459       28.923        0.371      343.012       18.825      859.870
05/31/2014  10:02:00       50.276       33.510        8.719       35.036       29.201       21.748     1227.513      852.715      472.958        0.314        0.128       60.420        9.903        0.027      342.555       18.046      859.859
05/31/2014  10:03:00       48.400       25.197       23.631       35.078       25.312       31.373     1230.434      640.715      984.251        0.320        0.143       54.566       18.490        0.115      342.655       18.216      859.845
05/31/2014  10:04:00       41.005       10.437       17.829       40.799       44.731       44.475     1664.533     2000.870     1978.008        0.387        0.282       42.312       36.072        0.727      342.211       17.462      859.836
05/31/2014  10:05:00       53.810       95.974       71.584       44.549       39.975       39.109     1984.625     1598.016     1529.538        1.117        0.256      110.030       17.823        0.026      342.205       17.454      859.824
05/31/2014  10:06:00      120.352       87.470       35.365       62.579       35.370       51.694     3916.136     1251.039     2672.241        1.561        0.392      148.780       33.718        0.051      342.379       17.746      859.825
05/31/2014  10:07:00       37.353       11.428        3.577       33.452       30.086       21.506     1119.014      905.172      462.529        0.201        0.124       39.062       13.192        0.114      342.378       17.745      859.818
05/31/2014  10:08:00       21.121      -65.513       10.828       28.850       33.478       31.313      832.319     1120.791      980.474        0.389        0.147       68.833       19.219        0.078      342.040       17.171      859.816
05/31/2014  10:09:00       33.816       -7.944       24.099       38.676       82.442       27.937     1495.864     6796.602      780.481        0.543        0.454       34.736       29.953        0.744      342.303       17.618      859.803
05/31/2014  10:10:00       68.981       53.580       31.456       64.100       37.475       35.195     4108.747     1404.387     1238.660        0.768        0.338       87.345       31.772        0.132      342.568       18.069      859.786
05/31/2014  10:11:00       46.728       97.525       -0.245       50.370       52.385       33.289     2537.166     2744.211     1108.143        0.904        0.319      108.142       28.780        0.071      342.690       18.277      859.771
05/31/2014  10:12:00      176.643       65.538        8.993       91.805       61.022       53.719     8428.149     3723.688     2885.715        2.531        0.752      188.409       38.269        0.041      342.774       18.415      859.746
05/31/2014  10:13:00      152.465       95.631       17.567       65.145       52.491       57.835     4243.823     2755.316     3344.881        2.152        0.517      179.975       22.296        0.015      342.616       18.149      859.739
05/31/2014  10:14:00       95.605       63.812       41.963       87.379       48.757       53.574     7635.105     2377.260     2870.133        1.393        0.644      114.945       28.966        0.064      342.895       18.623      859.726
05/31/2014  10:15:00      153.734       87.061       40.994       56.731       34.541       42.009     3218.454     1193.097     1764.745        1.953        0.309      176.674       25.252        0.020      342.452       17.870      859.723
05/31/2014  10:16:00      136.181      106.249       59.755       54.097       47.985       45.981     2926.536     2302.595     2114.291        2.037        0.367      172.726       36.468        0.045      342.743       18.365      859.716
05/31/2014  10:17:00      122.326       76.164       30.660       57.554       43.331       44.482     3312.519     1877.608     1978.665        1.444        0.358      144.100       25.251        0.031      342.731       18.346      859.718
05/31/2014  10:18:00      124.447      108.048       51.634       76.403       67.487       52.589     5837.349     4554.482     2765.597        2.149        0.658      164.807       37.400        0.051      343.060       18.904      859.699
05/31/2014  10:19:00      100.987       35.196       41.775      101.380       84.759       46.652    10277.818     7184.162     2176.446        1.641        0.982      106.945       29.998        0.079      343.253       19.235      859.689
05/31/2014  10:20:00       90.268       83.735       50.241       72.260       55.229       45.141     5221.505     3050.267     2037.682        1.399        0.515      123.126       34.077        0.077      343.146       19.050      859.680
05/31/2014  10:21:00       48.366       44.156       68.986       51.792       75.921       55.524     2682.415     5763.961     3082.940        1.029        0.576       65.490       46.973        0.514      343.075       18.934      859.671
05/31/2014  10:22:00       67.186       61.304       50.545       45.414       42.845       43.322     2062.445     1835.701     1876.789        0.830        0.289       90.951       13.581        0.022      342.584       18.097      859.662
05/31/2014  10:23:00       32.413       30.005       19.641       30.164       24.889       35.794      909.874      619.475     1281.235        0.257        0.141       44.169       16.202        0.135      342.821       18.500      859.654
05/31/2014  10:24:00       41.600       -7.061       14.280       41.402       51.436       40.577     1714.156     2645.645     1646.489        0.399        0.300       42.195       33.955        0.648      342.958       18.733      859.644
05/31/2014  10:25:00       34.430      -29.445       43.429       59.732       78.666       54.414     3567.868     6188.363     2960.829        0.833        0.636       45.304       58.324        1.657      343.668       19.943      859.636
05/31/2014  10:26:00       10.442      -46.838       34.008       46.658       79.592       46.544     2176.954     6334.942     2166.376        0.707        0.534       47.987       49.809        1.077      343.780       20.135      859.628
05/31/2014  10:27:00       81.618      -82.646      -19.063       84.061      100.722       58.315     7066.255    10144.842     3400.678        1.723        1.031      116.154       62.010        0.285      343.477       19.616      859.631
05/31/2014  10:28:00       65.967      -55.499       13.497       70.961       85.968       56.560     5035.462     7390.519     3199.015        1.162        0.781       86.208       62.414        0.524      343.513       19.679      859.620
05/31/2014  10:29:00       31.870       40.849       48.133       71.866       68.689       37.877     5164.651     4718.111     1434.632        0.816        0.566       51.811       17.158        0.110      343.533       19.711      859.610
05/31/2014  10:30:00       46.495      -26.627       31.703       81.656       71.648       57.415     6667.731     5133.464     3296.533        0.948        0.755       53.580       48.858        0.832      343.249       19.228      859.608
05/31/2014  10:31:00       24.998      -96.005       -3.201       28.728       59.760       35.742      825.287     3571.223     1277.490        0.776        0.284       99.206       23.882        0.058      342.839       18.529      859.610
05/31/2014  10:32:00       49.170       -2.188       11.507       30.363       20.710       48.185      921.902      428.896     2321.759        0.311        0.184       49.219       18.869        0.147      343.336       19.376      859.589
05/31/2014  10:33:00       12.790       -5.113       42.079       40.868       46.549       32.939     1670.198     2166.846     1084.970        0.344        0.246       13.775       26.881        3.808      343.689       19.978      859.571
05/31/2014  10:34:00       61.220      -93.802        0.778       75.571       50.458       35.766     5710.973     2546.027     1279.216        1.104        0.477      112.012       18.523        0.027      343.469       19.603      859.574
05/31/2014  10:35:00       35.098      -65.745       50.092       73.579      132.393       54.348     5413.910    17527.950     2953.670        1.697        1.295       74.527       68.695        0.850      344.059       20.608      859.566
05/31/2014  10:36:00       69.748       14.743       89.892       90.597       96.994       74.154     8207.844     9407.766     5498.765        1.813        1.156       71.289       74.826        1.102      343.606       19.837      859.565
05/31/2014  10:37:00       93.946      -97.162        4.294       86.272      102.622       75.119     7442.859    10531.195     5642.812        2.095        1.181      135.153       69.914        0.268      343.336       19.375      859.579
05/31/2014  10:38:00      -12.191       11.624       53.976       45.885       56.881       33.816     2105.397     3235.400     1143.493        0.484        0.324       16.844       35.175        4.361      343.571       19.777      859.585
05/31/2014  10:39:00       56.268      -19.020       24.069       45.589       64.815       45.292     2078.376     4200.920     2051.321        0.622        0.417       59.396       47.735        0.646      343.552       19.744      859.589
05/31/2014  10:40:00       86.255      -45.214       10.419       58.723       51.420       42.674     3448.342     2643.976     1821.110        0.875        0.396       97.387       39.690        0.166      343.116       19.002      859.588
05/31/2014  10:41:00       53.833      -64.012        7.534       42.284       40.930       39.948     1787.907     1675.291     1595.847        0.605        0.253       83.639       31.101        0.138      342.915       18.661      859.574
05/31/2014  10:42:00       23.396      -42.837       -0.837       29.533       39.127       24.899      872.220     1530.940      619.954        0.270        0.151       48.810       17.221        0.124      342.743       18.368      859.576
05/31/2014  10:43:00       -0.256       -6.351       25.545       30.948       33.263       24.181      957.756     1106.456      584.713        0.167        0.132        6.356       22.804       12.872      343.385       19.461      859.565
05/31/2014  10:44:00     -107.526      -39.744       -4.395       46.129       42.168       24.579     2127.924     1778.131      604.146        0.883        0.226      114.636       19.696        0.030      343.214       19.167      859.565
05/31/2014  10:45:00     -150.443     -120.800       -3.804       62.393       61.178       34.710     3892.825     3742.687     1204.781        2.304        0.442      192.940       29.614        0.024      343.093       18.960      859.570
05/31/2014  10:46:00      -93.793      -31.931        3.941       45.115       41.323       23.161     2035.398     1707.556      536.417        0.705        0.214       99.080       24.266        0.060      343.189       19.126      859.566
05/31/2014  10:47:00      -80.034       13.767       -9.566       41.186       29.970       20.897     1696.283      898.171      436.665        0.486        0.152       81.210       14.416        0.032      343.197       19.140      859.558
05/31/2014  10:48:00      -50.873       -5.757      -14.409       26.460       18.371       11.649      700.147      337.491      135.705        0.200        0.059       51.197        3.957        0.006      343.193       19.132      859.562
05/31/2014  10:49:00      -61.709       -2.044        2.914       17.703       22.132       15.918      313.399      489.836      253.367        0.244        0.053       61.743       14.273        0.053      343.215       19.172      859.549
05/31/2014  10:50:00       -4.343        3.992       26.264       19.200       12.129       19.950      368.653      147.123      398.007        0.082        0.046        5.899        8.185        1.925      344.625       21.577      859.554
05/31/2014  10:51:00       -4.390       49.287       14.742       53.156       39.441       34.330     2825.527     1555.600     1178.533        0.411        0.278       49.482       28.945        0.342      344.259       20.952      859.557
05/31/2014  10:52:00       35.481       64.239       32.159       52.030       54.550       39.471     2707.104     2975.755     1557.953        0.683        0.362       73.386       29.500        0.162      344.151       20.768      859.540
05/31/2014  10:53:00       -7.726       18.781       32.764       37.991       36.425       21.680     1443.281     1326.773      470.020        0.236        0.162       20.308       19.851        0.956      344.631       21.587      859.528
05/31/2014  10:54:00       50.306       44.030       37.161       37.702       46.845       32.761     1421.441     2194.461     1073.267        0.527        0.234       66.854        6.360        0.009      343.937       20.401      859.531
05/31/2014  10:55:00      114.613       85.757       10.169       58.598       43.642       44.541     3433.750     1904.605     1983.885        1.396        0.366      143.144       26.461        0.034      343.502       19.659      859.528
05/31/2014  10:56:00      136.128       98.275        0.637       58.654       28.449       31.003     3440.315      809.366      961.209        1.670        0.261      167.895       15.276        0.008      343.347       19.392      859.524
05/31/2014  10:57:00       43.528       22.164       30.523       44.804       53.756       36.910     2007.402     2889.712     1362.354        0.479        0.313       48.846       18.501        0.143      343.989       20.490      859.504
05/31/2014  10:58:00       14.226     -126.982        8.002       78.668       88.737       71.577     6188.612     7874.170     5123.314        1.778        0.959      127.776       59.229        0.215      344.023       20.548      859.483
05/31/2014  10:59:00       75.576     -127.372       10.990       91.899      121.033       76.569     8445.499    14649.092     5862.842        2.550        1.448      148.106       83.996        0.322      344.084       20.651      859.483
05/31/2014  11:00:00       95.689     -129.723       -5.777       86.071      100.716       67.538     7408.210    10143.728     4561.430        2.406        1.106      161.197       69.189        0.184      343.760       20.096      859.491
05/31/2014  11:01:00      118.695     -110.783       -8.045      102.222       95.674       65.556    10449.367     9153.463     4297.554        2.516        1.195      162.362       54.989        0.115      343.750       20.080      859.478
05/31/2014  11:02:00       70.331      -44.422       21.165       70.298       95.080       51.665     4941.747     9040.240     2669.315        1.201        0.833       83.185       53.528        0.414      344.010       20.526      859.478
05/31/2014  11:03:00       47.637       56.570       64.058       45.010       34.059       36.476     2025.865     1159.988     1330.530        0.704        0.226       73.955       19.559        0.070      343.718       20.027      859.489
05/31/2014  11:04:00       -1.388        6.548       18.974       32.048       19.245       31.194     1027.084      370.372      973.058        0.139        0.119        6.693       18.518        7.654      344.149       20.764      859.483
05/31/2014  11:05:00       50.369      -26.708       23.220       26.057       28.931       27.299      678.948      836.999      745.216        0.302        0.113       57.012       18.680        0.107      343.559       19.757      859.486
05/31/2014  11:06:00       14.383      -37.912       18.825       28.185       21.191       20.726      794.389      449.046      429.581        0.184        0.084       40.549       12.124        0.089      343.712       20.018      859.474
05/31/2014  11:07:00        6.624       -1.838       36.182       35.826       32.493       26.929     1283.506     1055.778      725.183        0.221        0.153        6.874       21.763       10.023      344.233       20.908      859.468
05/31/2014  11:08:00       -4.635       43.806       10.199       33.715       35.850       32.419     1136.717     1285.211     1051.023        0.276        0.174       44.050       14.311        0.106      344.306       21.031      859.457
05/31/2014  11:09:00        5.494      -28.302       22.355       41.622       39.163       32.200     1732.404     1533.710     1036.845        0.282        0.215       28.830       30.774        1.139      344.468       21.310      859.441
05/31/2014  11:10:00      -14.415      -37.277       11.677       46.608       47.639       27.746     2172.344     2269.476      769.848        0.347        0.261       39.967       25.789        0.416      343.952       20.428      859.438
05/31/2014  11:11:00       34.197       51.677       -0.285       51.739       35.537       41.042     2676.918     1262.892     1684.475        0.473        0.281       61.967       12.964        0.044      343.969       20.458      859.422
05/31/2014  11:12:00       -2.318       38.506        9.739       38.437       37.893       30.377     1477.432     1435.887      922.750        0.271        0.192       38.576       22.629        0.344      344.127       20.727      859.412
05/31/2014  11:13:00       12.852      -51.414        9.043       39.802       58.136       35.603     1584.196     3379.739     1267.598        0.456        0.312       52.996       39.731        0.562      344.462       21.299      859.418
05/31/2014  11:14:00       76.780      -88.057       42.126       88.451      139.928       89.279     7823.612    19579.706     7970.682        2.539        1.769      116.830      105.023        0.808      344.390       21.174      859.408
05/31/2014  11:15:00       73.467       63.760       72.166       68.333       69.501       49.888     4669.440     4830.389     2488.822        1.333        0.599       97.276       39.681        0.166      344.226       20.895      859.429
05/31/2014  11:16:00       58.444       28.261       61.553       47.651       72.973       47.050     2270.598     5325.080     2213.715        0.890        0.490       64.919       44.823        0.477      344.114       20.705      859.439
05/31/2014  11:17:00       39.063       14.836       33.067       42.368       40.600       42.220     1795.022     1648.349     1782.518        0.403        0.261       41.785       28.833        0.476      344.207       20.862      859.422
05/31/2014  11:18:00       28.422       27.237       73.981       51.552       71.950       64.129     2657.585     5176.752     4112.470        0.948        0.597       39.366       58.954        2.243      343.993       20.498      859.385
05/31/2014  11:19:00       80.733       88.707       40.713       67.188       49.846       52.753     4514.165     2484.647     2782.835        1.291        0.489      119.945       18.732        0.024      343.965       20.449      859.366
05/31/2014  11:20:00       70.998       80.631       94.366       66.762       63.121       38.941     4457.107     3984.240     1516.414        1.520        0.498      107.434       17.939        0.028      344.206       20.861      859.366
05/31/2014  11:21:00       93.977      -29.533       63.679       79.669      114.395       75.279     6347.103    13086.108     5666.865        1.942        1.255       98.508       75.643        0.590      343.877       20.297      859.356
05/31/2014  11:22:00      106.493     -113.595        9.173       64.460       92.333       38.190     4155.053     8525.297     1458.466        1.923        0.707      155.706       54.122        0.121      343.978       20.470      859.364
05/31/2014  11:23:00       38.482      -36.841       52.052       79.224       85.937       56.586     6276.405     7385.180     3202.008        1.120        0.843       53.274       58.838        1.220      344.546       21.442      859.358
05/31/2014  11:24:00       46.396      -83.413       27.260       55.188       70.273       47.447     3045.746     4938.248     2251.204        1.004        0.512       95.448       43.415        0.207      344.123       20.720      859.358
05/31/2014  11:25:00       28.122       18.292       55.165       34.954       80.179       53.743     1221.816     6428.646     2888.320        0.735        0.527       33.548       59.062        3.100      344.104       20.687      859.356
05/31/2014  11:26:00       79.149       99.874       89.280      111.808       54.871       57.054    12500.931     3010.854     3255.215        2.148        0.938      127.433       61.226        0.231      343.857       20.264      859.348
05/31/2014  11:27:00       19.886      -17.475       33.831       46.278       51.851       24.832     2141.613     2688.506      616.618        0.364        0.272       26.473       16.830        0.404      344.205       20.859      859.326
05/31/2014  11:28:00       89.270       58.527       21.752       51.140       41.993       38.562     2615.329     1763.421     1487.036        0.887        0.293      106.746       34.634        0.105      343.791       20.152      859.308
05/31/2014  11:29:00       12.511        7.566        9.380       27.304       62.124       41.572      745.534     3859.419     1728.223        0.332        0.317       14.621       32.326        4.888      344.067       20.624      859.268
05/31/2014  11:30:00       53.460       47.362       36.591       49.125       53.274       44.172     2413.288     2838.140     1951.145        0.682        0.360       71.422       28.918        0.164      344.277       20.980      859.263
05/31/2014  11:31:00      134.828       79.563       65.669       87.811       73.788       63.705     7710.822     5444.634     4058.379        2.301        0.861      156.553       49.939        0.102      343.855       20.259      859.277
05/31/2014  11:32:00       82.203       37.709       84.712       69.975       63.707       42.188     4896.528     4058.607     1779.862        1.304        0.537       90.440       29.797        0.109      344.223       20.889      859.295
05/31/2014  11:33:00       60.129       94.166      115.171       73.727       77.047       68.908     5435.604     5936.235     4748.368        2.093        0.806      111.726       60.806        0.296      344.041       20.577      859.289
05/31/2014  11:34:00      109.818       72.635       64.364       88.844       67.131       72.081     7893.307     4506.620     5195.678        1.953        0.880      131.665       56.645        0.185      344.170       20.797      859.286
05/31/2014  11:35:00       37.391      -62.543       18.917       69.535      111.117       65.086     4835.070    12346.933     4236.227        1.354        1.071       72.868       67.608        0.861      344.689       21.685      859.288
05/31/2014  11:36:00       38.278      -79.645       -1.856       69.009       83.365       51.566     4762.198     6949.765     2659.064        1.109        0.719       88.366       52.487        0.353      344.809       21.893      859.274
05/31/2014  11:37:00       21.143       12.164       66.667       74.165       76.630       63.680     5500.516     5872.174     4055.123        1.023        0.771       24.392       61.182        6.291      344.928       22.095      859.266
05/31/2014  11:38:00       87.550       37.713       75.962       80.026       91.613       61.325     6404.231     8393.013     3760.807        1.670        0.928       95.327       59.390        0.388      344.497       21.357      859.268
05/31/2014  11:39:00      190.806     -178.548      -26.383      106.163      134.358       90.122    11270.631    18052.188     8121.968        5.321        1.872      261.316       99.685        0.146      344.318       21.049      859.256
05/31/2014  11:40:00       97.023       29.300       32.245       99.394       71.753       51.622     9879.189     5148.453     2664.812        1.450        0.885      101.351       54.092        0.285      344.055       20.604      859.262
05/31/2014  11:41:00       42.317      -29.398       27.563       32.009       37.485       35.543     1024.596     1405.147     1263.323        0.355        0.185       51.526       24.051        0.218      344.521       21.399      859.240
05/31/2014  11:42:00        0.791      -37.711       44.561       51.381      110.801       60.099     2639.992    12276.798     3611.919        1.096        0.926       37.719       64.572        2.931      344.814       21.900      859.229
05/31/2014  11:43:00       79.329      -49.335       71.931      104.826      174.663      113.161    10988.562    30507.176    12805.313        3.409        2.715       93.418      133.326        2.037      344.593       21.520      859.223
05/31/2014  11:44:00      163.288     -211.663      -12.139       87.282      111.669       56.576     7618.204    12470.049     3200.821        4.745        1.164      267.328       58.699        0.048      344.141       20.745      859.264
05/31/2014  11:45:00       39.371      -86.850       26.452       43.745      101.511       68.219     1913.632    10304.515     4653.778        1.333        0.844       95.357       75.075        0.620      344.412       21.212      859.275
05/31/2014  11:46:00      109.234       -4.226       30.850       60.850       47.932       58.319     3702.746     2297.506     3401.117        1.115        0.470      109.315       47.192        0.186      344.471       21.315      859.254
05/31/2014  11:47:00       94.690      -27.126       58.957       80.216       91.688       52.519     6434.548     8406.610     2758.290        1.539        0.880       98.499       51.075        0.269      344.586       21.508      859.250
05/31/2014  11:48:00        4.840      -42.255       -2.261       57.464       91.320       60.351     3302.089     8339.404     3642.248        0.855        0.764       42.531       46.274        1.184      344.300       21.020      859.244
05/31/2014  11:49:00       13.101       26.368       37.230       65.516       48.434       37.206     4292.358     2345.823     1384.319        0.514        0.401       29.444       19.937        0.458      344.967       22.161      859.211
05/31/2014  11:50:00       16.151      -14.620       37.713       25.493       55.247       29.910      649.883     3052.232      894.590        0.325        0.230       21.786       29.205        1.797      344.433       21.249      859.210
05/31/2014  11:51:00       15.712      -21.848       17.599       31.877       36.741       33.992     1016.153     1349.902     1155.464        0.228        0.176       26.911       24.439        0.825      344.523       21.404      859.187
05/31/2014  11:52:00       29.801      -20.385       48.305       49.242       82.613       65.499     2424.743     6824.965     4290.122        0.859        0.677       36.105       60.533        2.811      344.552       21.452      859.159
05/31/2014  11:53:00       37.776       56.577      116.141       75.427       95.144       60.637     5689.161     9052.363     3676.865        1.826        0.921       68.029       44.544        0.429      344.919       22.080      859.138
05/31/2014  11:54:00      108.270       70.434       25.671       55.762       44.335       48.972     3109.444     1965.633     2398.224        1.241        0.374      129.164       18.699        0.021      344.259       20.952      859.122
05/31/2014  11:55:00       56.817       75.652       -3.324       64.805       66.833       46.840     4199.653     4466.683     2193.951        0.991        0.543       94.612       39.057        0.170      344.582       21.503      859.091
05/31/2014  11:56:00       89.794       43.496       37.041      103.959       77.058       56.887    10807.499     5937.925     3236.148        1.565        0.999       99.774       35.305        0.125      344.995       22.208      859.078
05/31/2014  11:57:00      151.646       99.262       29.960       78.895       49.063       52.640     6224.469     2407.164     2770.968        2.257        0.570      181.244       31.185        0.030      344.888       22.023      859.056
05/31/2014  11:58:00       82.391       54.455       50.259       85.082       77.322       51.759     7238.957     5978.664     2678.980        1.408        0.795       98.760       37.474        0.144      345.506       23.084      859.030
05/31/2014  11:59:00       44.870      -23.725       62.711       57.628       97.038       70.753     3320.945     9416.425     5006.019        1.212        0.887       50.756       49.396        0.947      345.634       23.303      859.015
05/31/2014  12:00:00      107.153        0.624       94.780      113.076      159.959       95.850    12786.221    25586.965     9187.305        3.400        2.378      107.154       99.551        0.863      345.023       22.254      859.009
05/31/2014  12:01:00      103.273       46.638       30.772      104.685       58.669       57.394    10958.949     3442.061     3294.105        1.574        0.885      113.316       29.839        0.069      344.610       21.551      858.997
05/31/2014  12:02:00       73.050       44.140       37.045       86.060       49.331       38.506     7406.400     2433.589     1482.719        0.999        0.566       85.350       33.661        0.156      345.346       22.810      858.960
05/31/2014  12:03:00      189.287      137.359       48.661      113.438       73.306       51.689    12868.126     5373.727     2671.744        3.899        1.046      233.874       52.894        0.051      344.952       22.134      858.965
05/31/2014  12:04:00       77.939      -27.237       67.456       99.764       97.629       52.083     9952.809     9531.410     2712.600        1.678        1.110       82.561       49.787        0.364      345.565       23.186      858.964
05/31/2014  12:05:00       20.471       70.331      110.017       80.936       75.287       49.350     6550.571     5668.107     2435.391        1.606        0.733       73.250       40.273        0.302      345.572       23.198      858.954
05/31/2014  12:06:00       94.642       31.215       91.162      116.619      123.940       72.988    13599.949    15361.029     5327.317        2.626        1.714       99.657       64.592        0.420      345.316       22.757      858.943
05/31/2014  12:07:00       89.835      126.580      138.455      102.004      104.682       72.158    10404.894    10958.273     5206.821        3.491        1.328      155.219       58.884        0.144      344.767       21.817      858.962
05/31/2014  12:08:00       90.905      -82.685        3.981       82.563      135.413       53.323     6816.646    18336.726     2843.309        2.155        1.400      122.884       47.312        0.148      344.806       21.884      858.977
05/31/2014  12:09:00      109.030     -187.424      -22.009       82.338      107.237       59.624     6779.612    11499.709     3555.033        3.466        1.092      216.830       51.039        0.055      345.138       22.451      858.951
05/31/2014  12:10:00      217.501     -197.323      -46.167      112.306      126.972       80.289    12612.643    16121.909     6446.332        6.177        1.759      293.672       81.425        0.077      344.895       22.035      858.936
05/31/2014  12:11:00       84.647       -3.324      134.146      122.255      175.978       92.804    14946.239    30968.156     8612.670        3.984        2.726       84.713      110.181        1.692      345.109       22.403      858.926
05/31/2014  12:12:00       95.923      -70.975       41.674       90.676       87.697       69.348     8222.179     7690.822     4809.163        1.834        1.036      119.326       53.334        0.200      344.874       22.001      858.922
05/31/2014  12:13:00      110.709     -126.169       -0.266       93.968      108.854       52.858     8829.938    11849.121     2793.997        2.582        1.174      167.854       59.888        0.127      344.713       21.725      858.880
05/31/2014  12:14:00        4.077      -75.888       68.563       87.638      111.052       68.604     7680.433    12332.621     4706.449        1.759        1.236       75.997       49.297        0.421      345.444       22.977      858.849
05/31/2014  12:15:00      -54.931     -122.084       29.739      118.032      104.492       60.230    13931.603    10918.662     3627.623        2.364        1.424      133.873       59.945        0.201      345.197       22.554      858.860
05/31/2014  12:16:00       81.734      -83.482       19.010       74.050       80.849       47.519     5483.420     6536.631     2258.087        1.414        0.714      116.832       54.201        0.215      345.008       22.232      858.882
05/31/2014  12:17:00       67.231      -90.109       15.644       53.533       93.582       48.459     2865.741     8757.684     2348.245        1.343        0.699      112.426       57.276        0.260      345.127       22.436      858.879
05/31/2014  12:18:00     -148.253     -131.174       -1.643      134.271       99.913       55.900    18028.752     9982.554     3124.851        3.516        1.557      197.953       63.775        0.104      344.942       22.117      858.885
05/31/2014  12:19:00      -27.079      -92.009        0.043       61.428      101.390       42.145     3773.364    10280.000     1776.186        1.251        0.791       95.911       31.876        0.110      345.225       22.604      858.880
05/31/2014  12:20:00      -72.890     -109.337      -11.888       65.293       57.890       36.679     4263.194     3351.200     1345.366        1.318        0.448      131.406       28.468        0.047      344.945       22.124      858.877
05/31/2014  12:21:00       58.676      -93.625       -3.401       66.621       66.607       43.075     4438.316     4436.494     1855.466        1.147        0.537      110.492       37.681        0.116      345.131       22.441      858.875
05/31/2014  12:22:00     -126.452      -43.240       10.533       81.225       54.364       32.990     6597.550     2955.480     1088.309        1.430        0.532      133.641       21.809        0.027      345.434       22.961      858.864
05/31/2014  12:23:00     -220.082     -126.213       13.053      118.838       83.853       55.409    14122.420     7031.303     3070.179        4.438        1.211      253.704       57.984        0.052      344.959       22.146      858.823
05/31/2014  12:24:00      -19.990     -122.000       17.208       74.942      106.284       62.618     5616.235    11296.370     3920.952        1.820        1.042      123.627       52.433        0.180      345.207       22.572      858.851
05/31/2014  12:25:00     -108.237      -45.170        4.739       86.922      121.191       57.043     7555.375    14687.229     3253.935        1.963        1.275      117.284       55.806        0.226      344.857       21.971      858.864
05/31/2014  12:26:00       43.483       28.880       33.800       37.677       32.256       47.547     1419.580     1040.440     2260.708        0.429        0.236       52.200       29.496        0.319      345.025       22.261      858.850
05/31/2014  12:27:00       30.466      -58.875       25.189       46.755       78.908       42.438     2185.988     6226.395     1800.950        0.762        0.511       66.291       49.133        0.549      345.321       22.768      858.833
05/31/2014  12:28:00       -7.723       10.662       71.398       80.169      119.711       67.788     6427.076    14330.612     4595.215        1.531        1.268       13.165       71.566       29.552      345.180       22.527      858.802
05/31/2014  12:29:00       -6.243     -189.326        2.024      133.221      107.984       74.192    17747.746    11660.446     5504.472        3.539        1.746      189.429       59.170        0.098      345.489       23.053      858.822
05/31/2014  12:30:00       39.090     -205.564      -28.882      120.079       98.648       62.449    14418.910     9731.354     3899.913        3.633        1.403      209.248       58.000        0.077      345.284       22.701      858.837
05/31/2014  12:31:00       20.767      -31.995        9.139       73.882       80.552       52.624     5458.540     6488.666     2769.300        0.812        0.736       38.144       48.757        1.634      345.375       22.861      858.823
05/31/2014  12:32:00        9.756       83.358      110.689       60.701       55.438       48.700     3684.576     3073.346     2371.728        1.421        0.456       83.927       38.318        0.208      344.958       22.147      858.801
05/31/2014  12:33:00       33.173       25.770       50.667       41.608       45.771       38.461     1731.255     2094.949     1479.270        0.482        0.265       42.006       33.776        0.647      344.853       21.967      858.801
05/31/2014  12:34:00      -11.990       36.622       28.186       53.436       41.164       31.216     2855.401     1694.505      974.457        0.390        0.276       38.535       29.612        0.591      345.098       22.385      858.805
05/31/2014  12:35:00     -153.018       35.865      -29.457       59.456       72.128       24.097     3535.064     5202.492      580.683        1.744        0.466      157.165       21.628        0.019      345.068       22.334      858.816
05/31/2014  12:36:00     -158.631     -135.391       -0.485      110.573       80.755       57.822    12226.288     6521.448     3343.370        3.279        1.105      208.553       56.701        0.074      345.300       22.728      858.845
05/31/2014  12:37:00     -201.523     -133.428       13.378      169.844      165.304       85.881    28847.062    27325.551     7375.622        6.106        3.177      241.691       92.303        0.146      345.474       23.027      858.815
05/31/2014  12:38:00     -243.883     -134.242       -5.055      241.437      220.777      105.771    58291.841    48742.676    11187.482        9.785        5.911      278.388      127.981        0.211      345.691       23.400      858.774
05/31/2014  12:39:00     -471.309      -68.111      -33.245      135.256      159.429       68.409    18294.229    25417.670     4679.748       13.812        2.420      476.205       60.397        0.016      345.459       23.001      858.826
05/31/2014  12:40:00     -316.015       20.376       -5.469      161.974      136.455       81.078    26235.421    18620.008     6573.641        7.586        2.571      316.671       83.356        0.069      345.790       23.568      858.819
05/31/2014  12:41:00     -192.908      -32.277       14.122      144.091      112.077       58.305    20762.261    12561.301     3399.458        3.758        1.836      195.590       65.954        0.114      346.111       24.122      858.846
05/31/2014  12:42:00     -307.968     -150.344        2.610      185.553      162.831       83.337    34429.776    26513.897     6944.973        9.266        3.394      342.706       84.964        0.061      345.509       23.088      858.849
05/31/2014  12:43:00     -414.349     -175.006       -7.099      139.249      145.203       86.087    19390.283    21083.895     7410.906       12.511        2.394      449.791       69.017        0.024      345.463       23.009      858.823
05/31/2014  12:44:00     -480.281      -64.061      -25.499      123.924      109.739       62.993    15357.148    12042.595     3968.140       13.339        1.568      484.535       67.341        0.019      345.293       22.716      858.805
05/31/2014  12:45:00     -342.220     -168.149      -24.075      108.143       83.703       49.000    11694.860     7006.190     2400.974        8.353        1.055      381.299       28.424        0.006      345.442       22.971      858.803
05/31/2014  12:46:00     -241.924      -42.387      -18.195      111.613       79.276       52.476    12457.548     6284.730     2753.749        4.107        1.075      245.609       52.797        0.046      345.910       23.775      858.819
05/31/2014  12:47:00     -264.108       34.322       -2.282      199.964      127.419       73.889    39985.403    16235.702     5459.515        6.630        3.084      266.329       84.015        0.100      345.879       23.722      858.807
05/31/2014  12:48:00     -343.928       87.544      -16.349      153.687      114.448       63.810    23619.596    13098.255     4071.708        8.350        2.039      354.895       59.616        0.028      345.563       23.182      858.798
05/31/2014  12:49:00     -120.798       -0.073       -1.386       75.678       52.959       39.882     5727.214     2804.703     1590.538        1.236        0.506      120.798       31.075        0.066      345.748       23.499      858.792
05/31/2014  12:50:00      -74.536        2.632       11.199      114.958       54.013       41.027    13215.381     2917.392     1683.221        1.175        0.891       74.583       43.231        0.336      346.259       24.378      858.760
05/31/2014  12:51:00     -160.080      -38.525       -5.880       86.221       94.470       46.761     7434.119     8924.572     2186.632        2.284        0.927      164.651       39.447        0.057      345.741       23.486      858.754
05/31/2014  12:52:00     -158.408      -44.246        6.065      107.483       78.151       46.302    11552.528     6107.577     2143.833        2.344        0.990      164.472       51.980        0.100      345.945       23.837      858.764
05/31/2014  12:53:00     -357.577      -75.078       -4.129      116.916       79.727       55.320    13669.277     6356.360     3060.290        7.830        1.154      365.374       58.918        0.026      345.404       22.908      858.761
05/31/2014  12:54:00     -171.477     -142.053        1.545      101.393      141.537       49.427    10280.541    20032.844     2443.073        4.116        1.638      222.673       52.598        0.056      345.401       22.903      858.739
05/31/2014  12:55:00     -139.076     -131.304        5.333       98.845      144.647       38.553     9770.347    20922.790     1486.336        3.439        1.609      191.266       40.710        0.045      345.597       23.239      858.720
05/31/2014  12:56:00      -74.643     -106.710       20.385      151.996      137.670       62.169    23102.695    18953.087     3864.963        3.164        2.296      130.226       35.970        0.076      345.970       23.878      858.712
05/31/2014  12:57:00      -87.541     -181.446        6.196      132.254      134.387       81.840    17491.064    18059.990     6697.774        4.143        2.112      201.460       61.019        0.092      345.929       23.808      858.716
05/31/2014  12:58:00      -46.768     -317.438       -9.502      139.949      210.930       86.952    19585.587    44491.502     7560.631        8.733        3.582      320.865       80.742        0.063      345.501       23.074      858.714
05/31/2014  12:59:00      -83.514     -269.023       -0.249      104.296      154.548       72.214    10877.669    23885.198     5214.873        5.965        1.999      281.688       45.899        0.027      345.481       23.040      858.704
05/31/2014  13:00:00     -164.975     -150.691        2.345      126.489       77.442       57.195    15999.386     5997.186     3271.253        3.759        1.263      223.438       55.915        0.063      345.587       23.221      858.705
05/31/2014  13:01:00     -181.674     -112.069       -7.602       77.065       78.433       42.964     5939.063     6151.732     1845.917        2.978        0.697      213.460       37.338        0.031      345.769       23.534      858.695
05/31/2014  13:02:00      -90.428     -194.880       12.287       97.542      115.069       52.399     9514.461    13240.816     2745.622        3.590        1.275      214.838       53.619        0.062      345.982       23.900      858.691
05/31/2014  13:03:00     -240.803      -62.776       -7.005      149.895      129.238       54.658    22468.659    16702.584     2987.450        5.206        2.108      248.851       53.858        0.047      345.950       23.844      858.661
05/31/2014  13:04:00     -289.469     -131.842       12.882      149.443      157.704       73.433    22333.300    24870.536     5392.410        7.696        2.630      318.080       73.905        0.054      345.867       23.701      858.640
05/31/2014  13:05:00     -387.116      -43.231      -15.320      176.234      116.156       68.156    31058.329    13492.137     4645.221       10.057        2.460      389.522       76.396        0.038      345.759       23.516      858.652
05/31/2014  13:06:00     -281.093      -75.300      -15.493      178.987      104.038       54.793    32036.326    10823.914     3002.252        6.538        2.293      291.004       70.804        0.059      345.922       23.797      858.658
05/31/2014  13:07:00     -279.399     -131.985      -19.575       86.606       66.919       45.115     7500.681     4478.122     2035.328        5.494        0.701      309.005       41.058        0.018      345.369       22.849      858.642
05/31/2014  13:08:00      -86.031     -114.589       11.607      119.227       90.903       56.835    14214.961     8263.282     3230.181        2.318        1.285      143.290       60.084        0.176      345.822       23.625      858.640
05/31/2014  13:09:00     -163.565     -100.584       -2.290      155.217       99.744       71.775    24092.205     9948.798     5151.599        3.803        1.960      192.017       75.542        0.155      345.906       23.770      858.650
05/31/2014  13:10:00     -210.453      -70.358       -5.311      110.866       91.420       46.527    12291.196     8357.547     2164.791        3.604        1.141      221.903       45.714        0.042      345.981       23.899      858.652
05/31/2014  13:11:00     -136.769     -128.545       17.418      158.673      120.559       77.017    25177.053    14534.538     5931.676        4.058        2.282      187.695       94.041        0.251      346.058       24.032      858.656
05/31/2014  13:12:00     -193.871     -114.416       -5.072      114.876       99.888       58.093    13196.393     9977.604     3374.850        3.862        1.327      225.116       69.002        0.094      345.828       23.634      858.666
05/31/2014  13:13:00      -26.141     -117.200       19.958       95.636       84.574       51.007     9146.291     7152.770     2601.691        1.686        0.945      120.080       43.791        0.133      345.869       23.706      858.668
05/31/2014  13:14:00     -170.168     -105.391       -9.112       79.741       99.066       46.039     6358.682     9814.099     2119.553        2.922        0.915      200.161       48.203        0.058      345.565       23.184      858.650
05/31/2014  13:15:00     -170.326     -146.517      -11.165      123.940      115.542       55.589    15361.194    13350.020     3090.179        4.120        1.590      224.673       50.390        0.050      345.613       23.265      858.610
05/31/2014  13:16:00     -292.557     -127.472        4.597      212.586      118.734       63.662    45193.004    14097.841     4052.798        8.259        3.167      319.121       66.126        0.043      345.945       23.836      858.587
05/31/2014  13:17:00     -490.756     -184.995      -25.138      167.384      159.034       84.584    28017.563    25291.893     7154.379       16.807        3.023      524.466       73.872        0.020      345.717       23.443      858.574
05/31/2014  13:18:00     -416.220     -290.158       -4.469      246.219      189.058       82.892    60623.709    35742.971     6871.033       18.032        5.162      507.376       93.859        0.034      345.727       23.460      858.578
05/31/2014  13:19:00     -389.245     -254.855       -2.730      238.705      140.621       82.735    56980.139    19774.181     6845.054       15.002        4.180      465.256       92.765        0.040      345.573       23.197      858.611
05/31/2014  13:20:00     -216.329     -165.035        6.605      132.393      102.065       63.425    17527.938    10417.355     4022.684        5.302        1.598      272.093       65.720        0.058      345.799       23.585      858.638
05/31/2014  13:21:00     -164.542     -108.325       -2.919      107.971       86.180       54.585    11657.741     7427.004     2979.507        3.044        1.103      196.999       46.813        0.056      345.724       23.457      858.640
05/31/2014  13:22:00      -65.382      -16.343       19.090      118.584      107.329       61.196    14062.050    11519.516     3744.948        1.711        1.466       67.394       64.153        0.906      346.132       24.158      858.591
05/31/2014  13:23:00     -416.593     -152.220      -19.192      207.412      125.389       72.843    43019.561    15722.499     5306.127       13.056        3.202      443.532       84.771        0.037      345.997       23.925      858.567
05/31/2014  13:24:00     -283.354     -221.778       -3.512      142.162      133.907       78.313    20210.014    17931.002     6132.851        8.687        2.214      359.826       83.474        0.054      345.941       23.827      858.594
05/31/2014  13:25:00     -295.068     -144.141      -10.959      127.938      103.880       62.172    16368.148    10790.969     3865.389        6.949        1.551      328.393       65.050        0.039      345.686       23.389      858.618
05/31/2014  13:26:00     -188.260       -9.655       -3.598      110.736       76.054       48.436    12262.365     5784.153     2346.088        2.797        1.020      188.507       47.061        0.062      345.897       23.754      858.592
05/31/2014  13:27:00     -301.837      -92.528      -12.994      100.284      132.736       50.498    10056.949    17618.779     2550.008        6.502        1.511      315.701       49.867        0.025      345.947       23.839      858.579
05/31/2014  13:28:00     -247.457       59.419      -14.050      103.350       97.137       53.541    10681.153     9435.575     2866.662        4.397        1.149      254.491       49.363        0.038      346.189       24.255      858.592
05/31/2014  13:29:00     -182.879       89.388      -20.976       64.540       46.976       38.719     4165.408     2206.746     1499.168        2.487        0.394      203.556       28.836        0.020      345.848       23.668      858.580
05/31/2014  13:30:00     -118.744       22.667      -18.104       43.741       43.706       34.405     1913.269     1910.235     1183.696        0.997        0.250      120.888       25.596        0.045      345.678       23.379      858.553
05/31/2014  13:31:00      -72.877      -48.905       -6.964       40.449       36.591       23.470     1636.135     1338.883      550.834        0.564        0.176       87.766        7.409        0.007      345.793       23.577      858.543
05/31/2014  13:32:00     -260.734     -118.667      -20.085      147.287       94.603       53.493    21693.536     8949.680     2861.529        5.798        1.675      286.469       37.340        0.017      345.848       23.669      858.557
05/31/2014  13:33:00     -140.007      -86.245       18.424      158.985      154.282       75.085    25276.182    23802.806     5637.809        4.104        2.736      164.439       74.385        0.205      346.113       24.125      858.505
05/31/2014  13:34:00     -207.833     -315.791      -10.874      148.871      132.827       74.957    22162.554    17642.970     5618.478        9.422        2.271      378.046       85.169        0.051      345.636       23.305      858.510
05/31/2014  13:35:00     -127.338     -170.134       -1.151       98.997      139.115       46.341     9800.415    19352.923     2147.506        3.822        1.565      212.510       58.134        0.075      345.848       23.671      858.530
05/31/2014  13:36:00     -178.763      -73.776        1.487      103.723      101.160       60.378    10758.526    10233.282     3645.555        3.101        1.232      193.389       56.919        0.087      346.233       24.331      858.563
05/31/2014  13:37:00     -101.494       34.393       -2.091       93.636       71.884       51.379     8767.762     5167.315     2639.793        1.403        0.829      107.163       47.631        0.198      346.398       24.617      858.538
05/31/2014  13:38:00     -225.690       87.506       -9.110      196.691      102.659       60.637    38687.408    10538.833     3676.858        5.578        2.645      242.061       72.933        0.091      345.964       23.869      858.518
05/31/2014  13:39:00     -250.115      -85.217       -3.231      163.922       96.198       77.695    26870.278     9253.992     6036.457        5.599        2.108      264.234       96.837        0.134      345.838       23.651      858.544
05/31/2014  13:40:00     -259.554      -85.263      -24.990       72.564       90.136       38.559     5265.491     8124.483     1486.834        4.507        0.744      273.199       31.817        0.014      345.513       23.096      858.569
05/31/2014  13:41:00     -100.755      -71.619       11.976      125.708       69.244       45.567    15802.437     4794.680     2076.360        1.904        1.134      123.616       52.278        0.179      346.162       24.210      858.583
05/31/2014  13:42:00     -215.491     -159.626        3.448      118.398      137.155       61.542    14018.010    18811.496     3787.461        5.427        1.831      268.173       59.120        0.049      345.755       23.509      858.557
05/31/2014  13:43:00     -210.125     -123.365       -1.305      134.489      100.411       58.105    18087.383    10082.292     3376.164        4.545        1.577      243.662       52.099        0.046      346.129       24.151      858.521
05/31/2014  13:44:00     -368.661     -323.992       -3.526      215.394      168.235       88.565    46394.751    28302.929     7843.675       16.170        4.127      490.797      104.323        0.045      345.693       23.404      858.526
05/31/2014  13:45:00     -433.729     -273.307      -18.934      311.128      152.091      100.589    96800.763    23131.693    10118.167       19.659        6.503      512.657      132.763        0.067      345.898       23.755      858.497
05/31/2014  13:46:00     -290.738      -35.101       11.171      182.395      142.928       94.291    33268.005    20428.382     8890.755        7.422        3.129      292.849      104.841        0.128      346.377       24.578      858.495
05/31/2014  13:47:00     -174.726     -165.112       17.178      155.751      196.426       74.318    24258.449    38583.091     5523.231        6.321        3.418      240.398       76.736        0.102      346.302       24.449      858.503
05/31/2014  13:48:00     -257.337     -210.556      -19.738      130.892      139.867       61.655    17132.809    19562.669     3801.345        7.571        2.025      332.500       61.007        0.034      346.117       24.129      858.537
05/31/2014  13:49:00     -247.551     -216.234        9.765      197.920      146.929       65.447    39172.490    21588.014     4283.261        8.658        3.252      328.692       64.296        0.038      345.959       23.860      858.537
05/31/2014  13:50:00     -320.540     -207.583       -3.505      132.648      106.538       65.340    17595.530    11350.348     4269.381        8.953        1.661      381.886       58.242        0.023      345.762       23.521      858.530
05/31/2014  13:51:00     -186.703     -137.400       15.830      151.022      115.504       53.999    22807.509    13341.183     2915.882        4.652        1.953      231.812       48.313        0.043      345.952       23.849      858.527
05/31/2014  13:52:00     -325.262     -214.512      -18.677      138.118      144.160       62.556    19076.526    20782.119     3913.250        9.796        2.189      389.629       66.769        0.029      345.500       23.070      858.510
05/31/2014  13:53:00     -254.505     -189.139       -2.384      102.463       91.474       51.508    10498.650     8367.498     2653.062        6.103        1.076      317.090       50.015        0.025      345.658       23.341      858.485
05/31/2014  13:54:00     -199.145     -212.824        0.885       90.276       88.021       47.517     8149.817     7747.764     2257.838        5.155        0.908      291.467       42.157        0.021      345.838       23.652      858.508
05/31/2014  13:55:00      -97.014     -136.086       -4.885      108.514       92.649       47.745    11775.371     8583.874     2279.575        2.529        1.132      167.126       44.887        0.072      346.104       24.109      858.513
05/31/2014  13:56:00     -284.885     -113.878        0.314      145.898       92.344       61.699    21286.146     8527.440     3806.802        6.387        1.681      306.802       76.050        0.061      346.070       24.049      858.521
05/31/2014  13:57:00     -150.462      -94.897      -11.639      111.934       73.379       45.161    12529.143     5384.439     2039.555        2.586        0.998      177.888       54.699        0.095      346.091       24.086      858.557
05/31/2014  13:58:00     -259.584      -34.755       -9.642       92.714       86.899       47.997     8595.896     7551.509     2303.734        4.356        0.923      261.901       47.060        0.032      345.958       23.855      858.539
05/31/2014  13:59:00     -326.419      -59.700      -28.879       98.678       95.216       46.401     9737.262     9066.015     2153.021        6.595        1.048      331.833       41.307        0.015      345.737       23.478      858.501
05/31/2014  14:00:00     -273.858      -79.314       -0.340      131.473       91.858       54.340    17285.065     8437.934     2952.787        5.498        1.434      285.112       50.681        0.032      346.157       24.198      858.467
05/31/2014  14:01:00     -325.195     -101.064        7.621      216.851      129.058       82.209    47024.484    16655.846     6758.386        9.322        3.522      340.537      102.346        0.090      346.232       24.328      858.467
05/31/2014  14:02:00     -353.353      -96.474      -12.592      165.167      145.332       88.146    27280.287    21121.445     7769.642        9.524        2.809      366.286       93.386        0.065      346.047       24.010      858.445
05/31/2014  14:03:00     -223.859     -111.476       22.409      161.709      118.796       77.992    26149.753    14112.581     6082.794        5.468        2.317      250.080       86.626        0.120      346.288       24.425      858.466
05/31/2014  14:04:00     -174.576     -232.350      -14.068      165.858      164.728       52.678    27508.758    27135.216     2775.007        7.103        2.871      290.625       58.707        0.041      346.131       24.155      858.477
05/31/2014  14:05:00     -152.937     -225.058       -2.448      125.163      122.243       66.288    15665.700    14943.235     4394.165        5.452        1.750      272.105       53.147        0.038      346.074       24.056      858.494
05/31/2014  14:06:00      -29.849      -11.155        3.007       62.213       48.138       50.630     3870.442     2317.276     2563.375        0.489        0.438       31.865       36.619        1.321      346.376       24.580      858.436
05/31/2014  14:07:00      -64.221      -89.153        5.803       74.479      135.273       41.507     5547.083    18298.810     1722.828        1.883        1.278      109.875       35.877        0.107      346.512       24.812      858.435
05/31/2014  14:08:00     -234.369     -246.861      -11.536      128.791      140.123       70.891    16587.010    19634.520     5025.477        7.862        2.062      340.395       72.753        0.046      346.078       24.064      858.458
05/31/2014  14:09:00      -62.014      -26.896       15.031       91.079       62.569       50.901     8295.321     3914.828     2590.962        0.980        0.740       67.596       40.867        0.366      346.338       24.514      858.431
05/31/2014  14:10:00      -34.149      -44.941        8.066       46.412       61.607       40.306     2154.032     3795.381     1624.542        0.541        0.379       56.444       37.167        0.434      346.784       25.281      858.411
05/31/2014  14:11:00        6.276       47.261       60.018       68.113       40.760       35.584     4639.440     1661.353     1266.192        0.672        0.378       47.676       21.076        0.195      346.673       25.090      858.413
05/31/2014  14:12:00      -58.607      -79.904      -14.458       83.070       88.462       42.517     6900.684     7825.554     1807.708        1.328        0.827       99.093       23.794        0.058      346.110       24.121      858.406
05/31/2014  14:13:00      -47.874      -83.369        0.109      130.219       76.181       44.915    16957.070     5803.559     2017.349        1.701        1.239       96.137       37.760        0.154      346.490       24.775      858.408
05/31/2014  14:14:00     -146.471       55.052        6.851      162.106       57.508       46.512    26278.265     3307.191     2163.375        2.813        1.587      156.475       70.784        0.205      346.281       24.414      858.374
05/31/2014  14:15:00     -217.680     -223.720       -4.931      103.945      181.770       62.584    10804.568    33040.373     3916.751        7.260        2.388      312.146       58.212        0.035      346.242       24.345      858.412
05/31/2014  14:16:00     -338.668     -202.980       -9.895      188.520      152.869       84.087    35539.963    23368.919     7070.660       11.097        3.299      394.838       89.134        0.051      345.963       23.866      858.378
05/31/2014  14:17:00     -201.050      -99.100       25.095      243.885      159.961       87.680    59479.993    25587.531     7687.763        7.179        4.638      224.147      114.011        0.259      346.394       24.609      858.378
05/31/2014  14:18:00     -178.813      -91.159       -6.010      132.743      216.712       64.684    17620.793    46964.050     4183.959        5.453        3.438      200.709       50.312        0.063      346.285       24.419      858.361
05/31/2014  14:19:00     -263.609     -179.246        9.006      166.258      126.254       74.087    27641.790    15940.149     5488.920        7.538        2.454      318.777       77.774        0.060      346.177       24.234      858.351
05/31/2014  14:20:00     -351.051     -184.543       -1.132      151.424      128.513       86.634    22929.105    16515.579     7505.418       10.211        2.348      396.601       81.189        0.042      346.012       23.951      858.361
05/31/2014  14:21:00     -298.899     -202.572      -11.223      146.810      167.499       73.078    21553.227    28055.797     5340.348        9.271        2.747      361.076       68.497        0.036      345.966       23.871      858.359
05/31/2014  14:22:00     -289.036     -112.767       -9.062      131.942       97.873       65.260    17408.805     9579.067     4258.862        6.379        1.562      310.256       60.483        0.038      346.327       24.491      858.360
05/31/2014  14:23:00     -158.886      -67.241       14.175      136.637      108.506       63.383    18669.611    11773.508     4017.376        3.221        1.723      172.528       67.250        0.152      346.179       24.239      858.364
05/31/2014  14:24:00      -52.902        1.738        5.642       92.948       55.544       43.904     8639.340     3085.179     1927.524        0.824        0.683       52.931       39.652        0.561      346.304       24.454      858.336
05/31/2014  14:25:00     -177.294      -25.976       -2.691      104.225       76.358       46.539    10862.820     5830.484     2165.864        2.548        0.943      179.187       47.756        0.071      346.470       24.738      858.362
05/31/2014  14:26:00     -219.253     -160.058        8.832      133.825      112.461       60.264    17909.209    12647.472     3631.693        5.397        1.709      271.460       66.580        0.060      346.422       24.654      858.368
05/31/2014  14:27:00     -130.931     -196.025        7.373       93.163      180.950       48.661     8679.330    32742.960     2367.885        4.970        2.190      235.730       34.395        0.021      346.415       24.643      858.335
05/31/2014  14:28:00      -59.910     -216.787       -5.549      120.911      126.991       55.777    14619.453    16126.706     3111.062        4.223        1.693      224.913       57.607        0.066      346.451       24.706      858.325
05/31/2014  14:29:00     -134.243      -83.888       15.594      128.495       61.342       50.496    16511.017     3762.802     2549.880        2.406        1.141      158.298       60.632        0.147      346.338       24.514      858.313
05/31/2014  14:30:00     -109.938     -114.006       16.574      130.920      103.691       50.410    17139.983    10751.789     2541.181        2.789        1.522      158.378       41.099        0.067      346.337       24.510      858.320
05/31/2014  14:31:00     -195.775     -243.262      -19.995      137.973      109.661       57.951    19036.652    12025.549     3358.335        6.616        1.721      312.257       50.744        0.026      345.934       23.814      858.339
05/31/2014  14:32:00     -178.527     -290.659      -16.274      197.321      165.510       77.851    38935.680    27393.601     6060.758        9.449        3.620      341.108       69.594        0.042      346.081       24.069      858.300
05/31/2014  14:33:00     -176.894     -179.338      -15.428       95.396      109.540       48.933     9100.327    11999.014     2394.461        4.359        1.175      251.900       39.351        0.024      346.056       24.026      858.281
05/31/2014  14:34:00     -113.570      -76.267       10.416      108.568      127.063       68.168    11786.943    16144.962     4646.927        2.569        1.629      136.802       78.762        0.331      346.660       25.067      858.300
05/31/2014  14:35:00     -213.771     -142.630       -0.679      207.076      101.592       68.000    42880.346    10320.889     4624.010        6.192        2.891      256.985       88.609        0.119      346.551       24.879      858.324
05/31/2014  14:36:00     -196.931     -104.436        9.295      170.068       98.416       75.450    28923.241     9685.768     5692.636        4.703        2.215      222.910       93.055        0.174      346.426       24.662      858.314
05/31/2014  14:37:00     -298.100     -182.642       -5.795      175.881      146.635       75.502    30933.981    21501.725     5700.609        9.018        2.907      349.602       85.547        0.060      346.354       24.538      858.295
05/31/2014  14:38:00     -245.421      -92.860       -4.916      178.445      110.473       69.917    31842.532    12204.355     4888.345        5.890        2.447      262.401       73.821        0.079      346.523       24.828      858.296
05/31/2014  14:39:00     -432.968     -204.994       13.952      285.411      255.040      116.460    81459.283    65045.615    13562.932       19.484        8.003      479.045      108.129        0.051      346.346       24.523      858.244
05/31/2014  14:40:00     -549.092     -302.222      -23.675      221.826      194.488      100.095    49206.825    37825.771    10019.093       24.521        4.853      626.770       84.655        0.018      346.259       24.375      858.266
05/31/2014  14:41:00     -334.780     -334.381       -3.991      224.618      169.749       99.330    50453.406    28814.673     9866.365       15.650        4.457      473.169      104.001        0.048      346.046       24.008      858.340
05/31/2014  14:42:00     -268.713      -81.651       -2.883      181.984      148.050       69.164    33118.033    21918.936     4783.702        6.934        2.991      280.844       74.857        0.071      346.357       24.544      858.349
05/31/2014  14:43:00     -462.779     -115.194      -24.362      202.173      142.980       89.683    40874.107    20443.399     8043.045       14.868        3.468      476.900       91.555        0.037      346.230       24.326      858.374
05/31/2014  14:44:00     -354.199      -51.004        4.691      215.332      129.293       80.974    46367.930    16716.583     6556.729        9.885        3.482      357.852       94.231        0.069      346.291       24.429      858.359
05/31/2014  14:45:00     -303.742     -158.208       -9.642      159.482      102.603       62.894    25434.569    10527.320     3955.682        7.864        1.996      342.474       58.641        0.029      346.232       24.329      858.391
05/31/2014  14:46:00     -309.120     -168.139       18.391      230.448      130.967       79.661    53106.441    17152.317     6345.926       10.037        3.830      351.889       95.508        0.074      346.170       24.222      858.400
05/31/2014  14:47:00     -396.458     -194.079      -21.175      192.780      130.820       72.809    37164.278    17113.921     5301.142       12.742        2.979      441.413       73.672        0.028      345.848       23.668      858.389
05/31/2014  14:48:00      -59.120      -33.784       18.581      109.650       59.406       55.650    12023.021     3529.081     3096.962        1.181        0.932       68.092       74.282        1.190      346.226       24.320      858.335
05/31/2014  14:49:00       -5.193        5.703       18.155       45.536       34.492       26.374     2073.532     1189.702      695.576        0.217        0.198        7.713       17.296        5.028      346.679       25.099      858.260
05/31/2014  14:50:00     -139.417     -178.124        2.218      169.334      107.861       60.394    28673.902    11634.008     3647.396        4.755        2.198      226.197       70.993        0.099      346.216       24.300      858.344
05/31/2014  14:51:00     -179.957     -198.451        9.123      195.187      135.876       75.617    38098.072    18462.420     5717.936        6.705        3.114      267.894       88.183        0.108      346.280       24.411      858.317
05/31/2014  14:52:00     -248.907     -223.204        1.298      168.975      162.532       70.925    28552.549    26416.490     5030.377        8.588        3.000      334.327       72.751        0.047      346.455       24.712      858.351
05/31/2014  14:53:00      -52.373     -254.779      -34.373      124.279      190.663       53.550    15445.296    36352.302     2867.627        6.174        2.733      260.107       46.305        0.032      346.167       24.216      858.354
05/31/2014  14:54:00      -49.698     -168.702      -19.066      100.328       73.926       42.559    10065.629     5465.081     1811.311        2.431        0.867      175.870       27.851        0.025      346.306       24.456      858.304
05/31/2014  14:55:00     -133.900     -101.129       19.635      143.119      102.495       62.154    20482.978    10505.240     3863.135        3.169        1.743      167.798       62.793        0.140      346.619       24.996      858.347
05/31/2014  14:56:00     -356.016     -146.932        4.689      262.099      161.694       90.819    68695.721    26145.073     8248.160       12.570        5.154      385.145      118.073        0.094      346.186       24.250      858.405
05/31/2014  14:57:00     -260.373     -128.505      -18.350      213.144      182.338       77.074    45430.487    33247.135     5940.440        8.461        4.231      290.358       57.110        0.039      345.884       23.730      858.371
05/31/2014  14:58:00     -212.578     -219.771        7.594      188.001      168.957       88.436    35344.200    28546.437     7820.853        8.261        3.586      305.759       91.309        0.089      346.080       24.066      858.343
05/31/2014  14:59:00     -157.072     -273.741       -4.652      137.359      160.108       62.291    18867.390    25634.551     3880.139        7.399        2.419      315.603       57.056        0.033      346.105       24.109      858.358
05/31/2014  15:00:00     -174.182     -184.503       -3.436      156.929      132.796       58.490    24626.751    17634.647     3421.085        5.503        2.284      253.734       58.084        0.052      346.307       24.457      858.313
05/31/2014  15:01:00     -148.747     -171.649       -1.631      109.154      140.419       53.814    11914.671    19717.532     2895.924        4.305        1.726      227.133       56.557        0.062      346.236       24.335      858.293
05/31/2014  15:02:00     -152.325     -215.188       -9.865       99.123       92.667       45.936     9825.305     8587.120     2110.132        4.506        1.026      263.645       45.085        0.029      346.064       24.039      858.301
05/31/2014  15:03:00     -104.237     -184.787        4.134      181.451      100.073       67.755    32924.395    10014.554     4590.706        4.627        2.376      212.159       36.935        0.030      346.456       24.714      858.281
05/31/2014  15:04:00     -302.366     -247.534       -1.888      221.093      140.793       81.292    48882.307    19822.611     6608.342       11.399        3.766      390.767       72.524        0.034      346.057       24.028      858.282
05/31/2014  15:05:00     -473.624      -74.183      -12.743      171.943      153.615       81.510    29564.380    23597.686     6643.915       14.488        2.990      479.398       81.479        0.029      345.874       23.714      858.239
05/31/2014  15:06:00     -446.150     -111.448      -11.314      136.022      128.920       69.553    18501.852    16620.281     4837.630       12.577        1.998      459.859       72.309        0.025      345.899       23.756      858.252
05/31/2014  15:07:00     -296.911     -112.736      -12.276      113.216      122.101       63.831    12817.947    14908.600     4074.380        6.640        1.590      317.594       64.489        0.041      346.115       24.127      858.280
05/31/2014  15:08:00     -262.211      -78.794      -10.227      147.111      128.641       73.241    21641.770    16548.526     5364.270        5.930        2.178      273.794       76.351        0.078      346.331       24.498      858.292
05/31/2014  15:09:00     -258.211      -44.334      -28.157       96.668      106.731       45.946     9344.664    11391.468     2111.014        4.613        1.142      261.989       35.063        0.018      346.299       24.445      858.297
05/31/2014  15:10:00     -496.424      -77.121      -15.107      258.622      152.550       96.778    66885.579    23271.394     9366.072       17.605        4.976      502.379      117.401        0.055      346.496       24.783      858.246
05/31/2014  15:11:00     -424.682     -145.547       -6.517      147.808      142.732       77.202    21847.340    20372.316     5960.108       12.487        2.409      448.931       60.227        0.018      346.364       24.555      858.260
05/31/2014  15:12:00     -266.359     -124.238       -0.128      251.351      113.155       65.358    63177.387    12803.954     4271.703        8.330        4.013      293.908      104.242        0.126      346.408       24.630      858.262
05/31/2014  15:13:00     -283.263      -53.902      -12.106      188.712      119.030       87.545    35612.109    14168.048     7664.164        7.036        2.872      288.346       91.208        0.100      346.394       24.607      858.273
05/31/2014  15:14:00     -355.564      -87.346        6.243      199.836      157.330       77.358    39934.359    24752.793     5984.221       10.237        3.534      366.135       90.750        0.061      346.367       24.560      858.260
05/31/2014  15:15:00     -483.627     -190.490      -12.561      182.906      161.762       93.844    33454.675    26166.892     8806.728       16.937        3.421      519.790       82.247        0.025      346.367       24.560      858.250
05/31/2014  15:16:00     -419.709     -141.641      -10.792      242.003      145.588       77.447    58565.617    21195.886     5997.974       14.103        4.288      442.965       88.646        0.040      346.077       24.062      858.277
05/31/2014  15:17:00     -332.183       35.907      -12.607      138.157      133.410       70.241    19087.457    17798.156     4933.747        7.680        2.091      334.118       78.556        0.055      346.334       24.504      858.310
05/31/2014  15:18:00     -229.161     -107.509      -13.410      149.782      144.814       77.195    22434.725    20971.177     5959.028        5.680        2.468      253.127       83.874        0.110      346.497       24.785      858.268
05/31/2014  15:19:00     -293.594       -0.905      -14.498      180.116      118.745       69.675    32441.688    14100.260     4854.660        6.889        2.570      293.595       79.867        0.074      346.440       24.687      858.279
05/31/2014  15:20:00     -374.272      -96.962       -4.022      140.962      154.847       74.328    19870.305    23977.741     5524.586        9.943        2.469      386.628       60.657        0.025      346.527       24.835      858.268
05/31/2014  15:21:00     -312.821     -179.679       12.684      208.052      141.038       93.212    43285.430    19891.593     8688.419       10.107        3.593      360.751      111.541        0.096      346.278       24.408      858.280
05/31/2014  15:22:00     -142.376      -65.236       18.516      128.238      110.230       57.493    16444.944    12150.703     3305.414        2.838        1.595      156.610       63.230        0.163      346.621       24.999      858.266
05/31/2014  15:23:00     -248.552     -141.673       -4.086       79.868       77.082       49.205     6378.905     5941.600     2421.174        4.830        0.737      286.093       42.066        0.022      346.534       24.845      858.277
05/31/2014  15:24:00     -373.378     -279.847      -11.932      183.324      150.762       85.221    33607.836    22729.203     7262.644       14.072        3.180      466.610       97.128        0.043      346.404       24.625      858.243
05/31/2014  15:25:00     -393.311     -132.613       -4.509      243.002      146.681       87.086    59049.990    21515.367     7583.914       13.021        4.407      415.066       97.497        0.055      346.543       24.862      858.256
05/31/2014  15:26:00     -541.458      -60.316      -51.676      166.103      190.346       85.032    27590.202    36231.708     7230.486       18.525        3.553      544.807       88.802        0.027      346.265       24.385      858.306
05/31/2014  15:27:00     -290.935      -75.623       -4.389      155.819      129.805       75.728    24279.681    16849.220     5734.706        6.861        2.343      300.603       85.497        0.081      346.544       24.864      858.297
05/31/2014  15:28:00     -263.890      -70.564       10.414      194.152      124.816       86.755    37694.878    15579.071     7526.501        6.775        3.040      273.161       93.015        0.116      346.629       25.011      858.305
05/31/2014  15:29:00     -478.938     -123.974      -19.301      151.169      128.297       73.354    22851.990    16460.062     5380.849       14.490        2.235      494.724       83.383        0.028      346.359       24.548      858.310
05/31/2014  15:30:00     -372.520       12.900      -27.930      186.168      115.173       76.181    34658.419    13264.891     5803.564        9.671        2.686      372.743       92.388        0.061      346.389       24.597      858.307
05/31/2014  15:31:00     -256.254      -80.173       -4.578      176.569      148.144       77.343    31176.577    21946.736     5981.914        6.560        2.955      268.503       91.198        0.115      346.430       24.669      858.297
05/31/2014  15:32:00     -201.179     -176.414        3.122      124.110      105.910       61.900    15403.338    11216.827     3831.643        5.102        1.523      267.573       60.410        0.051      346.171       24.223      858.302
05/31/2014  15:33:00     -203.267     -110.959      -13.894      116.462       89.155       61.133    13563.380     7948.688     3737.263        3.953        1.262      231.580       60.415        0.068      346.381       24.583      858.324
05/31/2014  15:34:00     -141.452      -13.774      -13.931      134.842      151.367       56.695    18182.476    22911.846     3214.282        3.234        2.215      142.121       54.865        0.149      346.593       24.950      858.310
05/31/2014  15:35:00     -160.867        9.787       -6.847      116.368       88.594       46.005    13541.483     7848.950     2116.493        2.476        1.175      161.165       49.627        0.095      346.662       25.070      858.278
05/31/2014  15:36:00     -279.569      -65.514       -5.727      139.053      148.878       81.141    19335.641    22164.547     6583.924        6.527        2.404      287.142       71.454        0.062      346.785       25.280      858.283
05/31/2014  15:37:00     -404.740     -120.189      -19.749      192.595      168.735       75.555    37092.965    28471.582     5708.515       12.495        3.564      422.208       73.327        0.030      346.396       24.610      858.332
05/31/2014  15:38:00     -195.921      -40.809        1.264      183.388      112.938       68.584    33631.147    12754.978     4703.715        4.556        2.554      200.126       76.662        0.147      346.659       25.063      858.342
05/31/2014  15:39:00     -126.220     -139.624       26.391      157.377      150.540       97.254    24767.524    22662.381     9458.372        4.649        2.844      188.219      107.334        0.325      346.423       24.658      858.313
05/31/2014  15:40:00     -310.298     -121.280      -23.741      170.827      114.384       73.830    29181.924    13083.767     5450.906        7.963        2.386      333.157       62.665        0.035      346.513       24.812      858.308
05/31/2014  15:41:00     -406.363      -79.065      -13.651      238.055      136.770       87.087    56669.961    18706.077     7584.213       12.725        4.148      413.984      107.026        0.067      346.479       24.753      858.332
05/31/2014  15:42:00     -608.207     -181.956      -20.825      172.526      165.657       83.073    29765.069    27442.239     6901.045       23.377        3.205      634.841       84.288        0.018      346.159       24.203      858.329
05/31/2014  15:43:00     -223.613     -196.517      -10.408      233.449      109.664       75.985    54498.561    12026.173     5773.761        8.050        3.615      297.694      107.518        0.130      345.820       23.621      858.339
05/31/2014  15:44:00     -154.283       11.010        1.881      107.363      133.200       54.109    11526.860    17742.152     2927.811        2.806        1.610      154.675       55.891        0.131      346.381       24.585      858.305
05/31/2014  15:45:00     -155.258       12.662      -19.021      115.400      134.185       61.979    13317.127    18005.630     3841.364        2.989        1.758      155.773       47.405        0.093      346.492       24.775      858.292
05/31/2014  15:46:00     -154.144       -7.114       -6.578      106.495      135.451       60.357    11341.119    18346.878     3642.913        2.859        1.667      154.308       54.360        0.124      346.435       24.678      858.289
05/31/2014  15:47:00     -144.854      -37.045       -9.271      105.617      101.820       58.331    11154.848    10367.274     3402.477        2.368        1.246      149.516       55.467        0.138      346.295       24.437      858.295
05/31/2014  15:48:00     -209.976     -119.328       -0.067      172.661      122.220       74.849    29811.820    14937.827     5602.299        5.433        2.518      241.515       64.413        0.071      346.456       24.713      858.300
05/31/2014  15:49:00      -50.912      -76.352       12.705      101.797       74.473       54.188    10362.666     5546.251     2936.366        1.371        0.942       91.770       49.963        0.296      346.373       24.572      858.328
05/31/2014  15:50:00     -126.176     -105.013      -16.562       84.332       41.362       33.999     7111.915     1710.787     1155.901        1.860        0.499      164.158       35.056        0.046      346.487       24.770      858.299
05/31/2014  15:51:00     -287.220     -154.138       -8.193      212.595      151.742       79.853    45196.441    23025.537     6376.578        9.044        3.730      325.966       90.506        0.077      346.386       24.594      858.289
05/31/2014  15:52:00     -561.639     -143.155      -30.931      166.224      148.550       79.625    27630.508    22067.025     6340.158       19.645        2.802      579.596       67.111        0.013      346.153       24.190      858.281
05/31/2014  15:53:00     -385.305      -48.555       -4.572      155.570      150.048       83.583    24202.174    22514.508     6986.092       10.226        2.685      388.352       84.217        0.047      346.535       24.849      858.237
05/31/2014  15:54:00     -360.645     -144.382       -5.840      191.789      139.937       83.629    36782.833    19582.337     6993.872       10.714        3.168      388.472       85.834        0.049      346.336       24.506      858.291
05/31/2014  15:55:00     -338.657     -176.925       -1.031      215.979      167.606       85.462    46647.090    28091.853     7303.817       11.400        4.102      382.087      102.865        0.072      346.301       24.447      858.279
05/31/2014  15:56:00     -522.286     -413.391        1.158      230.286      203.078      119.619    53031.722    41240.811    14308.811       27.611        5.429      666.090      134.025        0.040      345.930       23.810      858.261
05/31/2014  15:57:00     -219.912      -70.094       -4.455      232.796      155.777       82.552    54193.781    24266.626     6814.913        6.927        4.264      230.813      102.309        0.196      346.518       24.821      858.307
05/31/2014  15:58:00     -242.774      -88.940      -13.508       99.378       87.367       49.623     9875.911     7633.001     2462.429        4.350        0.999      258.553       46.216        0.032      346.212       24.294      858.332
05/31/2014  15:59:00     -216.299      -52.668      -10.531      101.319      113.175       49.373    10265.578    12808.468     2437.676        3.759        1.276      222.619       42.607        0.037      346.275       24.401      858.322
05/31/2014  16:00:00     -279.980      -32.865      -30.668      145.586       94.756       57.950    21195.215     8978.637     3358.201        5.696        1.677      281.902       71.850        0.065      346.382       24.586      858.333
05/31/2014  16:01:00     -386.653     -126.674       -6.552      204.718      123.145       80.791    41909.294    15164.694     6527.233       11.458        3.180      406.875      102.869        0.064      346.173       24.227      858.343
05/31/2014  16:02:00     -275.787     -110.799      -29.681      145.596      103.772       53.238    21198.192    10768.537     2834.302        6.200        1.740      297.212       65.468        0.049      346.094       24.090      858.310
05/31/2014  16:03:00      -88.336      -54.726        9.474      125.764      104.118       64.459    15816.476    10840.527     4154.949        2.084        1.541      103.914       70.924        0.466      346.565       24.903      858.281
05/31/2014  16:04:00     -325.403     -129.852      -23.054      246.913      163.769       86.192    60966.090    26820.407     7429.022       10.923        4.761      350.355       98.233        0.079      346.396       24.611      858.260
05/31/2014  16:05:00     -292.259     -122.012        9.335      260.175      162.525      116.910    67690.827    26414.351    13667.984       10.406        5.389      316.705      133.547        0.178      346.522       24.828      858.233
05/31/2014  16:06:00     -369.488       -9.469      -18.572      145.281      124.986       65.116    21106.436    15621.427     4240.081        8.895        2.048      369.609       66.665        0.033      346.588       24.940      858.319
05/31/2014  16:07:00     -225.693       64.325      -11.738      128.883       97.830       64.890    16610.892     9570.678     4210.720        4.280        1.520      234.681       71.121        0.092      346.572       24.912      858.306
05/31/2014  16:08:00     -217.038      -64.013      -10.887      150.100      107.939       61.520    22529.889    11650.860     3784.723        4.464        1.898      226.281       58.693        0.067      346.689       25.113      858.291
05/31/2014  16:09:00     -397.358     -195.715      -12.875      155.198      143.224       81.175    24086.471    20513.114     6589.312       12.377        2.559      442.942       88.881        0.040      346.373       24.570      858.294
05/31/2014  16:10:00     -240.540     -110.994       -6.928      131.610      117.965       62.110    17321.323    13915.770     3857.710        5.265        1.755      264.913       54.447        0.042      346.405       24.625      858.310
05/31/2014  16:11:00     -369.227       -7.471      -19.089      150.518       95.723       67.192    22655.643     9162.851     4514.832        8.653        1.817      369.303       71.943        0.038      346.246       24.350      858.300
05/31/2014  16:12:00     -260.849      -96.065       -0.826      119.791       83.593       51.777    14349.983     6987.795     2680.846        5.064        1.201      277.976       54.909        0.039      346.207       24.287      858.277
05/31/2014  16:13:00     -133.884     -155.922        9.787      147.889      166.434       62.543    21871.145    27700.168     3911.587        4.790        2.674      205.515       68.791        0.112      346.245       24.352      858.276
05/31/2014  16:14:00     -291.611     -291.014        6.433      194.816      120.973       69.553    37953.354    14634.527     4837.598       11.358        2.871      411.978       87.178        0.045      346.171       24.224      858.267
05/31/2014  16:15:00     -274.941     -182.706        1.233      146.440      116.321       72.744    21444.766    13530.616     5291.654        7.461        2.013      330.112       81.691        0.061      345.967       23.873      858.279
05/31/2014  16:16:00     -175.944     -164.192        9.281      142.302      130.764       78.228    20249.813    17099.140     6119.618        5.073        2.173      240.656       74.612        0.096      346.128       24.149      858.248
05/31/2014  16:17:00     -219.622      -85.036       -3.086      105.167       91.894       46.241    11060.124     8444.583     2138.233        3.855        1.082      235.510       41.514        0.031      346.395       24.608      858.240
05/31/2014  16:18:00     -428.455     -255.926       -6.532      231.120      205.308       97.066    53416.435    42151.233     9421.887       17.703        5.249      499.071      109.894        0.048      346.280       24.411      858.252
05/31/2014  16:19:00     -253.780     -171.961        6.106      180.750      150.719       92.606    32670.726    22716.134     8575.870        7.897        3.198      306.553      100.372        0.107      346.458       24.717      858.250
05/31/2014  16:20:00     -434.789      -57.081      -28.389      237.593      147.491       88.194    56450.458    21753.534     7778.111       13.953        4.299      438.520       91.773        0.044      346.195       24.264      858.268
05/31/2014  16:21:00     -271.260     -104.161        6.459      205.111      121.560       68.498    42070.411    14776.801     4691.972        7.299        3.077      290.572       89.980        0.096      346.174       24.228      858.258
05/31/2014  16:22:00     -386.705      -57.687      -18.105      256.782      144.939       77.359    65936.799    21007.229     5984.442       12.304        4.646      390.984       65.136        0.028      346.405       24.626      858.239
05/31/2014  16:23:00     -545.150      -79.966      -19.107      173.880      140.154       89.289    30234.146    19643.041     7972.524       18.089        2.892      550.984      100.747        0.033      346.100       24.102      858.244
05/31/2014  16:24:00     -377.171      -27.083      -20.112      172.350      153.865       67.433    29704.380    23674.463     4547.174       10.065        2.896      378.142       78.063        0.043      346.271       24.396      858.248
05/31/2014  16:25:00     -361.432      -48.603      -19.750      179.594      147.246       70.140    32254.084    21681.456     4919.618        9.611        2.943      364.685       81.589        0.050      346.477       24.749      858.254
05/31/2014  16:26:00     -187.339       18.344       -3.043      161.327      109.379       60.594    26026.557    11963.799     3671.680        3.854        2.083      188.235       69.602        0.137      346.725       25.176      858.265
05/31/2014  16:27:00     -251.343       19.052       -7.089      122.380      113.837       55.817    14976.807    12958.817     3115.569        4.731        1.553      252.064       46.879        0.035      346.873       25.431      858.263
05/31/2014  16:28:00     -356.848      -20.293      -14.845      187.351      132.795       82.576    35100.448    17634.508     6818.850        9.375        2.978      357.424       98.752        0.076      346.621       24.998      858.283
05/31/2014  16:29:00     -378.588      -98.725      -25.932      147.327      151.021       86.211    21705.158    22807.279     7432.281       10.284        2.597      391.249       91.196        0.054      346.224       24.314      858.306
05/31/2014  16:30:00     -391.743      -43.723       -4.100      169.413      117.356       77.407    28700.623    13772.358     5991.865       10.192        2.423      394.175       88.758        0.051      346.357       24.543      858.298
05/31/2014  16:31:00     -375.431      -12.140      -28.216      200.047      104.517       56.195    40018.604    10923.868     3157.914        9.799        2.705      375.627       80.186        0.046      346.138       24.167      858.306
05/31/2014  16:32:00     -236.271      -65.604       -6.688      123.965      108.985       62.676    15367.271    11877.647     3928.219        4.567        1.559      245.209       58.318        0.057      346.272       24.397      858.269
05/31/2014  16:33:00     -337.126      -62.112      -19.222      122.904       92.065       52.205    15105.389     8476.011     2725.328        7.209        1.315      342.800       53.981        0.025      346.238       24.338      858.226
05/31/2014  16:34:00     -378.248      -65.203      -24.754      140.775      134.650       62.154    19817.562    18130.588     3863.143        9.487        2.091      383.827       59.715        0.024      346.167       24.215      858.173
05/31/2014  16:35:00     -405.048     -183.809        2.623      290.423      141.232       78.177    84345.378    19946.358     6111.570       15.411        5.520      444.802      106.324        0.057      346.324       24.485      858.146
05/31/2014  16:36:00     -198.022     -153.117       21.117      169.326      127.001       69.828    28671.377    16129.195     4876.001        5.638        2.484      250.315       72.477        0.084      346.648       25.045      858.194
05/31/2014  16:37:00     -304.864     -191.453        7.508      208.920      158.737       81.985    43647.646    25197.426     6721.480       10.259        3.778      359.995       87.728        0.059      346.225       24.316      858.211
05/31/2014  16:38:00     -169.343     -191.457        3.132      161.367      124.444       76.637    26039.445    15486.374     5873.178        5.636        2.370      255.603       79.510        0.097      346.364       24.556      858.175
05/31/2014  16:39:00     -431.972     -261.338      -13.621      192.624      124.623       77.365    37104.108    15530.917     5985.377       15.684        2.931      504.874       80.967        0.026      346.313       24.467      858.222
05/31/2014  16:40:00     -424.811     -246.194      -20.340      159.980      112.450       74.237    25593.604    12645.108     5511.075       14.261        2.187      490.995       76.168        0.024      346.254       24.365      858.219
05/31/2014  16:41:00     -450.245     -133.752      -22.299      194.036      147.798       88.638    37650.085    21844.306     7856.708       14.422        3.368      469.691       66.048        0.020      346.252       24.363      858.224
05/31/2014  16:42:00     -535.713     -153.712       -8.861      201.542      186.627       90.216    40619.022    34829.516     8138.883       19.712        4.179      557.329       94.570        0.029      346.226       24.319      858.236
05/31/2014  16:43:00     -450.415     -121.464      -18.439      156.845      123.638       77.643    24600.343    15286.464     6028.447       13.193        2.296      466.505       82.362        0.031      346.031       23.983      858.265
05/31/2014  16:44:00     -264.720     -148.434        4.270      175.401      145.973       67.030    30765.582    21308.091     4492.982        7.434        2.828      303.496       87.474        0.083      346.316       24.475      858.259
05/31/2014  16:45:00      -55.808     -104.756       14.358      102.586       85.543       52.503    10523.818     7317.656     2756.573        1.744        1.030      118.694       59.311        0.250      346.566       24.904      858.241
05/31/2014  16:46:00     -170.636     -118.760        9.867      132.734      104.959       64.774    17618.290    11016.439     4195.691        3.807        1.642      207.896       69.396        0.111      346.382       24.586      858.205
05/31/2014  16:47:00     -249.224     -184.500       -8.802      177.028      109.166       62.828    31338.989    11917.117     3947.392        7.171        2.360      310.085       86.713        0.078      346.261       24.378      858.229
05/31/2014  16:48:00     -534.348     -178.732      -25.416      228.084      176.495       77.785    52022.122    31150.656     6050.512       20.365        4.461      563.447       82.396        0.021      346.157       24.199      858.225
05/31/2014  16:49:00     -424.052     -238.809      -19.110      185.896      166.668       76.986    34557.431    27778.325     5926.788       15.273        3.413      486.672       89.082        0.034      346.126       24.147      858.262
05/31/2014  16:50:00     -421.786     -338.182        2.194      199.182      164.113      100.167    39673.522    26932.951    10033.478       18.444        3.832      540.620      101.132        0.035      346.023       23.969      858.241
05/31/2014  16:51:00     -431.194     -274.553      -23.311      139.292      117.169       74.997    19402.267    13728.587     5624.490       15.030        1.938      511.182       76.441        0.022      346.109       24.117      858.235
05/31/2014  16:52:00     -199.481     -147.050       -6.958      115.424       92.306       57.874    13322.784     8520.309     3349.350        4.332        1.260      247.823       53.330        0.046      346.251       24.361      858.246
05/31/2014  16:53:00     -122.333     -116.430        8.166      128.900      105.358       60.959    16615.113    11100.358     3715.945        3.000        1.572      168.882       40.538        0.058      346.272       24.398      858.233
05/31/2014  16:54:00     -248.384     -102.382      -10.565      193.346       87.750       69.816    37382.777     7700.083     4874.226        6.111        2.498      268.657       86.831        0.104      346.350       24.531      858.245
05/31/2014  16:55:00     -374.786     -245.913      -26.019      238.544      177.525       98.509    56903.052    31515.118     9703.932       14.985        4.906      448.261      114.714        0.065      346.359       24.546      858.284
05/31/2014  16:56:00     -360.229     -170.296        5.230      180.226      144.262       72.485    32481.541    20811.525     5254.014       10.866        2.927      398.454       57.638        0.021      346.311       24.463      858.305
05/31/2014  16:57:00     -324.973     -264.899       -9.109      220.226      175.602       88.586    48499.677    30836.065     7847.537       13.151        4.359      419.260      112.013        0.071      346.191       24.257      858.299
05/31/2014  16:58:00     -318.473     -274.371      -13.295      181.922      125.790       90.879    33095.703    15823.234     8259.001       11.702        2.859      420.362       89.564        0.045      346.098       24.099      858.307
05/31/2014  16:59:00     -338.289     -269.753        7.168      177.864      130.167       87.344    31635.710    16943.477     7628.920       12.172        2.810      432.673       93.451        0.047      345.958       23.857      858.301
05/31/2014  17:00:00     -443.938     -255.831      -25.254      176.615      138.900       86.902    31192.782    19293.203     7551.941       16.059        2.902      512.377       78.070        0.023      345.944       23.834      858.304
05/31/2014  17:01:00     -279.159     -233.850        9.853      181.136      158.350       91.469    32810.355    25074.787     8366.585        9.947        3.313      364.164       92.568        0.065      346.088       24.080      858.316
05/31/2014  17:02:00     -320.321     -241.226       -6.501      186.147      163.361       99.650    34650.556    26686.887     9930.182       11.604        3.563      400.993      107.499        0.072      346.167       24.217      858.332
05/31/2014  17:03:00     -219.329     -209.089      -23.051      196.465      148.922      112.687    38598.386    22177.761    12698.283        8.290        3.674      303.024      121.369        0.160      346.076       24.061      858.361
05/31/2014  17:04:00     -322.450     -240.905      -12.494      170.378      141.942       72.791    29028.727    20147.563     5298.556       10.831        2.724      402.504       86.837        0.047      345.987       23.906      858.380
05/31/2014  17:05:00     -211.740     -163.289        8.760      121.709      102.370       55.092    14813.084    10479.623     3035.146        4.995        1.416      267.389       57.132        0.046      345.950       23.844      858.368
05/31/2014  17:06:00     -358.805     -205.197       -7.404      202.501      138.739       81.215    41006.455    19248.589     6595.850       11.886        3.343      413.336       72.491        0.031      346.055       24.022      858.355
05/31/2014  17:07:00     -266.772     -212.017       12.198      194.553      143.376       76.949    37850.803    20556.561     5921.186        9.029        3.216      340.762       90.063        0.070      346.089       24.083      858.351
05/31/2014  17:08:00     -323.737     -151.946       -6.973      126.557      139.541       56.193    16016.627    19471.611     3157.708        8.329        1.932      357.622       59.541        0.028      346.128       24.150      858.370
05/31/2014  17:09:00     -158.482      -49.264       -8.380       90.964       62.500       42.200     8274.416     3906.249     1780.831        2.078        0.698      165.963       45.395        0.075      346.413       24.643      858.365
05/31/2014  17:10:00     -316.190      -44.713      -12.082      178.904      144.829       81.423    32006.481    20975.461     6629.781        8.085        2.981      319.336       82.226        0.066      346.409       24.633      858.346
05/31/2014  17:11:00     -329.610     -108.555       -5.685      220.115      160.201       91.941    48450.510    25664.295     8453.214       10.150        4.128      347.025      106.713        0.095      346.454       24.711      858.368
05/31/2014  17:12:00     -332.096     -118.770       -5.926      184.721      155.447       86.912    34121.989    24163.730     7553.698        9.512        3.292      352.695       96.508        0.075      346.344       24.520      858.401
05/31/2014  17:13:00     -268.954     -127.199        1.081      207.613      157.120       84.796    43103.149    24686.771     7190.324        8.173        3.749      297.516      102.334        0.118      346.146       24.181      858.423
05/31/2014  17:14:00     -286.340     -243.111        5.083      203.859      144.637      107.865    41558.536    20919.901    11634.808       10.760        3.706      375.624      126.775        0.114      346.140       24.169      858.402
05/31/2014  17:15:00     -318.896     -179.323        8.893      181.101      137.708       67.761    32797.586    18963.505     4591.613        9.513        2.818      365.857       84.063        0.053      346.133       24.158      858.417
05/31/2014  17:16:00     -315.228     -223.300       -5.640      158.410      121.727       82.943    25093.613    14817.411     6879.597        9.802        2.340      386.305       90.008        0.054      346.209       24.289      858.409
05/31/2014  17:17:00     -436.522      -60.828      -10.644      232.926      158.235       90.971    54254.587    25038.398     8275.657       14.095        4.378      440.739      111.777        0.064      346.135       24.161      858.410
05/31/2014  17:18:00     -494.255     -140.591      -20.813      215.860      158.634       81.651    46595.365    25164.636     6666.829       17.144        3.921      513.862       77.369        0.023      346.151       24.189      858.399
05/31/2014  17:19:00     -430.233     -199.021      -29.292      219.833      198.272       99.324    48326.551    39311.805     9865.355       16.152        4.875      474.036      105.167        0.049      346.192       24.259      858.407
05/31/2014  17:20:00     -333.107     -168.076       -6.818      207.126      177.036       95.345    42901.267    31341.802     9090.583       11.128        4.167      373.108      104.290        0.078      346.329       24.496      858.422
05/31/2014  17:21:00     -450.738     -123.866      -12.510      178.001      111.508       71.247    31684.522    12434.046     5076.138       13.392        2.460      467.448       74.235        0.025      346.078       24.065      858.447
05/31/2014  17:22:00     -324.627      -62.196      -14.053      136.776      101.068       58.138    18707.632    10214.676     3380.005        7.087        1.615      330.532       60.477        0.033      346.073       24.055      858.435
05/31/2014  17:23:00     -253.288      -77.341       -3.960      134.809      124.524       54.630    18173.470    15506.165     2984.474        5.340        1.833      264.832       65.434        0.061      345.864       23.697      858.423
05/31/2014  17:24:00     -236.485      -11.642      -16.631      123.237      120.158       47.829    15187.481    14437.944     2287.657        4.412        1.596      236.772       46.447        0.038      346.240       24.342      858.417
05/31/2014  17:25:00     -371.168     -133.735        2.345      220.306      140.468       81.199    48534.808    19731.152     6593.306       11.524        3.743      394.526      100.408        0.065      346.147       24.183      858.405
05/31/2014  17:26:00     -420.121     -171.284      -18.461      147.424      101.237       57.941    21733.769    10248.944     3357.207       12.075        1.767      453.696       44.997        0.010      346.096       24.093      858.420
05/31/2014  17:27:00     -265.859     -152.992       -4.538      144.223       90.564       63.405    20800.268     8201.791     4020.169        6.356        1.651      306.737       63.694        0.043      346.192       24.258      858.418
05/31/2014  17:28:00     -200.714     -106.595        9.841      144.382      135.915       73.461    20846.285    18472.918     5396.546        4.822        2.236      227.263       76.692        0.114      346.272       24.397      858.430
05/31/2014  17:29:00     -221.457       -7.343       30.632      191.054      156.897       75.062    36501.689    24616.516     5634.241        5.838        3.338      221.579      102.840        0.215      346.328       24.494      858.435
05/31/2014  17:30:00     -259.959      -18.984      -27.321      150.935       91.307       53.511    22781.342     8336.929     2863.402        5.133        1.699      260.651       62.266        0.057      346.165       24.213      858.420
05/31/2014  17:31:00     -405.732      -71.351      -21.540      146.551      137.655       62.169    21477.275    18948.915     3865.020       10.722        2.215      411.959       59.032        0.021      346.196       24.267      858.406
05/31/2014  17:32:00     -528.915      -85.625      -33.706      145.561      142.311       65.151    21187.900    20252.457     4244.589       16.694        2.284      535.801       61.017        0.013      346.061       24.033      858.383
05/31/2014  17:33:00     -500.978      -60.477      -27.762      169.668      171.257       80.191    28787.223    29328.977     6430.643       15.996        3.227      504.615       86.360        0.029      346.180       24.238      858.373
05/31/2014  17:34:00     -317.082      -25.243       -6.616      173.068      161.390       71.114    29952.607    26046.598     5057.175        8.113        3.053      318.086       78.634        0.061      346.313       24.468      858.405
05/31/2014  17:35:00      -60.465      -42.565       46.960      103.658      101.159       59.009    10744.884    10233.208     3482.078        1.606        1.223       73.945       53.912        0.532      346.516       24.818      858.403
05/31/2014  17:36:00     -255.825     -102.779      -17.800      147.532       96.168       66.871    21765.607     9248.240     4471.760        5.590        1.774      275.699       72.748        0.070      346.320       24.479      858.398
05/31/2014  17:37:00     -159.741     -109.843       11.992      124.597       97.008       64.669    15524.440     9410.595     4182.070        3.342        1.456      193.862       75.760        0.153      346.158       24.201      858.390
05/31/2014  17:38:00      -63.039      -82.810       17.355       83.277       93.989       44.451     6935.062     8833.927     1975.883        1.444        0.887      104.075       48.076        0.213      346.445       24.696      858.374
05/31/2014  17:39:00     -159.073       10.772       13.805      155.601       95.432       62.905    24211.640     9107.303     3957.011        3.144        1.864      159.437       76.794        0.232      346.428       24.666      858.387
05/31/2014  17:40:00     -294.299      -27.207      -20.626      159.059      139.861       66.319    25299.647    19561.115     4398.246        6.851        2.463      295.554       47.765        0.026      346.204       24.280      858.372
05/31/2014  17:41:00      -87.145     -149.277       13.383      143.897       88.186       56.866    20706.227     7776.703     3233.796        3.088        1.586      172.852       70.949        0.168      346.253       24.366      858.368
05/31/2014  17:42:00     -369.409     -108.270       -7.088      213.320      142.621       73.834    45505.380    20340.649     5451.474       10.975        3.565      384.948       83.574        0.047      346.320       24.480      858.362
05/31/2014  17:43:00     -509.806     -154.594      -12.606      171.663      130.205       72.298    29468.122    16953.393     5227.054       16.779        2.582      532.730       82.509        0.024      345.933       23.815      858.390
05/31/2014  17:44:00     -370.957     -124.432      -23.788      202.952      143.259       63.447    41189.671    20523.190     4025.574       10.969        3.287      391.271       67.125        0.029      346.061       24.034      858.401
05/31/2014  17:45:00     -210.359     -162.488        1.262      132.316      119.352       58.539    17507.438    14244.980     3426.797        5.291        1.759      265.807       56.525        0.045      346.071       24.052      858.377
05/31/2014  17:46:00     -212.067      -65.843        0.663      124.636       93.793       49.047    15534.242     8797.048     2405.618        3.802        1.337      222.053       55.807        0.063      346.297       24.440      858.370
05/31/2014  17:47:00     -302.687     -246.145       14.837      234.576      202.933      120.209    55025.673    41181.716    14450.303       13.152        5.533      390.136      134.149        0.118      346.113       24.124      858.342
05/31/2014  17:48:00     -286.085     -108.435       -2.772      223.434      165.691       86.889    49922.867    27453.452     7549.717        8.925        4.246      305.946       91.950        0.090      346.099       24.101      858.350
05/31/2014  17:49:00     -379.418     -126.581      -11.011      230.901      148.671       85.554    53315.179    22103.164     7319.572       12.140        4.137      399.976      109.498        0.075      346.007       23.942      858.404
05/31/2014  17:50:00     -282.463      -47.838       -8.082      118.006      121.700       65.207    13925.525    14810.804     4251.913        5.756        1.649      286.485       57.461        0.040      346.078       24.064      858.390
05/31/2014  17:51:00     -379.651      -68.095      -16.776      117.824      116.403       61.722    13882.409    13549.683     3809.643        9.014        1.562      385.709       56.237        0.021      346.004       23.936      858.385
05/31/2014  17:52:00     -310.042     -254.030       17.805      218.557      169.767      108.768    47767.022    28820.812    11830.428       12.468        4.421      400.820      118.025        0.087      346.022       23.968      858.392
05/31/2014  17:53:00     -414.682     -203.996      -11.578      180.380      133.659       74.269    32536.971    17864.652     5515.812       13.480        2.796      462.143       70.428        0.023      345.802       23.590      858.401
05/31/2014  17:54:00     -260.396     -186.464        2.671      187.309      167.032       86.422    35084.510    27899.770     7468.677        8.650        3.523      320.273       97.926        0.093      345.925       23.800      858.402
05/31/2014  17:55:00     -384.567     -153.740       -8.473      186.060      192.375       84.453    34618.195    37008.235     7132.347       12.516        3.938      414.159       60.892        0.022      345.956       23.854      858.406
05/31/2014  17:56:00     -372.121     -149.638      -14.762      178.859      157.677       76.537    31990.560    24862.183     5857.913       11.188        3.136      401.081       85.757        0.046      345.952       23.846      858.416
05/31/2014  17:57:00     -288.922      -73.655       -4.829      180.717      117.213       76.948    32658.528    13738.792     5920.957        7.061        2.616      298.163       84.545        0.080      345.906       23.770      858.419
05/31/2014  17:58:00     -227.242     -124.679      -20.152      141.749      113.719       58.315    20092.822    12932.001     3400.630        5.200        1.821      259.198       52.360        0.041      345.810       23.603      858.412
05/31/2014  17:59:00     -255.425     -171.313        0.524      142.032      106.891       80.994    20173.118    11425.695     6560.018        6.637        1.908      307.555       78.088        0.064      345.914       23.781      858.393
05/31/2014  18:00:00     -284.552     -100.064       -3.575      141.811      100.315       65.935    20110.417    10063.152     4347.372        6.275        1.726      301.633       57.047        0.036      346.082       24.072      858.371
05/31/2014  18:01:00     -247.151     -127.495      -17.565      117.176      115.018       64.321    13730.322    13229.255     4137.185        5.437        1.555      278.098       51.877        0.035      346.135       24.161      858.388
05/31/2014  18:02:00     -239.430     -171.181        1.316      195.707      109.373       77.287    38301.297    11962.477     5973.292        7.142        2.812      294.329       91.212        0.096      346.010       23.947      858.360
05/31/2014  18:03:00     -198.118     -138.066       -1.475      138.681      101.229       59.333    19232.430    10247.275     3520.430        4.565        1.650      241.481       62.099        0.066      346.162       24.206      858.381
05/31/2014  18:04:00     -202.184     -169.724        9.776      150.945      175.873       89.669    22784.359    30931.266     8040.521        6.576        3.088      263.978       88.140        0.111      346.145       24.179      858.371
05/31/2014  18:05:00     -217.014      -96.626       -0.483      147.037      134.120       62.738    21619.880    17988.108     3936.103        4.998        2.177      237.553       62.434        0.069      346.195       24.265      858.413
05/31/2014  18:06:00     -433.166      -40.148      -18.697      213.021      135.314       90.472    45377.917    18309.832     8185.268       13.072        3.594      435.023      101.677        0.055      346.007       23.942      858.395
05/31/2014  18:07:00     -418.627      -79.708       -7.143      233.029      141.761       99.711    54302.609    20096.276     9942.198       13.298        4.217      426.148      106.020        0.062      346.065       24.040      858.433
05/31/2014  18:08:00     -353.413     -102.694      -13.437      276.551      179.104       97.495    76480.526    32078.185     9505.190       12.682        5.903      368.031      113.883        0.096      345.953       23.849      858.452
05/31/2014  18:09:00     -285.209      -40.063        7.683      131.513      135.752       79.988    17295.539    18428.554     6398.061        6.256        2.106      288.009       67.098        0.054      345.985       23.904      858.451
05/31/2014  18:10:00     -314.231     -294.907       -2.106      207.637      173.555       84.873    43112.977    30121.263     7203.351       13.306        4.022      430.943       85.186        0.039      345.823       23.625      858.449
05/31/2014  18:11:00     -443.908     -273.002      -24.570      167.230      164.186       68.763    27965.757    26956.891     4728.314       16.591        2.983      521.137       76.058        0.021      345.772       23.538      858.439
05/31/2014  18:12:00     -289.204     -120.023      -15.049      143.458      126.832       72.898    20580.261    16086.282     5314.121        7.012        2.099      313.121       74.400        0.056      345.909       23.773      858.448
05/31/2014  18:13:00     -206.700     -156.950        7.918      149.762      135.220       75.295    22428.641    18284.430     5669.325        5.689        2.319      259.534       78.597        0.092      345.891       23.743      858.458
05/31/2014  18:14:00     -176.260     -129.301       14.726      107.542      108.489       66.719    11565.302    11769.828     4451.375        3.789        1.389      218.601       57.249        0.069      345.939       23.826      858.477
05/31/2014  18:15:00     -189.593      -89.667       13.813      150.439      126.407       74.205    22631.879    15978.685     5506.364        4.414        2.206      209.728       85.416        0.166      345.958       23.857      858.452
05/31/2014  18:16:00     -293.624     -200.175      -13.145      116.787      103.130       67.809    13639.100    10635.870     4598.024        7.766        1.444      355.366       67.582        0.036      345.808       23.601      858.466
05/31/2014  18:17:00     -224.675     -161.850        6.527      156.586      108.944       63.802    24519.162    11868.781     4070.743        5.858        2.023      276.901       71.477        0.067      345.946       23.836      858.467
05/31/2014  18:18:00     -401.954     -295.156       -3.543      259.685      200.142      116.879    67436.045    40056.951    13660.763       18.490        6.058      498.683      134.321        0.073      345.768       23.532      858.468
05/31/2014  18:19:00     -402.811     -285.105       -6.197      197.169      142.738      100.925    38875.716    20374.230    10185.764       15.649        3.472      493.499      111.443        0.051      345.623       23.282      858.457
05/31/2014  18:20:00     -518.914     -249.232      -14.093      198.579      140.171       82.666    39433.491    19647.893     6833.714       19.874        3.296      575.663       87.802        0.023      345.634       23.302      858.449
05/31/2014  18:21:00     -331.265     -210.998       -1.434      169.955      145.740       77.292    28884.751    21240.285     5973.984       10.517        2.805      392.755       76.601        0.038      345.757       23.513      858.463
05/31/2014  18:22:00     -444.526     -224.693      -24.153      164.890      155.946       94.922    27188.832    24319.218     9010.123       15.458        3.026      498.087       91.155        0.033      345.783       23.557      858.479
05/31/2014  18:23:00     -477.770     -185.798      -11.690      198.228      162.950       84.617    39294.527    26552.657     7160.069       16.795        3.650      512.625       96.840        0.036      345.686       23.391      858.483
05/31/2014  18:24:00     -224.566      -66.022       13.948      139.371      125.596       54.691    19424.362    15774.471     2991.109        4.658        1.909      234.070       64.114        0.075      345.858       23.687      858.485
05/31/2014  18:25:00     -264.872     -203.385      -20.470       89.909      101.730       58.593     8083.698    10348.971     3433.197        6.690        1.093      333.950       43.711        0.017      345.772       23.537      858.492
05/31/2014  18:26:00     -236.934     -189.505        7.681      196.264      149.588       79.990    38519.447    22376.453     6398.392        7.969        3.365      303.397       89.341        0.087      345.855       23.681      858.492
05/31/2014  18:27:00     -232.246     -176.801        0.040      150.388      120.863       71.203    22616.502    14607.882     5069.862        6.374        2.115      291.885       81.082        0.077      345.751       23.504      858.507
05/31/2014  18:28:00     -270.960     -176.303       -0.317      133.795      136.790       64.878    17901.161    18711.394     4209.100        7.265        2.041      323.268       70.204        0.047      345.794       23.577      858.517
05/31/2014  18:29:00     -245.127     -218.571      -18.019      151.175      120.674       70.509    22854.008    14562.293     4971.571        7.528        2.119      328.421       46.040        0.020      345.753       23.505      858.515
05/31/2014  18:30:00     -336.772     -113.313      -22.221      163.852      109.071       73.610    26847.551    11896.572     5418.410        8.545        2.208      355.324       86.303        0.059      345.754       23.508      858.517
05/31/2014  18:31:00     -408.535     -180.233      -22.868      168.974      124.634       70.982    28552.054    15533.550     5038.510       12.451        2.456      446.525       91.451        0.042      345.688       23.395      858.528
05/31/2014  18:32:00     -328.849     -149.177        8.370      206.964      128.706       83.769    42833.892    16565.282     7017.318        9.843        3.321      361.104       90.305        0.063      345.699       23.412      858.519
05/31/2014  18:33:00     -184.400     -118.767       12.085      130.025      103.812       72.092    16906.495    10776.886     5197.318        4.056        1.644      219.338       74.953        0.117      345.756       23.512      858.551
05/31/2014  18:34:00     -315.888      -28.676      -16.649      131.850      130.707       67.334    17384.315    17084.267     4533.919        6.994        1.950      317.187       63.695        0.040      345.688       23.394      858.572
05/31/2014  18:35:00     -285.447     -128.112      -11.043      137.261      136.572       63.095    18840.645    18652.037     3980.941        6.974        2.074      312.878       66.378        0.045      345.648       23.326      858.559
05/31/2014  18:36:00     -328.045     -213.755        4.454      178.401      124.957       84.004    31826.796    15614.345     7056.653       10.390        2.725      391.542       79.671        0.041      345.696       23.408      858.548
05/31/2014  18:37:00     -330.745     -224.408      -16.831      162.825      137.231       75.674    26511.855    18832.420     5726.564       10.554        2.554      399.689       77.978        0.038      345.612       23.264      858.567
05/31/2014  18:38:00     -443.509     -219.405       -4.432      238.508      117.392       84.435    56885.974    13780.942     7129.328       16.131        3.890      494.812      105.636        0.046      345.596       23.236      858.550
05/31/2014  18:39:00     -422.820     -223.881      -13.335      181.294      133.660       86.488    32867.659    17865.065     7480.221       14.363        2.911      478.434       90.172        0.036      345.565       23.182      858.571
05/31/2014  18:40:00     -256.209     -174.262       17.821      181.128      156.855       72.170    32807.347    24603.459     5208.539        7.946        3.131      309.855       87.237        0.079      345.613       23.266      858.586
05/31/2014  18:41:00     -288.448     -157.272       -3.171      213.453      152.698       92.527    45562.250    23316.754     8561.307        9.268        3.872      328.537      114.710        0.122      345.646       23.322      858.592
05/31/2014  18:42:00     -382.456     -212.148        3.378      177.172      150.495       82.971    31390.081    22648.801     6884.259       12.609        3.046      437.355       78.140        0.032      345.623       23.282      858.592
05/31/2014  18:43:00     -411.377     -210.498       -2.279      261.426      145.807       91.544    68343.767    21259.599     8380.255       15.574        4.899      462.104      103.761        0.050      345.533       23.127      858.584
05/31/2014  18:44:00     -484.721     -264.936       -9.357      249.685      167.111       95.725    62342.369    27926.214     9163.244       20.231        4.972      552.400      109.237        0.039      345.487       23.048      858.586
05/31/2014  18:45:00     -354.581     -153.335        3.624      205.840      148.475       92.532    42369.994    22044.700     8562.224       11.110        3.649      386.315       91.503        0.056      345.555       23.165      858.594
05/31/2014  18:46:00     -251.595     -119.082       -4.283      193.113      138.564       73.821    37292.538    19199.960     5449.580        6.971        3.097      278.353       89.586        0.104      345.657       23.341      858.622
05/31/2014  18:47:00     -386.132     -255.956      -11.667      180.052      143.759       89.794    32418.887    20666.529     8062.941       13.794        3.057      463.262       87.672        0.036      345.512       23.092      858.655
05/31/2014  18:48:00     -456.801     -261.736      -18.837      223.408      153.399       95.178    49910.914    23531.349     9058.870       18.000        4.125      526.472      108.030        0.042      345.487       23.046      858.634
05/31/2014  18:49:00     -426.830     -133.897      -14.047      158.968      144.460       76.771    25270.954    20868.689     5893.769       12.616        2.602      447.339       73.021        0.027      345.523       23.109      858.645
05/31/2014  18:50:00     -339.538     -212.975        1.376      166.016      154.804       79.442    27561.396    23964.391     6311.039       10.923        2.892      400.804       84.475        0.044      345.438       22.964      858.636
05/31/2014  18:51:00     -403.621     -155.987      -11.105      208.345      149.445       77.630    43407.689    22333.861     6026.478       12.955        3.588      432.714       83.593        0.037      345.472       23.023      858.640
05/31/2014  18:52:00     -390.826     -105.028       -0.931      170.049      135.309       69.263    28916.577    18308.633     4797.296       10.789        2.601      404.692       76.917        0.036      345.510       23.087      858.668
05/31/2014  18:53:00     -340.156       22.498      -16.540      139.846      121.684       63.657    19556.824    14806.956     4052.252        7.744        1.921      340.899       66.255        0.038      345.587       23.220      858.697
05/31/2014  18:54:00     -225.416       -4.282        9.952      155.909      124.314       71.148    24307.489    15454.080     5062.034        4.787        2.241      225.456       86.732        0.148      345.607       23.257      858.708
05/31/2014  18:55:00     -387.427       -0.209      -38.696      142.044      114.392       64.453    20176.493    13085.478     4154.158        9.450        1.871      387.428       65.924        0.029      345.532       23.127      858.683
05/31/2014  18:56:00     -189.619      -28.457        2.133      122.095       96.254       59.096    14907.115     9264.847     3492.318        3.221        1.383      191.742       59.929        0.098      345.652       23.332      858.699
05/31/2014  18:57:00     -171.974      -63.738       10.290      116.609       92.092       52.537    13597.551     8480.890     2760.146        2.929        1.242      183.405       57.383        0.098      345.660       23.347      858.710
05/31/2014  18:58:00     -272.667     -151.166      -25.181      181.454      124.156       75.039    32925.515    15414.640     5630.881        7.589        2.699      311.767       84.056        0.073      345.601       23.245      858.716
05/31/2014  18:59:00     -151.846     -154.282        3.992      153.306      130.338       81.543    23502.663    16987.954     6649.257        4.700        2.357      216.472       86.372        0.159      345.562       23.177      858.703
05/31/2014  19:00:00     -287.702     -180.701       -2.469      211.320      152.361       89.918    44656.237    23213.859     8085.209        9.568        3.798      339.743      102.104        0.090      345.505       23.081      858.701
05/31/2014  19:01:00     -503.071     -104.195      -25.516      166.965      185.164       72.065    27877.244    34285.762     5193.359       16.596        3.368      513.748       67.652        0.017      345.421       22.935      858.713
05/31/2014  19:02:00     -410.568      -70.629      -33.403      181.107      200.976       66.510    32799.653    40391.284     4423.610       12.613        3.881      416.599       65.943        0.025      345.418       22.930      858.755
05/31/2014  19:03:00     -374.248     -168.206      -20.803      200.244      179.425       93.358    40097.518    32193.385     8715.635       12.488        4.050      410.311      101.685        0.061      345.472       23.023      858.749
05/31/2014  19:04:00     -342.706     -202.462       -3.250      235.840      224.941      115.258    55620.490    50598.470    13284.373       13.895        5.975      398.043      133.076        0.112      345.370       22.847      858.729
05/31/2014  19:05:00     -471.503     -104.328       -9.238      206.666      171.272       96.408    42710.789    29334.009     9294.535       15.730        4.067      482.907      105.679        0.048      345.359       22.830      858.764
05/31/2014  19:06:00     -411.874     -159.491      -31.908      244.856      132.504       86.991    59954.492    17557.263     7567.490       14.057        4.254      441.676      110.141        0.062      345.360       22.830      858.781
05/31/2014  19:07:00     -281.201     -194.289       -0.095      203.940      169.554       83.656    41591.375    28748.694     6998.304        9.706        3.867      341.793      111.869        0.107      345.371       22.850      858.787
05/31/2014  19:08:00     -196.541     -151.917        8.067      135.056      118.279       70.431    18240.227    13989.837     4960.513        4.947        1.860      248.409       68.461        0.076      345.391       22.884      858.804
05/31/2014  19:09:00     -291.386      -65.841      -11.844      179.651      157.661       70.771    32274.469    24857.018     5008.466        7.575        3.107      298.732       79.122        0.070      345.403       22.904      858.818
05/31/2014  19:10:00     -252.388      -15.118      -22.679      105.721       76.050       55.973    11177.024     5783.564     3132.932        4.226        1.005      252.840       51.978        0.042      345.468       23.016      858.827
05/31/2014  19:11:00     -334.173      -39.938      -10.837      161.926      121.758       68.798    26219.950    14825.001     4733.124        7.957        2.289      336.551       74.402        0.049      345.429       22.947      858.834
05/31/2014  19:12:00     -327.371       16.579      -15.194      190.933      151.498       80.283    36455.372    22951.633     6445.289        8.675        3.293      327.791       91.578        0.078      345.372       22.851      858.841
05/31/2014  19:13:00     -275.642      -10.877      -15.733      162.133       83.737       61.560    26287.263     7011.878     3789.657        5.671        1.854      275.857       70.226        0.065      345.445       22.976      858.868
05/31/2014  19:14:00     -442.694      -96.568      -36.798      102.908       96.525       55.341    10590.012     9317.103     3062.577       11.481        1.148      453.104       51.756        0.013      345.307       22.739      858.870
05/31/2014  19:15:00     -298.345      -97.557      -12.382      148.201      102.601       67.929    21963.554    10526.977     4614.332        6.789        1.855      313.891       64.058        0.042      345.368       22.845      858.853
05/31/2014  19:16:00     -339.825      -71.023       -7.912      177.600      153.761       88.166    31541.843    23642.315     7773.262        9.176        3.148      347.167       92.741        0.071      345.312       22.749      858.863
05/31/2014  19:17:00     -304.434      -62.304        1.326      183.956      177.849       79.019    33839.674    31630.099     6244.023        8.412        3.586      310.744       80.062        0.066      345.295       22.720      858.893
05/31/2014  19:18:00     -448.159     -112.592      -31.492      146.693      156.094       85.535    21518.871    24365.262     7316.265       13.385        2.660      462.086       74.535        0.026      345.216       22.583      858.894
05/31/2014  19:19:00     -269.190      -95.694       -0.020      140.860      109.243       59.972    19841.642    11933.928     3596.651        5.849        1.769      285.693       63.592        0.050      345.258       22.656      858.894
05/31/2014  19:20:00     -316.438      -60.874        1.400      164.764      130.700       67.696    27147.314    17082.381     4582.747        7.632        2.441      322.240       70.529        0.048      345.269       22.675      858.893
05/31/2014  19:21:00     -362.600      -29.364       -9.826      184.105      133.808       75.694    33894.541    17904.548     5729.636        9.497        2.876      363.787       78.810        0.047      345.222       22.595      858.915
05/31/2014  19:22:00     -268.415     -104.146       15.015      204.099      134.418       79.652    41656.527    18068.075     6344.410        7.458        3.303      287.912       91.585        0.101      345.193       22.547      858.911
05/31/2014  19:23:00     -380.891      -49.142      -32.447      212.555      114.604       83.041    45179.647    13134.138     6895.850       10.686        3.260      384.048      106.401        0.077      345.215       22.583      858.924
05/31/2014  19:24:00     -511.851     -120.670      -22.613      173.349      136.526       87.786    30049.840    18639.344     7706.403       16.672        2.820      525.882       85.709        0.027      345.133       22.442      858.936
05/31/2014  19:25:00     -442.096     -146.400      -25.906      164.386      181.662       77.269    27022.607    33001.134     5970.546       14.176        3.300      465.706       70.200        0.023      345.131       22.439      858.934
05/31/2014  19:26:00     -337.550      -18.669       -6.100      163.690      146.070       70.959    26794.302    21336.368     5035.169        8.374        2.658      338.066       72.586        0.046      345.128       22.435      858.946
05/31/2014  19:27:00     -329.039     -189.190      -22.180      190.143      125.971       78.395    36154.517    15868.678     6145.846       10.135        2.908      379.552       91.060        0.058      345.131       22.440      858.953
05/31/2014  19:28:00     -213.554      -72.752       17.553      171.118      108.189       59.655    29281.495    11704.880     3558.721        4.787        2.227      225.606       64.240        0.081      345.125       22.429      858.960
05/31/2014  19:29:00     -212.157      -51.791       -7.800      139.855      120.910       65.831    19559.353    14619.344     4333.771        4.313        1.926      218.387       52.116        0.057      345.184       22.532      858.970
05/31/2014  19:30:00     -250.040      -99.557        8.188      200.155      161.903       82.742    40061.917    26212.564     6846.216        7.280        3.656      269.132       79.540        0.087      345.125       22.429      858.948
05/31/2014  19:31:00     -452.885      -72.292      -29.187      214.874      160.744       84.285    46170.896    25838.745     7103.988       14.513        3.956      458.619       76.400        0.028      345.043       22.288      858.961
05/31/2014  19:32:00     -272.540      -62.351        3.612      196.155      108.941       79.333    38476.735    11868.152     6293.777        6.740        2.832      279.581       94.445        0.114      345.070       22.337      858.971
05/31/2014  19:33:00     -348.506     -104.916      -19.082      173.299      134.132       76.276    30032.392    17991.361     5818.022        9.332        2.692      363.956       76.135        0.044      345.044       22.291      858.986
05/31/2014  19:34:00     -329.632      -10.167      -15.181      153.462      135.523       67.241    23550.503    18366.478     4521.381        7.771        2.322      329.789       68.460        0.043      345.034       22.273      859.004
05/31/2014  19:35:00     -366.056      -47.985      -35.975      188.648      121.207       71.802    35587.952    14691.101     5155.495        9.650        2.772      369.188       64.425        0.030      345.025       22.257      858.998
05/31/2014  19:36:00     -339.246      -77.129      -21.677      144.621      119.382       65.997    20915.089    14252.038     4355.628        8.051        1.976      347.904       66.604        0.037      345.004       22.221      859.025
05/31/2014  19:37:00     -519.936      -31.801      -36.878      177.047      149.466       79.568    31345.682    22340.117     6330.994       16.635        3.001      520.908       77.213        0.022      344.961       22.147      859.036
05/31/2014  19:38:00     -306.122       -1.655      -18.089      196.697      107.899       66.158    38689.597    11642.252     4376.878        7.436        2.735      306.127       85.931        0.079      344.974       22.170      859.052
05/31/2014  19:39:00     -356.548      -52.307      -17.414      144.036      151.364       69.030    20746.420    22911.130     4765.168        8.928        2.421      360.365       75.892        0.044      344.953       22.135      859.060
05/31/2014  19:40:00     -412.284     -122.082      -22.133      197.777      131.926       67.946    39115.635    17404.570     4616.676       12.324        3.057      429.979       80.430        0.035      344.915       22.070      859.058
05/31/2014  19:41:00     -321.583      -48.243       -9.180      138.243      104.571       64.078    19111.104    10935.040     4105.949        6.998        1.708      325.181       62.925        0.037      344.934       22.100      859.065
05/31/2014  19:42:00     -255.048      -64.915       -1.773      118.981       93.508       63.688    14156.440     8743.698     4056.141        4.811        1.348      263.180       70.866        0.073      344.906       22.054      859.077
05/31/2014  19:43:00     -371.586      -29.523       -9.844      175.815      106.881       74.467    30910.940    11423.653     5545.341        9.345        2.394      372.757       82.733        0.049      344.880       22.010      859.101
05/31/2014  19:44:00     -311.601        4.864       -5.543      179.292       99.779       69.562    32145.478     9955.806     4838.901        7.204        2.347      311.639       86.963        0.078      344.872       21.998      859.096
05/31/2014  19:45:00     -258.075      -66.983      -15.113       78.064       91.939       45.475     6094.063     8452.862     2068.017        4.396        0.831      266.627       34.362        0.017      344.864       21.982      859.095
05/31/2014  19:46:00     -243.463     -126.974        4.130      158.707       99.261       71.042    25188.015     9852.802     5046.968        5.774        2.004      274.585       66.214        0.058      344.862       21.980      859.102
05/31/2014  19:47:00     -151.333      -57.696       10.311      132.749      113.491       77.314    17622.206    12880.155     5977.390        3.140        1.824      161.959       66.861        0.170      344.860       21.976      859.101
05/31/2014  19:48:00     -233.126      -83.330       -7.922      221.978      132.400       80.987    49274.174    17529.867     6558.930        6.734        3.668      247.572       99.421        0.161      344.808       21.887      859.104
05/31/2014  19:49:00     -359.286     -104.578      -11.965      162.998      130.347       68.525    26568.303    16990.222     4695.640        9.420        2.413      374.196       63.740        0.029      344.787       21.849      859.131
05/31/2014  19:50:00     -287.434     -112.655      -12.061      184.808      114.358       63.120    34154.012    13077.862     3984.195        7.333        2.561      308.722       66.950        0.047      344.828       21.920      859.130
05/31/2014  19:51:00     -215.234      -51.636      -13.671      137.320      101.194       60.713    18856.806    10240.185     3686.067        4.097        1.639      221.341       76.157        0.118      344.783       21.842      859.145
05/31/2014  19:52:00     -195.955      -14.150       -5.241      149.272      101.948       52.710    22282.141    10393.297     2778.354        3.703        1.773      196.465       57.686        0.086      344.713       21.724      859.145
05/31/2014  19:53:00     -290.703      -57.429       -1.803      143.465      115.536       60.091    20582.348    13348.580     3610.915        6.267        1.877      296.321       70.105        0.056      344.732       21.756      859.157
05/31/2014  19:54:00     -177.108     -100.585       12.856      142.827      123.659       64.300    20399.495    15291.565     4134.440        4.073        1.991      203.677       58.293        0.082      344.733       21.759      859.156
05/31/2014  19:55:00     -203.300     -110.708        5.176      163.916      104.906       71.759    26868.437    11005.362     5149.287        4.831        2.151      231.489       88.400        0.146      344.684       21.674      859.162
05/31/2014  19:56:00      -87.065      -23.465       10.555      122.017       72.188       47.960    14888.194     5211.155     2300.137        1.532        1.120       90.172       58.200        0.417      344.650       21.618      859.166
05/31/2014  19:57:00     -167.990      -44.815        1.873      128.863      119.800       56.861    16605.701    14351.986     3233.190        3.220        1.710      173.865       72.537        0.174      344.671       21.651      859.176
05/31/2014  19:58:00     -259.341     -140.857       -9.082      127.369      117.026       60.167    16222.767    13695.112     3620.014        6.035        1.677      295.124       69.177        0.055      344.626       21.575      859.163
05/31/2014  19:59:00     -150.134     -128.767       14.621      153.057      132.890       79.762    23426.489    17659.816     6362.013        4.338        2.372      197.791       88.959        0.202      344.589       21.514      859.179
05/31/2014  20:00:00     -204.313     -104.119       18.930      224.664      143.508       84.038    50473.761    20594.558     7062.356        6.552        3.907      229.313       99.126        0.187      344.513       21.383      859.140
05/31/2014  20:01:00     -147.524      -40.121       -0.940      101.866       78.929       48.688    10376.749     6229.745     2370.563        2.117        0.949      152.883       50.316        0.108      344.524       21.402      859.172
05/31/2014  20:02:00     -346.206     -147.207      -14.717      166.002      164.112       65.037    27556.674    26932.787     4229.845       10.022        2.936      376.203       71.720        0.036      344.525       21.403      859.176
05/31/2014  20:03:00     -186.757      -54.915        3.582      107.722       96.918       56.991    11604.083     9393.161     3247.942        3.107        1.212      194.663       53.804        0.076      344.513       21.383      859.176
05/31/2014  20:04:00     -286.433     -127.047       -4.464      137.467      116.836       76.261    18897.199    13650.618     5815.813        6.828        1.918      313.345       73.735        0.055      344.480       21.325      859.184
05/31/2014  20:05:00     -430.799      -68.874      -11.715      223.594      146.877       69.514    49994.242    21572.759     4832.225       13.342        3.820      436.270       83.593        0.037      344.454       21.281      859.187
05/31/2014  20:06:00     -268.198      -33.409       -8.508      121.033      147.160       66.973    14648.984    21656.195     4485.446        5.695        2.040      270.271       53.421        0.039      344.408       21.202      859.195
05/31/2014  20:07:00     -288.612     -142.075       -9.032      160.034      151.147       88.373    25610.784    22845.310     7809.754        7.990        2.813      321.687       85.117        0.070      344.438       21.253      859.178
05/31/2014  20:08:00     -337.091      -66.681      -12.108      146.076      121.845       65.344    21338.137    14846.237     4269.777        7.933        2.023      343.623       66.066        0.037      344.434       21.247      859.187
05/31/2014  20:09:00     -317.682      -57.840       -8.182      152.449      157.322       75.584    23240.597    24750.276     5712.888        7.901        2.685      322.904       76.554        0.056      344.401       21.190      859.195
05/31/2014  20:10:00     -112.000      -52.388       27.258      129.220       95.622       60.097    16697.797     9143.582     3611.658        2.274        1.473      123.646       65.187        0.278      344.366       21.131      859.203
05/31/2014  20:11:00     -270.760     -151.278        1.866      160.690      112.591       72.437    25821.307    12676.698     5247.091        6.996        2.187      310.154       81.177        0.069      344.409       21.203      859.207
05/31/2014  20:12:00     -188.669      -47.193        2.038      129.651      105.553       70.530    16809.384    11141.472     4974.504        3.537        1.646      194.482       75.259        0.150      344.402       21.193      859.207
05/31/2014  20:13:00     -356.388     -168.241        1.946      197.948      135.038       74.960    39183.294    18235.233     5618.928       10.917        3.152      394.103       84.846        0.046      344.338       21.083      859.211
05/31/2014  20:14:00     -211.176      -60.388       -1.002      165.103       88.269       59.422    27258.919     7791.392     3530.962        4.340        1.929      219.641       55.854        0.065      344.336       21.081      859.224
05/31/2014  20:15:00     -252.692     -125.042        5.343      201.739      156.805       90.299    40698.556    24587.894     8153.897        7.646        3.672      281.937      106.823        0.144      344.298       21.016      859.213
05/31/2014  20:16:00     -293.437      -61.666       -2.850      146.097      121.235       66.558    21344.455    14697.898     4429.987        6.519        2.024      299.846       80.054        0.071      344.273       20.971      859.222
05/31/2014  20:17:00     -354.857     -199.357       -6.494      186.923      171.897       76.197    34940.191    29548.539     5806.059       11.799        3.515      407.021       79.768        0.038      344.256       20.943      859.223
05/31/2014  20:18:00     -304.466     -152.950       -8.199      155.749      127.098       72.336    24257.860    16153.897     5232.554        8.089        2.282      340.725       73.350        0.046      344.267       20.962      859.233
05/31/2014  20:19:00     -342.078     -251.491      -23.092      190.347      136.147       76.136    36231.932    18536.047     5796.732       12.067        3.028      424.577       88.708        0.044      344.257       20.943      859.238
05/31/2014  20:20:00     -147.080      -84.864       24.810      180.069      120.549       89.214    32424.825    14532.126     7959.138        4.217        2.746      169.807       91.047        0.287      344.161       20.781      859.240
05/31/2014  20:21:00     -234.010     -129.975      -13.901      198.223      153.620       86.766    39292.491    23599.026     7528.313        7.112        3.521      267.683       82.591        0.095      344.177       20.807      859.231
05/31/2014  20:22:00     -335.008      -94.596       -1.599      189.305      132.386       74.441    35836.243    17525.933     5541.436        9.003        2.945      348.108       98.867        0.081      344.149       20.759      859.239
05/31/2014  20:23:00     -289.567     -187.172       -5.550      156.993      110.947       74.851    24646.922    12309.228     5602.616        8.073        2.128      344.793       82.261        0.057      344.131       20.727      859.249
05/31/2014  20:24:00     -310.038     -273.274      -12.158      179.902      156.669       90.964    32364.869    24545.208     8274.535       11.805        3.259      413.283      101.709        0.061      344.137       20.738      859.237
05/31/2014  20:25:00     -221.647     -160.361       12.262      169.356      139.732       76.474    28681.424    19525.012     5848.275        6.451        2.703      273.574       94.292        0.119      344.086       20.653      859.271
05/31/2014  20:26:00     -414.915     -170.658       -8.179      175.825      139.829       84.844    30914.509    19552.038     7198.525       12.949        2.883      448.641       88.687        0.039      344.071       20.627      859.278
05/31/2014  20:27:00     -294.807     -110.400        2.807      192.166      170.899       79.682    36927.620    29206.588     6349.193        8.578        3.624      314.800      101.588        0.104      344.041       20.576      859.312
05/31/2014  20:28:00     -284.773     -131.565       12.747      232.205      139.864       87.134    53919.167    19562.035     7592.364        8.980        4.054      313.696      101.487        0.105      344.039       20.572      859.331
05/31/2014  20:29:00     -332.296      -43.138      -22.915      165.596      122.714       74.205    27421.977    15058.822     5506.440        8.039        2.399      335.084       87.948        0.069      344.001       20.508      859.352
05/31/2014  20:30:00     -255.880     -101.847       -8.375      165.639      150.476       76.518    27436.169    22643.056     5854.947        6.591        2.797      275.404       81.993        0.089      343.961       20.438      859.366
05/31/2014  20:31:00     -170.648      -94.723       -3.635      179.029      123.469       80.299    32051.440    15244.685     6447.960        4.591        2.687      195.175       72.372        0.137      343.973       20.460      859.359
05/31/2014  20:32:00     -376.790     -158.694      -19.017      156.300      152.946       78.354    24429.750    23392.571     6139.272       11.073        2.698      408.845       84.584        0.043      343.943       20.407      859.356
05/31/2014  20:33:00     -242.519     -173.373        6.091      155.840      127.390       76.893    24286.176    16228.174     5912.553        6.766        2.321      298.117       66.553        0.050      343.921       20.371      859.362
05/31/2014  20:34:00     -331.498     -135.136        4.587      152.330      105.517       64.071    23204.500    11133.912     4105.092        8.330        1.922      357.985       57.262        0.026      343.913       20.355      859.388
05/31/2014  20:35:00     -213.481     -162.084        3.888      192.513      159.031       92.429    37061.118    25290.775     8543.046        7.136        3.545      268.040      105.833        0.156      343.889       20.315      859.402
05/31/2014  20:36:00     -355.549     -233.952       -1.207      178.617      162.451       95.861    31904.003    26390.420     9189.252       12.430        3.374      425.615      105.759        0.062      343.892       20.321      859.415
05/31/2014  20:37:00     -455.786     -193.574      -36.306      251.104      165.832       95.399    63053.132    27500.172     9100.884       17.307        4.983      495.189       93.890        0.036      343.888       20.314      859.443
05/31/2014  20:38:00     -228.251      -89.742       12.851      199.445      127.257       77.212    39778.271    16194.360     5961.729        6.111        3.097      245.259       82.878        0.114      343.855       20.259      859.444
05/31/2014  20:39:00     -261.756      -88.178       -9.173      180.960      128.516       77.625    32746.474    16516.484     6025.579        6.582        2.764      276.209       92.496        0.112      343.834       20.223      859.460
05/31/2014  20:40:00     -203.799     -148.314        7.287      143.058      142.349       75.612    20465.605    20263.148     5717.215        5.501        2.322      252.053       88.970        0.125      343.822       20.201      859.456
05/31/2014  20:41:00     -400.670     -219.612      -19.662      168.246      149.620       81.921    28306.816    22386.277     6711.011       13.327        2.870      456.909       71.014        0.024      343.805       20.172      859.446
05/31/2014  20:42:00     -359.710     -183.516       -7.155      176.474      157.385       82.651    31143.208    24770.137     6831.140       11.292        3.137      403.819       85.906        0.045      343.761       20.098      859.454
05/31/2014  20:43:00     -274.164     -144.450       -0.049      223.938      141.965       91.793    50148.215    20154.162     8425.903        8.736        3.936      309.889      105.913        0.117      343.750       20.080      859.483
05/31/2014  20:44:00     -181.475     -122.945        5.011      162.901      112.015       73.833    26536.739    12547.327     5451.280        4.630        2.227      219.200       87.235        0.158      343.732       20.048      859.502
05/31/2014  20:45:00     -240.828     -104.560       -3.907      128.891       84.002       71.136    16612.924     7056.319     5060.294        4.883        1.436      262.547       70.151        0.071      343.751       20.080      859.506
05/31/2014  20:46:00     -260.083     -118.598       -6.786      164.077      121.607       70.100    26921.233    14788.365     4914.028        6.418        2.331      285.847       81.710        0.082      343.722       20.031      859.512
05/31/2014  20:47:00     -232.972     -126.235       -1.965      162.152       95.926       69.354    26293.395     9201.780     4809.913        5.525        2.015      264.974       77.297        0.085      343.733       20.051      859.536
05/31/2014  20:48:00     -285.575     -168.714        6.510      198.429      159.057       98.831    39373.952    25299.205     9767.580        9.224        3.722      331.689      106.743        0.104      343.717       20.022      859.533
05/31/2014  20:49:00     -277.601     -252.732      -14.493      165.386      138.088       93.029    27352.443    19068.329     8654.391        9.810        2.754      375.414       85.642        0.052      343.716       20.019      859.534
05/31/2014  20:50:00     -368.238     -100.013      -25.657      167.907      146.648       70.000    28192.909    21505.752     4899.971       10.042        2.730      381.579       67.061        0.031      343.710       20.009      859.539
05/31/2014  20:51:00     -402.633     -137.203      -36.232      203.220      213.264       89.792    41298.366    45481.646     8062.519       13.853        4.742      425.368       89.111        0.044      343.724       20.034      859.535
05/31/2014  20:52:00     -310.529     -121.152        7.501      156.294      136.927       78.128    24427.774    18748.933     6103.959        8.021        2.464      333.325       70.058        0.044      343.698       19.988      859.560
05/31/2014  20:53:00     -313.230     -219.131       -7.130      177.014      140.210       81.416    31334.006    19658.797     6628.537       10.189        2.881      382.272       84.460        0.049      343.675       19.949      859.569
05/31/2014  20:54:00     -254.778     -113.378       -8.862      165.135      138.776       74.306    27269.546    19258.876     5521.308        6.494        2.602      278.867       83.798        0.090      343.630       19.873      859.570
05/31/2014  20:55:00     -244.873     -176.630        2.053      186.426      147.963       83.025    34754.547    21893.086     6893.226        7.734        3.177      301.928       88.863        0.087      343.643       19.895      859.550
05/31/2014  20:56:00     -242.018     -106.505       13.205      188.373      143.088       69.673    35484.323    20474.125     4854.377        6.544        3.041      264.416       83.976        0.101      343.614       19.847      859.578
05/31/2014  20:57:00     -367.768     -165.696      -16.130      209.578      145.987       87.366    43922.966    21312.072     7632.879       11.790        3.643      403.371       92.936        0.053      343.622       19.860      859.574
05/31/2014  20:58:00     -319.899     -108.013       -1.384      194.582      131.691       79.744    37862.118    17342.516     6359.157        8.777        3.078      337.642       93.896        0.077      343.599       19.820      859.584
05/31/2014  20:59:00     -325.476     -142.594       -5.809      157.238      185.344       75.527    24723.871    34352.225     5704.388        9.553        3.239      355.342       71.558        0.041      343.590       19.804      859.623
05/31/2014  21:00:00     -325.180     -149.846       -6.775      234.520      122.193       89.238    54999.693    14931.030     7963.504       10.305        3.895      358.044      111.275        0.097      343.589       19.802      859.625
05/31/2014  21:01:00     -315.388       -7.028        4.159      152.892      111.463       76.902    23376.044    12423.992     5913.867        7.062        2.086      315.466       81.151        0.066      343.556       19.749      859.632
05/31/2014  21:02:00     -295.023      -91.141       -1.936      190.406      116.812       84.315    36254.413    13644.972     7109.062        7.617        2.850      308.780       88.496        0.082      343.510       19.670      859.627
05/31/2014  21:03:00     -276.773      -71.463       -1.522      137.324      115.309       60.021    18857.847    13296.057     3602.489        5.873        1.788      285.850       63.075        0.049      343.504       19.660      859.644
05/31/2014  21:04:00     -334.377     -189.574       -4.114      206.269      137.599       85.286    42547.059    18933.512     7273.776       10.824        3.438      384.378       91.173        0.056      343.522       19.691      859.645
05/31/2014  21:05:00     -349.397     -181.300      -36.884      173.196      135.777       75.295    29996.708    18435.268     5669.283       10.519        2.705      393.634       75.729        0.037      343.528       19.700      859.669
05/31/2014  21:06:00     -302.299     -150.832      -10.287      157.145      148.056       77.043    24694.401    21920.683     5935.564        8.338        2.628      337.838       82.104        0.059      343.506       19.663      859.672
05/31/2014  21:07:00     -200.111     -109.309       -0.503      141.983      125.981       78.274    20159.207    15871.192     6126.760        4.707        2.108      228.020       73.285        0.103      343.481       19.619      859.678
05/31/2014  21:08:00     -424.479     -156.569      -11.530      160.734      184.350       77.918    25835.490    33985.047     6071.241       13.535        3.295      452.434       85.742        0.036      343.486       19.629      859.687
05/31/2014  21:09:00     -413.404     -139.367      -20.927      174.521      168.654       83.258    30457.621    28444.178     6931.850       12.829        3.292      436.264       81.395        0.035      343.497       19.646      859.720
05/31/2014  21:10:00     -407.434     -104.619      -19.386      206.349      171.439       68.472    42579.829    29391.426     4688.466       12.698        3.833      420.652       83.184        0.039      343.521       19.688      859.736
05/31/2014  21:11:00     -364.516     -111.251      -26.910      155.140      120.493       71.850    24068.534    14518.583     5162.377        9.485        2.187      381.115       57.241        0.023      343.500       19.652      859.770
05/31/2014  21:12:00     -280.259      -91.287      -13.554      131.337      102.008       59.346    17249.441    10405.711     3521.937        5.911        1.559      294.751       65.363        0.049      343.487       19.629      859.782
05/31/2014  21:13:00     -103.866      -26.406        7.554       73.808       77.881       50.084     5447.560     6065.522     2508.417        1.278        0.701      107.170       33.770        0.099      343.439       19.552      859.764
05/31/2014  21:14:00     -172.980      -56.427       -5.838      127.316       86.287       46.849    16209.373     7445.398     2194.853        2.949        1.292      181.951       41.555        0.052      343.432       19.537      859.734
05/31/2014  21:15:00     -500.620     -107.445      -30.212      134.434      148.910       76.962    18072.615    22174.278     5923.098       15.461        2.308      512.020       72.436        0.020      343.451       19.569      859.736
05/31/2014  21:16:00     -335.672     -139.986       -3.448      146.349      132.286       72.208    21417.929    17499.631     5213.971        8.820        2.207      363.692       74.040        0.041      343.417       19.512      859.766
05/31/2014  21:17:00     -330.055     -137.760       -8.315      148.457      129.482       74.311    22039.350    16765.674     5522.113        8.615        2.216      357.651       71.417        0.040      343.408       19.496      859.775
05/31/2014  21:18:00     -408.864      -38.811       -8.632      164.861      122.288       78.625    27179.008    14954.252     6181.819       10.852        2.416      410.701       84.656        0.042      343.407       19.494      859.805
05/31/2014  21:19:00     -299.567      -72.896      -11.251      170.624      156.359       84.719    29112.383    24448.286     7177.325        7.795        3.037      308.309      102.051        0.110      343.370       19.431      859.828
05/31/2014  21:20:00     -282.230      -52.234       -5.100      203.092      105.594       61.792    41246.326    11150.032     3818.311        6.930        2.811      287.023       72.175        0.063      343.357       19.409      859.857
05/31/2014  21:21:00     -413.914     -123.314      -31.046      136.465       85.275       60.722    18622.747     7271.873     3687.114       10.853        1.479      431.892       57.899        0.018      343.328       19.359      859.861
05/31/2014  21:22:00     -241.655      -34.514        2.904      160.079       90.160       66.095    25625.188     8128.906     4368.538        4.885        1.906      244.107       77.218        0.100      343.248       19.223      859.883
05/31/2014  21:23:00     -317.210      -75.787      -15.855      158.649      100.517       61.716    25169.554    10103.598     3808.913        7.284        1.954      326.138       70.989        0.047      343.242       19.213      859.899
05/31/2014  21:24:00     -437.214       27.496      -30.206      151.097      117.924       69.586    22830.252    13906.034     4842.240       11.719        2.079      438.077       69.481        0.025      343.330       19.361      859.903
05/31/2014  21:25:00     -377.787      -87.680      -27.506      128.570      124.542       57.762    16530.126    15510.680     3336.496        9.326        1.769      387.828       42.059        0.012      343.324       19.352      859.899
05/31/2014  21:26:00     -227.571      -60.825        2.237      119.996      118.995       53.999    14399.062    14159.703     2915.920        4.348        1.574      235.560       58.154        0.061      343.248       19.223      859.894
05/31/2014  21:27:00     -364.871     -101.891      -23.883      160.240      117.913       58.358    25676.862    13903.460     3405.614        9.353        2.149      378.830       59.117        0.024      343.236       19.201      859.907
05/31/2014  21:28:00     -397.987        2.042      -22.950      162.614      126.171       68.574    26443.155    15919.175     4702.454       10.299        2.353      397.993       78.409        0.039      343.207       19.152      859.915
05/31/2014  21:29:00     -338.724      -86.900      -18.503      171.393      128.898       76.184    29375.440    16614.591     5803.961        8.720        2.590      349.693       76.016        0.047      343.199       19.138      859.936
05/31/2014  21:30:00     -224.557      -79.641        1.312      103.080       89.986       60.797    10625.436     8097.513     3696.286        3.959        1.121      238.262       55.655        0.055      343.206       19.150      859.954
05/31/2014  21:31:00     -190.614      -85.613       -4.348       91.722       91.644       51.196     8412.893     8398.655     2620.980        3.155        0.972      208.958       39.147        0.035      343.217       19.169      859.949
05/31/2014  21:32:00     -184.468      -76.115       11.587      113.793      125.309       66.929    12948.835    15702.453     4479.513        3.654        1.657      199.554       64.840        0.106      343.189       19.122      859.939
05/31/2014  21:33:00     -238.082     -166.511      -12.870      122.405      119.495       70.585    14983.022    14279.027     4982.234        5.940        1.712      290.532       68.167        0.055      343.272       19.263      859.945
05/31/2014  21:34:00     -217.823      -42.128        1.621      187.799      107.302       74.181    35268.504    11513.704     5502.767        5.074        2.614      221.859       90.241        0.165      343.212       19.162      859.961
05/31/2014  21:35:00     -256.166      -41.635       -3.389      179.086      110.031       82.340    32071.669    12106.846     6779.802        5.915        2.548      259.528       83.837        0.104      343.210       19.157      859.981
05/31/2014  21:36:00     -324.506      -87.820      -20.401      171.433      128.205       67.464    29389.210    16436.409     4551.449        8.189        2.519      336.179       75.871        0.051      343.242       19.210      859.992
05/31/2014  21:37:00     -294.448     -114.301       -5.294      191.625       97.246       74.632    36720.328     9456.844     5569.885        7.576        2.587      315.855       85.281        0.073      343.218       19.171      860.016
05/31/2014  21:38:00     -371.380      -68.881       -6.073      191.368      143.881       72.915    36621.643    20701.687     5316.638       10.266        3.132      377.714       85.852        0.052      343.236       19.203      860.040
05/31/2014  21:39:00     -385.102      -90.850      -27.165      111.428      101.507       65.478    12416.287    10303.645     4287.375        9.215        1.350      395.673       52.117        0.017      343.254       19.232      860.078
05/31/2014  21:40:00     -201.093      -90.153        0.986      169.302       91.025       57.221    28663.222     8285.529     3274.186        4.439        2.011      220.377       77.135        0.123      343.252       19.229      860.091
05/31/2014  21:41:00      -77.544      -56.860       22.491      110.948       78.679       62.141    12309.432     6190.442     3861.557        1.605        1.118       96.157       69.265        0.519      343.169       19.090      860.043
05/31/2014  21:42:00     -136.130      -39.531       15.089       89.505       85.202       45.646     8011.137     7259.321     2083.524        1.883        0.868      141.754       52.592        0.138      343.206       19.153      860.055
05/31/2014  21:43:00     -201.850      -18.451        0.914      153.685      129.307       59.637    23618.958    16720.189     3556.543        4.248        2.195      202.692       60.161        0.088      343.127       19.017      860.090
05/31/2014  21:44:00     -223.359      -30.315       -3.630      116.313      112.802       59.503    13528.649    12724.218     3540.555        4.030        1.490      225.407       53.662        0.057      343.106       18.981      860.122
05/31/2014  21:45:00     -202.600      -77.233       -7.079      135.970       94.435       58.988    18487.961     8917.975     3479.609        3.897        1.544      216.822       53.275        0.060      343.142       19.043      860.154
05/31/2014  21:46:00     -299.037      -73.992      -17.193      132.431      106.791       52.150    17538.005    11404.225     2719.612        6.342        1.583      308.055       43.792        0.020      343.145       19.046      860.154
05/31/2014  21:47:00     -161.026      -29.671        2.317      111.547       94.587       53.903    12442.704     8946.619     2905.514        2.555        1.215      163.737       59.478        0.132      343.050       18.886      860.182
05/31/2014  21:48:00     -334.171      -69.952       -6.766      143.623       99.262       55.474    20627.470     9853.034     3077.350        7.508        1.678      341.414       54.644        0.026      343.126       19.013      860.202
05/31/2014  21:49:00     -264.190      -10.929      -11.993      146.713       93.003       59.858    21524.832     8649.500     3583.016        5.190        1.688      264.416       64.278        0.059      343.078       18.934      860.200
05/31/2014  21:50:00     -330.486        4.597        2.490      112.024      108.457       63.504    12549.433    11762.914     4032.783        6.879        1.417      330.518       61.555        0.035      343.049       18.883      860.202
05/31/2014  21:51:00     -284.928      -16.155      -14.176      170.607      104.853       58.921    29106.606    10994.187     3471.628        6.260        2.179      285.386       65.878        0.053      343.013       18.823      860.219
05/31/2014  21:52:00     -252.412     -105.703       -5.259      149.987       95.802       60.646    22496.076     9178.115     3677.969        5.513        1.768      273.651       68.267        0.062      343.005       18.809      860.246
05/31/2014  21:53:00     -184.285      -49.921        7.119      106.379       95.849       56.307    11316.433     9186.936     3170.515        3.008        1.184      190.927       66.125        0.120      343.009       18.816      860.247
05/31/2014  21:54:00     -239.102     -112.621        7.103      112.411      105.104       58.865    12636.163    11046.891     3465.131        4.852        1.357      264.297       61.779        0.055      343.016       18.828      860.256
05/31/2014  21:55:00     -121.222      -13.947        4.795       84.830       53.899       38.205     7196.111     2905.086     1459.586        1.323        0.578      122.021       49.090        0.162      342.953       18.724      860.250
05/31/2014  21:56:00     -233.675       -0.749       -7.354      186.862       99.193       46.908    34917.392     9839.270     2200.367        5.080        2.348      233.676       65.427        0.078      342.947       18.712      860.241
05/31/2014  21:57:00     -196.210      -91.921       -4.641      162.613      109.064       77.421    26443.013    11895.001     5994.010        4.564        2.217      216.674       92.253        0.181      342.933       18.688      860.276
05/31/2014  21:58:00     -227.672      -42.080       -7.682      137.294      148.140       76.129    18849.607    21945.537     5795.568        5.012        2.330      231.528       85.941        0.138      342.951       18.716      860.287
05/31/2014  21:59:00     -328.706     -127.118       -5.644      171.018      135.886       75.416    29247.224    18465.042     5687.632        8.881        2.670      352.430       81.518        0.054      343.039       18.868      860.323
05/31/2014  22:00:00     -345.750      -62.791      -22.212      175.525      112.010       70.742    30808.971    12546.186     5004.451        8.616        2.418      351.405       71.000        0.041      343.028       18.848      860.354
05/31/2014  22:01:00     -196.125      -49.125       -6.707      138.894      130.903       63.457    19291.605    17135.637     4026.786        4.068        2.023      202.184       65.751        0.106      343.056       18.898      860.371
05/31/2014  22:02:00     -295.167      -26.051      -10.860      125.062      102.077       56.300    15640.390    10419.796     3169.647        5.857        1.461      296.314       57.312        0.037      343.038       18.864      860.369
05/31/2014  22:03:00     -104.114      -12.775       16.718      108.981       79.781       43.230    11876.829     6364.997     1868.833        1.569        1.006      104.895       43.154        0.169      342.888       18.613      860.363
05/31/2014  22:04:00     -346.413      -80.746       -8.996      138.588      121.903       56.617    19206.573    14860.455     3205.450        8.193        1.864      355.699       67.015        0.035      343.026       18.845      860.357
05/31/2014  22:05:00     -387.425      -92.396      -22.698      135.890      110.232       68.514    18466.118    12151.190     4694.208        9.722        1.766      398.290       62.747        0.025      343.007       18.812      860.373
05/31/2014  22:06:00     -250.708      -58.936       -3.564      145.061      120.852       64.433    21042.815    14605.119     4151.657        5.306        1.990      257.542       65.826        0.065      342.957       18.727      860.384
05/31/2014  22:07:00     -371.612      -32.256      -29.321      117.879       81.914       48.366    13895.444     6709.869     2339.244        8.147        1.147      373.009       51.657        0.019      343.043       18.873      860.403
05/31/2014  22:08:00     -338.394      -43.394      -19.005      115.572       82.850       47.552    13356.958     6864.192     2261.236        6.961        1.124      341.165       44.675        0.017      342.996       18.793      860.390
05/31/2014  22:09:00     -402.581      -38.732      -19.002      152.968      106.081       60.908    23399.202    11253.186     3709.795       10.114        1.918      404.440       58.825        0.021      342.981       18.769      860.394
05/31/2014  22:10:00     -474.594      -37.602      -35.235      199.615      125.965       88.815    39845.965    15867.286     7888.148       14.574        3.180      476.081      104.887        0.049      343.033       18.856      860.424
05/31/2014  22:11:00     -381.797     -164.456       -9.830      212.268      160.785       82.431    45057.650    25851.705     6794.832       12.529        3.885      415.710       92.667        0.050      343.097       18.964      860.446
05/31/2014  22:12:00     -279.730      -20.297      -16.559       87.802      108.811       46.162     7709.105    11839.757     2130.946        5.030        1.084      280.465       44.676        0.025      343.066       18.911      860.430
05/31/2014  22:13:00     -296.340      -52.549      -26.669      100.313      137.421       63.483    10062.760    18884.534     4030.037        6.213        1.649      300.963       45.465        0.023      343.009       18.816      860.402
05/31/2014  22:14:00     -187.056      -83.395        4.320      146.508      110.941       51.087    21464.504    12307.823     2609.878        3.917        1.819      204.804       57.368        0.078      342.953       18.720      860.399
05/31/2014  22:15:00     -417.191     -152.696      -23.796      149.029      135.127       77.381    22209.536    18259.256     5987.856       12.218        2.323      444.257       68.495        0.024      342.963       18.736      860.408
05/31/2014  22:16:00     -303.148      -62.285        2.634      168.218      151.914       83.194    28297.362    23077.751     6921.238        7.703        2.915      309.480       88.054        0.081      342.959       18.729      860.447
05/31/2014  22:17:00     -307.545      -52.844      -14.698      130.164      128.106       60.244    16942.556    16411.271     3629.322        6.728        1.849      312.052       66.682        0.046      343.035       18.859      860.478
05/31/2014  22:18:00     -177.291      -19.137        3.405      133.334       66.623       41.860    17777.930     4438.561     1752.226        2.788        1.198      178.321       53.780        0.091      342.957       18.727      860.453
05/31/2014  22:19:00     -344.673      -63.961      -29.690      131.177      110.094       62.235    17207.527    12120.678     3873.224        7.848        1.660      350.558       66.496        0.036      343.007       18.812      860.444
05/31/2014  22:20:00     -433.897      -51.818      -16.569      178.935      151.858       74.544    32017.859    23060.727     5556.796       12.592        3.032      436.980       90.439        0.043      343.005       18.809      860.483
05/31/2014  22:21:00     -435.426      -89.888      -15.609      191.385      135.595       71.022    36628.211    18386.095     5044.071       12.898        3.003      444.607       91.509        0.042      343.024       18.842      860.479
05/31/2014  22:22:00     -511.711       18.827      -38.766      135.904      133.751       78.921    18469.871    17889.303     6228.462       15.314        2.129      512.057       69.818        0.019      343.048       18.881      860.480
05/31/2014  22:23:00     -422.362      -87.498      -33.652      214.932      120.212       87.077    46195.709    14450.807     7582.414       12.769        3.411      431.330      105.125        0.059      343.018       18.831      860.493
05/31/2014  22:24:00     -361.794      -77.719      -13.157      132.206      104.345       61.431    17478.507    10887.940     3773.815        8.462        1.607      370.048       63.924        0.030      342.975       18.758      860.513
05/31/2014  22:25:00     -388.921     -114.127      -12.354      156.171      137.411       66.495    24389.459    18881.679     4421.585       10.606        2.385      405.321       80.541        0.039      342.996       18.794      860.524
05/31/2014  22:26:00     -266.500      -16.479       -3.519      133.725      106.440       64.955    17882.348    11329.471     4219.187        5.236        1.672      267.009       72.308        0.073      342.968       18.746      860.538
05/31/2014  22:27:00     -291.057        3.680       -7.919      132.851       92.610       63.873    17649.301     8576.618     4079.698        5.754        1.515      291.081       67.973        0.055      342.981       18.769      860.528
05/31/2014  22:28:00     -293.100      -34.821      -23.787      125.935       98.558       56.209    15859.680     9713.612     3159.449        5.820        1.437      295.161       61.016        0.043      342.944       18.705      860.551
05/31/2014  22:29:00     -249.470      -38.392        8.477      131.862       90.163       57.549    17387.509     8129.356     3311.934        4.630        1.441      252.407       59.203        0.055      342.864       18.569      860.552
05/31/2014  22:30:00     -249.764      -32.201       -8.033      141.902      114.445       55.756    20136.206    13097.753     3108.683        4.991        1.817      251.832       66.107        0.069      342.939       18.697      860.527
05/31/2014  22:31:00     -350.769      -43.845      -23.505      135.988      102.182       56.315    18492.859    10441.163     3171.433        7.880        1.605      353.499       59.567        0.028      342.953       18.719      860.543
05/31/2014  22:32:00     -268.358      -66.640      -10.665      155.544      131.511       64.771    24193.990    17295.264     4195.335        6.112        2.284      276.508       70.494        0.065      342.969       18.749      860.565
05/31/2014  22:33:00     -299.135      -41.835        6.458      146.280      122.314       71.388    21397.701    14960.832     5096.176        6.636        2.073      302.046       74.267        0.060      342.958       18.727      860.587
05/31/2014  22:34:00     -302.096      -73.918       -9.238      112.105      108.297       60.892    12567.472    11728.334     3707.844        6.240        1.400      311.007       53.874        0.030      343.004       18.806      860.610
05/31/2014  22:35:00     -262.600     -102.333       -1.461      159.487      153.512       76.152    25436.192    23565.820     5799.197        6.711        2.740      281.835       76.167        0.073      343.046       18.878      860.613
05/31/2014  22:36:00     -295.080      -19.414      -14.391      141.935      116.480       54.311    20145.521    13567.600     2949.690        6.215        1.833      295.718       57.784        0.038      342.990       18.784      860.612
05/31/2014  22:37:00     -253.265      -61.484       -2.354      158.775      132.503       56.651    25209.564    17556.956     3209.321        5.694        2.299      260.621       64.517        0.061      342.915       18.656      860.627
05/31/2014  22:38:00     -202.773      -91.054       -8.622      164.900      151.542       72.309    27191.990    22964.891     5228.630        5.242        2.769      222.278       85.210        0.147      342.961       18.734      860.636
05/31/2014  22:39:00     -238.270      -25.374        3.292      133.716       93.118       58.412    17879.892     8670.992     3411.909        4.369        1.498      239.617       66.045        0.076      342.954       18.722      860.660
05/31/2014  22:40:00     -312.261      -93.777      -18.866      180.214      124.167       63.757    32477.141    15417.458     4064.922        7.930        2.598      326.038       78.436        0.058      342.974       18.756      860.651
05/31/2014  22:41:00     -200.485      -72.361      -10.443       91.068       71.166       40.617     8293.361     5064.575     1649.750        3.027        0.750      213.144       35.484        0.028      342.909       18.645      860.634
05/31/2014  22:42:00     -187.045      -22.423      -14.849      120.967       80.795       49.080    14633.086     6527.856     2408.804        2.963        1.178      188.385       59.103        0.098      342.882       18.601      860.616
05/31/2014  22:43:00     -242.027      -52.235      -22.174      161.804      111.972       57.151    26180.692    12537.809     3266.195        5.188        2.099      247.600       71.595        0.084      342.850       18.546      860.633
05/31/2014  22:44:00     -354.698      -81.988      -29.307      101.314      106.760       52.864    10264.590    11397.648     2794.652        7.892        1.223      364.051       46.086        0.016      342.861       18.563      860.632
05/31/2014  22:45:00     -295.431      -43.497      -15.211      137.478      100.834       54.539    18900.185    10167.551     2974.556        6.072        1.602      298.616       49.882        0.028      342.836       18.521      860.610
05/31/2014  22:46:00     -366.522      -18.350      -15.593      187.510      115.615       64.910    35159.939    13366.878     4213.277        9.382        2.637      366.981       80.262        0.048      342.792       18.446      860.611
05/31/2014  22:47:00     -326.985      -24.773      -31.886      139.778      112.402       63.617    19537.787    12634.182     4047.074        7.238        1.811      327.922       67.695        0.043      342.807       18.471      860.627
05/31/2014  22:48:00     -238.940      -63.713      -11.687      156.153      109.483       54.052    24383.842    11986.441     2921.637        5.028        1.965      247.289       58.974        0.057      342.801       18.463      860.615
05/31/2014  22:49:00     -243.465     -102.006      -14.171      186.132      106.629       66.899    34644.947    11369.651     4475.418        6.018        2.525      263.971       87.496        0.110      342.806       18.470      860.598
05/31/2014  22:50:00     -264.053      -43.420      -11.042      106.326      102.416       51.369    11305.237    10489.082     2638.775        4.808        1.222      267.599       56.421        0.044      342.813       18.482      860.613
05/31/2014  22:51:00     -225.641      -67.272       -7.439      109.623       81.967       51.278    12017.272     6718.606     2629.430        3.843        1.068      235.455       50.818        0.047      342.796       18.454      860.615
05/31/2014  22:52:00     -179.101      -72.949       -5.438       80.383       72.422       34.654     6461.488     5245.017     1200.888        2.517        0.645      193.388       26.998        0.019      342.759       18.391      860.616
05/31/2014  22:53:00     -178.162      -15.659      -13.436       80.687       69.448       36.411     6510.358     4822.977     1325.731        2.241        0.633      178.849       32.507        0.033      342.758       18.389      860.615
05/31/2014  22:54:00     -191.073      -95.809       -2.541       83.683       81.077       48.134     7002.911     6573.543     2316.880        3.079        0.795      213.748       44.007        0.042      342.715       18.316      860.619
05/31/2014  22:55:00     -185.229      -25.068        2.524       96.319       75.831       43.302     9277.437     5750.319     1875.076        2.592        0.845      186.918       37.329        0.040      342.674       18.246      860.621
05/31/2014  22:56:00     -277.672        2.324       -7.138      143.216       79.850       53.460    20510.961     6375.946     2858.017        5.345        1.487      277.681       67.498        0.059      342.736       18.353      860.612
05/31/2014  22:57:00     -272.590      -36.827      -19.939      100.681       85.199       49.753    10136.675     7258.817     2475.374        4.796        0.994      275.067       46.038        0.028      342.698       18.286      860.625
05/31/2014  22:58:00     -225.991      -38.475      -10.812      113.894       93.584       59.380    12971.804     8758.058     3526.022        3.896        1.263      229.243       64.826        0.080      342.721       18.324      860.623
05/31/2014  22:59:00     -271.791       47.198       -5.058      138.607       96.808       57.687    19211.970     9371.805     3327.742        5.401        1.596      275.859       62.297        0.051      342.783       18.432      860.607
05/31/2014  23:00:00     -153.214      -33.950       -9.459       79.594       55.364       38.586     6335.236     3065.214     1488.900        1.780        0.544      156.930       43.298        0.076      342.752       18.381      860.586
05/31/2014  23:01:00     -192.527      -20.336       -1.390       90.710       75.540       43.803     8228.254     5706.245     1918.722        2.666        0.793      193.598       50.439        0.068      342.700       18.290      860.579
05/31/2014  23:02:00     -215.316      -16.358       -5.759      107.610       71.649       41.657    11579.881     5133.646     1735.284        3.255        0.922      215.936       53.900        0.062      342.684       18.262      860.584
05/31/2014  23:03:00     -224.348       -7.667       -1.809      125.720       90.245       49.072    15805.636     8144.102     2408.100        3.837        1.318      224.479       48.751        0.047      342.711       18.309      860.587
05/31/2014  23:04:00     -353.139      -72.215      -16.390       95.010      107.001       46.901     9026.916    11449.285     2199.699        7.643        1.134      360.447       31.262        0.008      342.802       18.463      860.588
05/31/2014  23:05:00     -316.698      -41.059      -10.954      103.283       99.835       52.389    10667.399     9966.935     2744.636        6.274        1.169      319.348       45.135        0.020      342.814       18.484      860.598
05/31/2014  23:06:00     -340.181      -56.265      -26.906      147.723       79.135       58.324    21821.992     6262.378     3401.656        7.554        1.574      344.803       60.956        0.031      342.812       18.480      860.589
05/31/2014  23:07:00     -311.541      -66.426      -20.575      102.007       76.090       53.016    10405.510     5789.658     2810.669        6.045        0.950      318.544       51.684        0.026      342.795       18.451      860.587
05/31/2014  23:08:00     -236.853      -48.272       -9.932      114.952       88.778       51.581    13213.924     7881.470     2660.628        4.114        1.188      241.722       51.452        0.045      342.749       18.373      860.578
05/31/2014  23:09:00     -272.917      -65.534      -22.765       87.093      111.019       41.029     7585.123    12325.141     1683.418        5.044        1.080      280.675       34.435        0.015      342.726       18.333      860.575
05/31/2014  23:10:00     -239.145      -32.922      -10.082      101.401      102.590       51.034    10282.146    10524.647     2604.485        4.089        1.171      241.400       54.817        0.052      342.720       18.322      860.575
05/31/2014  23:11:00     -116.993      -11.462        7.340       71.880       84.527       49.709     5166.800     7144.739     2471.020        1.432        0.739      117.553       41.918        0.127      342.613       18.145      860.555
05/31/2014  23:12:00     -130.853      -52.231       -9.441       94.222       46.037       30.180     8877.770     2119.362      910.821        1.592        0.595      140.892       30.288        0.046      342.715       18.317      860.546
05/31/2014  23:13:00     -201.332      -17.348       -9.149       84.482       77.213       32.862     7137.279     5961.885     1079.882        2.755        0.709      202.078       36.620        0.033      342.726       18.335      860.534
05/31/2014  23:14:00     -196.737      -59.774      -13.668       74.695       74.852       38.020     5579.283     5602.847     1445.549        2.754        0.631      205.617       38.210        0.035      342.654       18.212      860.543
05/31/2014  23:15:00     -266.650      -39.926      -12.210      132.260       81.277       55.042    17492.749     6605.886     3029.650        4.998        1.356      269.623       65.555        0.059      342.723       18.329      860.551
05/31/2014  23:16:00     -202.557      -37.350       -9.775       89.599       70.560       38.512     8027.952     4978.677     1483.164        2.850        0.724      205.972       39.399        0.037      342.697       18.285      860.549
05/31/2014  23:17:00     -240.237      -29.133      -20.169       85.971      105.414       46.077     7390.978    11112.216     2123.124        3.979        1.031      241.996       36.464        0.023      342.677       18.250      860.539
05/31/2014  23:18:00     -211.941      -54.137      -29.291       84.270       70.671       29.248     7101.489     4994.358      855.429        3.083        0.648      218.745       14.687        0.005      342.630       18.172      860.532
05/31/2014  23:19:00     -290.955      -80.847      -13.877       91.355      101.966       44.135     8345.750    10397.096     1947.905        5.603        1.035      301.978       34.106        0.013      342.748       18.371      860.533
05/31/2014  23:20:00     -156.470      -35.696       -1.972       87.745       67.653       38.721     7699.199     4576.955     1499.350        1.977        0.689      160.490       35.467        0.049      342.649       18.205      860.540
05/31/2014  23:21:00     -230.545      -41.888      -15.931       53.513       57.253       32.948     2863.620     3277.957     1085.602        3.119        0.361      234.320       26.525        0.013      342.711       18.308      860.549
05/31/2014  23:22:00     -226.890      -70.874      -17.824       76.286       68.098       47.975     5819.601     4637.320     2301.579        3.479        0.638      237.702       38.463        0.026      342.671       18.239      860.547
05/31/2014  23:23:00     -135.948      -18.063      -14.805       67.592       73.655       32.410     4568.697     5424.988     1050.417        1.503        0.552      137.143       30.955        0.051      342.638       18.185      860.559
05/31/2014  23:24:00      -59.302       80.697        0.693       71.568       58.761       38.741     5121.934     3452.841     1500.830        1.005        0.504      100.143       37.142        0.138      342.551       18.040      860.530
05/31/2014  23:25:00     -233.976       50.886      -29.009       65.165       58.465       31.475     4246.528     3418.139      990.670        3.341        0.433      239.445       26.635        0.012      342.719       18.322      860.536
05/31/2014  23:26:00     -172.879       30.379      -26.618       51.341       69.045       27.600     2635.933     4767.172      761.774        1.984        0.408      175.528       25.577        0.021      342.633       18.177      860.540
05/31/2014  23:27:00     -122.621       -2.753      -23.888       59.133       64.329       38.615     3496.654     4138.244     1491.154        1.237        0.456      122.652       26.677        0.047      342.578       18.084      860.553
05/31/2014  23:28:00     -135.733      -24.795      -10.171       63.365       64.455       38.397     4015.125     4154.473     1474.322        1.439        0.482      137.979       34.482        0.062      342.427       17.828      860.584
05/31/2014  23:29:00      -95.022       -1.756      -14.199       62.787       33.497       29.444     3942.167     1122.057      866.921        0.758        0.297       95.038       34.196        0.129      342.451       17.870      860.584
05/31/2014  23:30:00      -29.769       92.196        6.869       49.900       55.201       38.186     2489.968     3047.134     1458.154        0.821        0.350       96.883       43.024        0.197      342.391       17.766      860.567
05/31/2014  23:31:00      -29.148      203.880      -19.570       43.773       40.377       25.311     1916.062     1630.269      640.627        2.349        0.209      205.953       20.318        0.010      342.614       18.144      860.557
05/31/2014  23:32:00      -39.267      142.056      -19.291       37.995       69.515       23.641     1443.611     4832.273      558.898        1.446        0.342      147.383       20.396        0.019      342.541       18.023      860.561
05/31/2014  23:33:00      -75.780       52.547       -1.169       58.622       75.970       28.654     3436.503     5771.508      821.052        0.927        0.501       92.216       25.631        0.077      342.556       18.047      860.564
05/31/2014  23:34:00      -46.032       74.073       -3.346       45.900       41.781       27.496     2106.778     1745.642      756.038        0.611        0.230       87.211       31.284        0.129      342.620       18.158      860.577
05/31/2014  23:35:00      -72.290       -1.938        8.002       62.169       92.311       31.680     3864.986     8521.406     1003.614        0.934        0.670       72.316       22.277        0.095      342.534       18.009      860.568
05/31/2014  23:36:00      -84.606       33.061       -9.538       75.558       35.625       33.241     5709.008     1269.169     1104.948        0.821        0.404       90.836       39.439        0.189      342.684       18.267      860.569
05/31/2014  23:37:00      -91.695       13.100       -4.474       45.123       53.890       24.860     2036.110     2904.095      618.037        0.708        0.278       92.626       16.124        0.030      342.725       18.335      860.568
05/31/2014  23:38:00      -74.666       21.690       -5.997       45.386       37.187       19.753     2059.866     1382.901      390.196        0.496        0.192       77.752       19.639        0.064      342.719       18.325      860.564
05/31/2014  23:39:00     -141.132      -60.956      -10.868       42.273       34.916       17.661     1787.046     1219.145      311.925        1.353        0.166      153.733       10.403        0.005      342.482       17.922      860.571
05/31/2014  23:40:00      -80.974      -19.198       10.261       81.131       69.100       29.884     6582.214     4774.789      893.062        0.964        0.613       83.219       40.508        0.237      342.641       18.192      860.562
05/31/2014  23:41:00     -170.815      -33.709      -16.184       51.052       46.605       28.390     2606.319     2171.991      806.012        1.808        0.279      174.110       24.478        0.020      342.563       18.059      860.564
05/31/2014  23:42:00     -181.868      -17.423      -17.143       79.561       46.110       35.143     6330.008     2126.123     1235.049        2.168        0.485      182.701       40.684        0.050      342.239       17.508      860.586
05/31/2014  23:43:00     -115.535       -4.289       -7.445       98.693       61.298       39.101     9740.338     3757.411     1528.866        1.422        0.751      115.615       53.726        0.216      342.225       17.485      860.595
05/31/2014  23:44:00      -97.823      -32.910      -13.797       56.922       61.405       25.072     3240.072     3770.549      628.595        0.924        0.382      103.211       32.558        0.100      342.280       17.579      860.586
05/31/2014  23:45:00     -100.995      -38.068       -7.759       32.059       32.673       23.453     1027.749     1067.508      550.022        0.718        0.132      107.932       15.555        0.021      342.185       17.418      860.604
05/31/2014  23:46:00      -86.865      -29.826      -16.563       45.228       27.319       22.355     2045.604      746.348      499.743        0.600        0.165       91.843       16.250        0.031      342.131       17.326      860.614
05/31/2014  23:47:00        5.214      -23.211        3.361       47.397       37.167       22.295     2246.455     1381.406      497.055        0.235        0.206       23.790       18.980        0.637      341.914       16.957      860.623
05/31/2014  23:48:00     -140.111       -6.044       -6.862       88.645       34.305       27.185     7858.014     1176.825      739.050        1.474        0.489      140.241       40.165        0.082      341.887       16.908      860.633
05/31/2014  23:49:00      -81.279       33.147       -3.231       68.730       30.997       20.612     4723.864      960.790      424.850        0.691        0.305       87.778       28.921        0.109      341.818       16.793      860.635
05/31/2014  23:50:00      -29.638       79.288      -11.546       42.340       42.519       21.506     1792.693     1807.876      462.498        0.568        0.203       84.647       21.015        0.062      341.896       16.927      860.618
05/31/2014  23:51:00       -4.589      114.886        3.585       30.003       46.603       26.787      900.167     2171.800      717.553        0.851        0.189      114.978       25.569        0.049      342.020       17.136      860.633
05/31/2014  23:52:00      -64.547      105.014      -14.305       44.310       49.523       22.190     1963.388     2452.574      492.386        1.015        0.245      123.265       18.187        0.022      342.178       17.404      860.652
05/31/2014  23:53:00      -64.620      -10.397       -1.054       33.582       31.409       20.758     1127.718      986.540      430.896        0.341        0.127       65.451       14.957        0.052      341.899       16.932      860.659
05/31/2014  23:54:00       19.887        6.471       11.125       34.983       16.667       15.314     1223.804      277.797      234.507        0.115        0.087       20.913        9.977        0.228      341.674       16.551      860.661
05/31/2014  23:55:00        8.404       40.692        6.635       26.952       18.005       14.758      726.386      324.187      217.798        0.152        0.063       41.550       13.294        0.102      341.580       16.391      860.661
05/31/2014  23:56:00      -49.728       28.713       -5.041       28.668       17.341       12.486      821.879      300.705      155.901        0.230        0.064       57.422       16.584        0.083      341.951       17.019      860.666
05/31/2014  23:57:00      -59.927        2.762       -3.804       31.364       17.633        8.308      983.726      310.924       69.027        0.249        0.068       59.991       12.276        0.042      341.822       16.801      860.668
05/31/2014  23:58:00      -30.159      -24.715        2.451       27.997       22.442        8.027      783.850      503.636       64.432        0.144        0.068       38.992        4.191        0.012      341.671       16.546      860.675
05/31/2014  23:59:00      -51.348       -6.384        2.210       35.751       24.297       17.066     1278.106      590.353      291.242        0.242        0.108       51.743       18.343        0.126      341.409       16.101      860.674
